<?xml version='1.0' encoding='UTF-8'?>
<gpx version="1.1" creator="https://www.komoot.de" xmlns="http://www.topografix.com/GPX/1/1" xmlns:xsi="http://www.w3.org/2001/XMLSchema-instance" xsi:schemaLocation="http://www.topografix.com/GPX/1/1 http://www.topografix.com/GPX/1/1/gpx.xsd">
  <metadata>
    <name>65_870Schafmatt</name>
    <author>
      <link href="https://www.komoot.de">
        <text>komoot</text>
        <type>text/html</type>
      </link>
    </author>
  </metadata>
  <trk>
    <name>65_870Schafmatt</name>
    <trkseg>
      <trkpt lat="47.541195" lon="7.870969">
        <ele>342.873136</ele>
        <time>2021-11-18T20:24:44.160Z</time>
      </trkpt>
      <trkpt lat="47.541001" lon="7.871130">
        <ele>342.873136</ele>
        <time>2021-11-18T20:24:49.358Z</time>
      </trkpt>
      <trkpt lat="47.540933" lon="7.871187">
        <ele>342.873136</ele>
        <time>2021-11-18T20:24:50.984Z</time>
      </trkpt>
      <trkpt lat="47.540894" lon="7.871220">
        <ele>342.873136</ele>
        <time>2021-11-18T20:24:52.112Z</time>
      </trkpt>
      <trkpt lat="47.540693" lon="7.871390">
        <ele>342.873136</ele>
        <time>2021-11-18T20:24:57.477Z</time>
      </trkpt>
      <trkpt lat="47.540463" lon="7.871584">
        <ele>342.873136</ele>
        <time>2021-11-18T20:25:03.671Z</time>
      </trkpt>
      <trkpt lat="47.540265" lon="7.871808">
        <ele>343.210941</ele>
        <time>2021-11-18T20:25:09.165Z</time>
      </trkpt>
      <trkpt lat="47.540216" lon="7.871851">
        <ele>343.311479</ele>
        <time>2021-11-18T20:25:10.619Z</time>
      </trkpt>
      <trkpt lat="47.540034" lon="7.871970">
        <ele>343.662667</ele>
        <time>2021-11-18T20:25:15.184Z</time>
      </trkpt>
      <trkpt lat="47.539930" lon="7.872041">
        <ele>343.864816</ele>
        <time>2021-11-18T20:25:17.765Z</time>
      </trkpt>
      <trkpt lat="47.539841" lon="7.872151">
        <ele>344.069432</ele>
        <time>2021-11-18T20:25:20.774Z</time>
      </trkpt>
      <trkpt lat="47.539678" lon="7.872430">
        <ele>344.509139</ele>
        <time>2021-11-18T20:25:26.317Z</time>
      </trkpt>
      <trkpt lat="47.539222" lon="7.873416">
        <ele>345.933454</ele>
        <time>2021-11-18T20:25:43.858Z</time>
      </trkpt>
      <trkpt lat="47.538278" lon="7.874319">
        <ele>347.114247</ele>
        <time>2021-11-18T20:26:03.512Z</time>
      </trkpt>
      <trkpt lat="47.537716" lon="7.874966">
        <ele>347.830934</ele>
        <time>2021-11-18T20:26:17.487Z</time>
      </trkpt>
      <trkpt lat="47.537261" lon="7.875237">
        <ele>348.842489</ele>
        <time>2021-11-18T20:26:27.004Z</time>
      </trkpt>
      <trkpt lat="47.537182" lon="7.875293">
        <ele>349.028777</ele>
        <time>2021-11-18T20:26:28.992Z</time>
      </trkpt>
      <trkpt lat="47.536921" lon="7.875537">
        <ele>349.685259</ele>
        <time>2021-11-18T20:26:34.959Z</time>
      </trkpt>
      <trkpt lat="47.536757" lon="7.875759">
        <ele>350.157820</ele>
        <time>2021-11-18T20:26:39.561Z</time>
      </trkpt>
      <trkpt lat="47.536632" lon="7.875912">
        <ele>350.502732</ele>
        <time>2021-11-18T20:26:42.729Z</time>
      </trkpt>
      <trkpt lat="47.536444" lon="7.876177">
        <ele>351.054747</ele>
        <time>2021-11-18T20:26:49.691Z</time>
      </trkpt>
      <trkpt lat="47.535851" lon="7.877319">
        <ele>355.052044</ele>
        <time>2021-11-18T20:27:21.005Z</time>
      </trkpt>
      <trkpt lat="47.535770" lon="7.877432">
        <ele>355.605989</ele>
        <time>2021-11-18T20:27:25.185Z</time>
      </trkpt>
      <trkpt lat="47.535635" lon="7.877484">
        <ele>356.300421</ele>
        <time>2021-11-18T20:27:31.052Z</time>
      </trkpt>
      <trkpt lat="47.535551" lon="7.877487">
        <ele>356.718724</ele>
        <time>2021-11-18T20:27:32.960Z</time>
      </trkpt>
      <trkpt lat="47.535322" lon="7.877590">
        <ele>357.910173</ele>
        <time>2021-11-18T20:27:43.012Z</time>
      </trkpt>
      <trkpt lat="47.535088" lon="7.877742">
        <ele>359.182210</ele>
        <time>2021-11-18T20:27:50.844Z</time>
      </trkpt>
      <trkpt lat="47.534855" lon="7.878090">
        <ele>360.825390</ele>
        <time>2021-11-18T20:28:02.827Z</time>
      </trkpt>
      <trkpt lat="47.534778" lon="7.878270">
        <ele>361.526076</ele>
        <time>2021-11-18T20:28:10.134Z</time>
      </trkpt>
      <trkpt lat="47.534825" lon="7.878414">
        <ele>362.052009</ele>
        <time>2021-11-18T20:28:12.760Z</time>
      </trkpt>
      <trkpt lat="47.534946" lon="7.878790">
        <ele>363.421645</ele>
        <time>2021-11-18T20:28:24.808Z</time>
      </trkpt>
      <trkpt lat="47.534908" lon="7.878975">
        <ele>364.057494</ele>
        <time>2021-11-18T20:28:28.866Z</time>
      </trkpt>
      <trkpt lat="47.534616" lon="7.879490">
        <ele>366.268886</ele>
        <time>2021-11-18T20:28:45.813Z</time>
      </trkpt>
      <trkpt lat="47.533892" lon="7.880353">
        <ele>369.993615</ele>
        <time>2021-11-18T20:29:13.552Z</time>
      </trkpt>
      <trkpt lat="47.533606" lon="7.880961">
        <ele>371.030893</ele>
        <time>2021-11-18T20:29:25.861Z</time>
      </trkpt>
      <trkpt lat="47.533374" lon="7.881639">
        <ele>372.094897</ele>
        <time>2021-11-18T20:29:36.907Z</time>
      </trkpt>
      <trkpt lat="47.533014" lon="7.882949">
        <ele>373.007546</ele>
        <time>2021-11-18T20:29:54.822Z</time>
      </trkpt>
      <trkpt lat="47.532859" lon="7.883508">
        <ele>372.899267</ele>
        <time>2021-11-18T20:30:00.699Z</time>
      </trkpt>
      <trkpt lat="47.532713" lon="7.884122">
        <ele>372.782626</ele>
        <time>2021-11-18T20:30:06.397Z</time>
      </trkpt>
      <trkpt lat="47.532699" lon="7.884224">
        <ele>372.763976</ele>
        <time>2021-11-18T20:30:07.351Z</time>
      </trkpt>
      <trkpt lat="47.532670" lon="7.884773">
        <ele>372.665305</ele>
        <time>2021-11-18T20:30:11.845Z</time>
      </trkpt>
      <trkpt lat="47.532658" lon="7.884989">
        <ele>372.501298</ele>
        <time>2021-11-18T20:30:13.456Z</time>
      </trkpt>
      <trkpt lat="47.532650" lon="7.885569">
        <ele>371.873563</ele>
        <time>2021-11-18T20:30:17.959Z</time>
      </trkpt>
      <trkpt lat="47.532505" lon="7.887120">
        <ele>370.179247</ele>
        <time>2021-11-18T20:30:29.910Z</time>
      </trkpt>
      <trkpt lat="47.532288" lon="7.887728">
        <ele>369.451793</ele>
        <time>2021-11-18T20:30:35.087Z</time>
      </trkpt>
      <trkpt lat="47.532011" lon="7.888896">
        <ele>368.179343</ele>
        <time>2021-11-18T20:30:44.317Z</time>
      </trkpt>
      <trkpt lat="47.531843" lon="7.889349">
        <ele>367.648102</ele>
        <time>2021-11-18T20:30:48.353Z</time>
      </trkpt>
      <trkpt lat="47.531560" lon="7.889776">
        <ele>367.033085</ele>
        <time>2021-11-18T20:30:53.293Z</time>
      </trkpt>
      <trkpt lat="47.531265" lon="7.889937">
        <ele>367.074863</ele>
        <time>2021-11-18T20:30:57.261Z</time>
      </trkpt>
      <trkpt lat="47.531076" lon="7.890029">
        <ele>367.103094</ele>
        <time>2021-11-18T20:31:00.103Z</time>
      </trkpt>
      <trkpt lat="47.530606" lon="7.890373">
        <ele>367.177488</ele>
        <time>2021-11-18T20:31:07.952Z</time>
      </trkpt>
      <trkpt lat="47.530322" lon="7.890690">
        <ele>367.227952</ele>
        <time>2021-11-18T20:31:13.945Z</time>
      </trkpt>
      <trkpt lat="47.529972" lon="7.891210">
        <ele>367.378978</ele>
        <time>2021-11-18T20:31:23.107Z</time>
      </trkpt>
      <trkpt lat="47.529714" lon="7.891609">
        <ele>367.771457</ele>
        <time>2021-11-18T20:31:30.441Z</time>
      </trkpt>
      <trkpt lat="47.529695" lon="7.891638">
        <ele>367.800164</ele>
        <time>2021-11-18T20:31:31.427Z</time>
      </trkpt>
      <trkpt lat="47.529235" lon="7.892158">
        <ele>368.409038</ele>
        <time>2021-11-18T20:31:42.361Z</time>
      </trkpt>
      <trkpt lat="47.528331" lon="7.892682">
        <ele>369.558026</ele>
        <time>2021-11-18T20:32:01.063Z</time>
      </trkpt>
      <trkpt lat="47.528003" lon="7.892732">
        <ele>370.080413</ele>
        <time>2021-11-18T20:32:06.769Z</time>
      </trkpt>
      <trkpt lat="47.527498" lon="7.892650">
        <ele>370.885265</ele>
        <time>2021-11-18T20:32:16.242Z</time>
      </trkpt>
      <trkpt lat="47.527011" lon="7.893061">
        <ele>371.773290</ele>
        <time>2021-11-18T20:32:29.434Z</time>
      </trkpt>
      <trkpt lat="47.526709" lon="7.893617">
        <ele>372.919292</ele>
        <time>2021-11-18T20:32:41.966Z</time>
      </trkpt>
      <trkpt lat="47.526504" lon="7.894030">
        <ele>373.879958</ele>
        <time>2021-11-18T20:32:52.147Z</time>
      </trkpt>
      <trkpt lat="47.526451" lon="7.893983">
        <ele>374.051419</ele>
        <time>2021-11-18T20:32:53.537Z</time>
      </trkpt>
      <trkpt lat="47.526401" lon="7.893964">
        <ele>374.194692</ele>
        <time>2021-11-18T20:32:54.354Z</time>
      </trkpt>
      <trkpt lat="47.526335" lon="7.893960">
        <ele>374.378031</ele>
        <time>2021-11-18T20:32:56.428Z</time>
      </trkpt>
      <trkpt lat="47.526257" lon="7.894278">
        <ele>375.012126</ele>
        <time>2021-11-18T20:33:02.640Z</time>
      </trkpt>
      <trkpt lat="47.525725" lon="7.895110">
        <ele>377.092625</ele>
        <time>2021-11-18T20:33:21.661Z</time>
      </trkpt>
      <trkpt lat="47.525603" lon="7.895265">
        <ele>377.324728</ele>
        <time>2021-11-18T20:33:27.251Z</time>
      </trkpt>
      <trkpt lat="47.525631" lon="7.895442">
        <ele>377.501979</ele>
        <time>2021-11-18T20:33:30.087Z</time>
      </trkpt>
      <trkpt lat="47.525631" lon="7.895583">
        <ele>377.639457</ele>
        <time>2021-11-18T20:33:31.280Z</time>
      </trkpt>
      <trkpt lat="47.525622" lon="7.895944">
        <ele>377.991679</ele>
        <time>2021-11-18T20:33:38.714Z</time>
      </trkpt>
      <trkpt lat="47.525590" lon="7.896117">
        <ele>378.166572</ele>
        <time>2021-11-18T20:33:40.267Z</time>
      </trkpt>
      <trkpt lat="47.525518" lon="7.896336">
        <ele>378.404066</ele>
        <time>2021-11-18T20:33:45.076Z</time>
      </trkpt>
      <trkpt lat="47.525055" lon="7.897217">
        <ele>379.492559</ele>
        <time>2021-11-18T20:33:58.018Z</time>
      </trkpt>
      <trkpt lat="47.524834" lon="7.897636">
        <ele>379.598518</ele>
        <time>2021-11-18T20:34:02.447Z</time>
      </trkpt>
      <trkpt lat="47.524617" lon="7.898216">
        <ele>379.568107</ele>
        <time>2021-11-18T20:34:08.620Z</time>
      </trkpt>
      <trkpt lat="47.524360" lon="7.898951">
        <ele>379.530147</ele>
        <time>2021-11-18T20:34:16.181Z</time>
      </trkpt>
      <trkpt lat="47.524309" lon="7.899115">
        <ele>379.521866</ele>
        <time>2021-11-18T20:34:18.110Z</time>
      </trkpt>
      <trkpt lat="47.523896" lon="7.900001">
        <ele>380.124473</ele>
        <time>2021-11-18T20:34:30.088Z</time>
      </trkpt>
      <trkpt lat="47.523861" lon="7.900049">
        <ele>380.215550</ele>
        <time>2021-11-18T20:34:31.068Z</time>
      </trkpt>
      <trkpt lat="47.523890" lon="7.900131">
        <ele>380.334892</ele>
        <time>2021-11-18T20:34:32.022Z</time>
      </trkpt>
      <trkpt lat="47.523945" lon="7.900256">
        <ele>380.527242</ele>
        <time>2021-11-18T20:34:33.613Z</time>
      </trkpt>
      <trkpt lat="47.523989" lon="7.900340">
        <ele>380.664303</ele>
        <time>2021-11-18T20:34:34.663Z</time>
      </trkpt>
      <trkpt lat="47.523957" lon="7.900371">
        <ele>380.737310</ele>
        <time>2021-11-18T20:34:35.368Z</time>
      </trkpt>
      <trkpt lat="47.523878" lon="7.900445">
        <ele>380.915781</ele>
        <time>2021-11-18T20:34:37.485Z</time>
      </trkpt>
      <trkpt lat="47.523739" lon="7.900557">
        <ele>381.217906</ele>
        <time>2021-11-18T20:34:40.416Z</time>
      </trkpt>
      <trkpt lat="47.523648" lon="7.900606">
        <ele>381.402775</ele>
        <time>2021-11-18T20:34:42.595Z</time>
      </trkpt>
      <trkpt lat="47.523620" lon="7.900698">
        <ele>381.532879</ele>
        <time>2021-11-18T20:34:44.559Z</time>
      </trkpt>
      <trkpt lat="47.523567" lon="7.900820">
        <ele>381.719908</ele>
        <time>2021-11-18T20:34:46.656Z</time>
      </trkpt>
      <trkpt lat="47.523433" lon="7.901043">
        <ele>382.104765</ele>
        <time>2021-11-18T20:34:51.900Z</time>
      </trkpt>
      <trkpt lat="47.523340" lon="7.901197">
        <ele>382.371127</ele>
        <time>2021-11-18T20:34:55.942Z</time>
      </trkpt>
      <trkpt lat="47.523036" lon="7.901580">
        <ele>383.370532</ele>
        <time>2021-11-18T20:35:07.638Z</time>
      </trkpt>
      <trkpt lat="47.522688" lon="7.901843">
        <ele>384.983314</ele>
        <time>2021-11-18T20:35:19.956Z</time>
      </trkpt>
      <trkpt lat="47.522554" lon="7.901999">
        <ele>385.686928</ele>
        <time>2021-11-18T20:35:26.277Z</time>
      </trkpt>
      <trkpt lat="47.522260" lon="7.902356">
        <ele>387.256392</ele>
        <time>2021-11-18T20:35:38.650Z</time>
      </trkpt>
      <trkpt lat="47.522132" lon="7.902476">
        <ele>387.881754</ele>
        <time>2021-11-18T20:35:43.208Z</time>
      </trkpt>
      <trkpt lat="47.522065" lon="7.902526">
        <ele>388.191461</ele>
        <time>2021-11-18T20:35:45.403Z</time>
      </trkpt>
      <trkpt lat="47.522038" lon="7.902562">
        <ele>388.341438</ele>
        <time>2021-11-18T20:35:46.890Z</time>
      </trkpt>
      <trkpt lat="47.522013" lon="7.902637">
        <ele>388.574591</ele>
        <time>2021-11-18T20:35:48.998Z</time>
      </trkpt>
      <trkpt lat="47.521792" lon="7.903347">
        <ele>390.625633</ele>
        <time>2021-11-18T20:36:04.971Z</time>
      </trkpt>
      <trkpt lat="47.521297" lon="7.904312">
        <ele>392.921186</ele>
        <time>2021-11-18T20:36:28.947Z</time>
      </trkpt>
      <trkpt lat="47.521057" lon="7.904948">
        <ele>394.301306</ele>
        <time>2021-11-18T20:36:41.393Z</time>
      </trkpt>
      <trkpt lat="47.520989" lon="7.905130">
        <ele>394.695321</ele>
        <time>2021-11-18T20:36:44.401Z</time>
      </trkpt>
      <trkpt lat="47.520678" lon="7.906050">
        <ele>395.607310</ele>
        <time>2021-11-18T20:36:57.843Z</time>
      </trkpt>
      <trkpt lat="47.520566" lon="7.906668">
        <ele>395.810150</ele>
        <time>2021-11-18T20:37:04.869Z</time>
      </trkpt>
      <trkpt lat="47.520528" lon="7.906930">
        <ele>395.895099</ele>
        <time>2021-11-18T20:37:08.066Z</time>
      </trkpt>
      <trkpt lat="47.520515" lon="7.907103">
        <ele>395.950279</ele>
        <time>2021-11-18T20:37:10.051Z</time>
      </trkpt>
      <trkpt lat="47.520506" lon="7.907236">
        <ele>395.992652</ele>
        <time>2021-11-18T20:37:11.136Z</time>
      </trkpt>
      <trkpt lat="47.520551" lon="7.907422">
        <ele>396.055284</ele>
        <time>2021-11-18T20:37:13.546Z</time>
      </trkpt>
      <trkpt lat="47.520733" lon="7.907655">
        <ele>396.168219</ele>
        <time>2021-11-18T20:37:16.732Z</time>
      </trkpt>
      <trkpt lat="47.520738" lon="7.907839">
        <ele>396.226595</ele>
        <time>2021-11-18T20:37:18.875Z</time>
      </trkpt>
      <trkpt lat="47.520493" lon="7.908683">
        <ele>396.398506</ele>
        <time>2021-11-18T20:37:27.055Z</time>
      </trkpt>
      <trkpt lat="47.519997" lon="7.910833">
        <ele>397.050017</ele>
        <time>2021-11-18T20:37:53.001Z</time>
      </trkpt>
      <trkpt lat="47.519891" lon="7.911129">
        <ele>397.282377</ele>
        <time>2021-11-18T20:37:57.591Z</time>
      </trkpt>
      <trkpt lat="47.519720" lon="7.911522">
        <ele>397.606606</ele>
        <time>2021-11-18T20:38:03.675Z</time>
      </trkpt>
      <trkpt lat="47.519421" lon="7.912098">
        <ele>398.110454</ele>
        <time>2021-11-18T20:38:13.242Z</time>
      </trkpt>
      <trkpt lat="47.517688" lon="7.914418">
        <ele>400.578121</ele>
        <time>2021-11-18T20:38:57.820Z</time>
      </trkpt>
      <trkpt lat="47.517281" lon="7.915238">
        <ele>401.229440</ele>
        <time>2021-11-18T20:39:10.928Z</time>
      </trkpt>
      <trkpt lat="47.517140" lon="7.915259">
        <ele>401.363739</ele>
        <time>2021-11-18T20:39:13.458Z</time>
      </trkpt>
      <trkpt lat="47.516806" lon="7.914896">
        <ele>401.756383</ele>
        <time>2021-11-18T20:39:21.082Z</time>
      </trkpt>
      <trkpt lat="47.516748" lon="7.914873">
        <ele>401.813286</ele>
        <time>2021-11-18T20:39:22.255Z</time>
      </trkpt>
      <trkpt lat="47.516662" lon="7.914835">
        <ele>401.898339</ele>
        <time>2021-11-18T20:39:24.053Z</time>
      </trkpt>
      <trkpt lat="47.516626" lon="7.914830">
        <ele>401.932606</ele>
        <time>2021-11-18T20:39:24.756Z</time>
      </trkpt>
      <trkpt lat="47.516590" lon="7.914840">
        <ele>401.967318</ele>
        <time>2021-11-18T20:39:25.364Z</time>
      </trkpt>
      <trkpt lat="47.516569" lon="7.914864">
        <ele>401.992458</ele>
        <time>2021-11-18T20:39:25.898Z</time>
      </trkpt>
      <trkpt lat="47.516544" lon="7.914936">
        <ele>402.044275</ele>
        <time>2021-11-18T20:39:26.744Z</time>
      </trkpt>
      <trkpt lat="47.516391" lon="7.915243">
        <ele>402.285637</ele>
        <time>2021-11-18T20:39:31.546Z</time>
      </trkpt>
      <trkpt lat="47.516106" lon="7.915613">
        <ele>402.633914</ele>
        <time>2021-11-18T20:39:38.366Z</time>
      </trkpt>
      <trkpt lat="47.515903" lon="7.915876">
        <ele>402.881764</ele>
        <time>2021-11-18T20:39:43.187Z</time>
      </trkpt>
      <trkpt lat="47.515014" lon="7.917030">
        <ele>404.032831</ele>
        <time>2021-11-18T20:40:05.321Z</time>
      </trkpt>
      <trkpt lat="47.514635" lon="7.917349">
        <ele>404.649088</ele>
        <time>2021-11-18T20:40:13.322Z</time>
      </trkpt>
      <trkpt lat="47.514561" lon="7.917409">
        <ele>404.768350</ele>
        <time>2021-11-18T20:40:15.202Z</time>
      </trkpt>
      <trkpt lat="47.514255" lon="7.917714">
        <ele>405.289784</ele>
        <time>2021-11-18T20:40:22.627Z</time>
      </trkpt>
      <trkpt lat="47.513378" lon="7.918393">
        <ele>406.941013</ele>
        <time>2021-11-18T20:40:44.319Z</time>
      </trkpt>
      <trkpt lat="47.513160" lon="7.918764">
        <ele>407.807440</ele>
        <time>2021-11-18T20:40:51.821Z</time>
      </trkpt>
      <trkpt lat="47.513058" lon="7.918896">
        <ele>408.160840</ele>
        <time>2021-11-18T20:40:54.976Z</time>
      </trkpt>
      <trkpt lat="47.512938" lon="7.919052">
        <ele>408.577424</ele>
        <time>2021-11-18T20:40:58.756Z</time>
      </trkpt>
      <trkpt lat="47.512664" lon="7.919306">
        <ele>409.420741</ele>
        <time>2021-11-18T20:41:06.979Z</time>
      </trkpt>
      <trkpt lat="47.512255" lon="7.919538">
        <ele>410.563306</ele>
        <time>2021-11-18T20:41:18.904Z</time>
      </trkpt>
      <trkpt lat="47.512085" lon="7.919732">
        <ele>411.135565</ele>
        <time>2021-11-18T20:41:25.113Z</time>
      </trkpt>
      <trkpt lat="47.511964" lon="7.919989">
        <ele>411.854398</ele>
        <time>2021-11-18T20:41:31.593Z</time>
      </trkpt>
      <trkpt lat="47.511883" lon="7.920133">
        <ele>412.284393</ele>
        <time>2021-11-18T20:41:35.606Z</time>
      </trkpt>
      <trkpt lat="47.511632" lon="7.920105">
        <ele>413.139502</ele>
        <time>2021-11-18T20:41:44.587Z</time>
      </trkpt>
      <trkpt lat="47.511375" lon="7.920079">
        <ele>414.014612</ele>
        <time>2021-11-18T20:41:53.084Z</time>
      </trkpt>
      <trkpt lat="47.510704" lon="7.919944">
        <ele>416.315069</ele>
        <time>2021-11-18T20:42:15.591Z</time>
      </trkpt>
      <trkpt lat="47.510627" lon="7.919935">
        <ele>416.577466</ele>
        <time>2021-11-18T20:42:17.928Z</time>
      </trkpt>
      <trkpt lat="47.510551" lon="7.919925">
        <ele>416.836669</ele>
        <time>2021-11-18T20:42:21.037Z</time>
      </trkpt>
      <trkpt lat="47.509902" lon="7.920009">
        <ele>419.321362</ele>
        <time>2021-11-18T20:42:41.635Z</time>
      </trkpt>
      <trkpt lat="47.509811" lon="7.920040">
        <ele>419.684962</ele>
        <time>2021-11-18T20:42:45.619Z</time>
      </trkpt>
      <trkpt lat="47.509809" lon="7.920155">
        <ele>419.987530</ele>
        <time>2021-11-18T20:42:47.213Z</time>
      </trkpt>
      <trkpt lat="47.509746" lon="7.920320">
        <ele>420.486041</ele>
        <time>2021-11-18T20:42:50.453Z</time>
      </trkpt>
      <trkpt lat="47.509586" lon="7.920497">
        <ele>421.263778</ele>
        <time>2021-11-18T20:42:58.831Z</time>
      </trkpt>
      <trkpt lat="47.509370" lon="7.920707">
        <ele>422.269996</ele>
        <time>2021-11-18T20:43:07.138Z</time>
      </trkpt>
      <trkpt lat="47.509138" lon="7.920939">
        <ele>423.360147</ele>
        <time>2021-11-18T20:43:16.100Z</time>
      </trkpt>
      <trkpt lat="47.508613" lon="7.921495">
        <ele>426.126439</ele>
        <time>2021-11-18T20:43:35.680Z</time>
      </trkpt>
      <trkpt lat="47.508585" lon="7.921587">
        <ele>426.431850</ele>
        <time>2021-11-18T20:43:36.612Z</time>
      </trkpt>
      <trkpt lat="47.508464" lon="7.921688">
        <ele>427.054259</ele>
        <time>2021-11-18T20:43:42.919Z</time>
      </trkpt>
      <trkpt lat="47.508248" lon="7.921916">
        <ele>428.242922</ele>
        <time>2021-11-18T20:43:50.505Z</time>
      </trkpt>
      <trkpt lat="47.508175" lon="7.922172">
        <ele>429.083960</ele>
        <time>2021-11-18T20:43:57.065Z</time>
      </trkpt>
      <trkpt lat="47.508171" lon="7.922196">
        <ele>429.158779</ele>
        <time>2021-11-18T20:43:58.903Z</time>
      </trkpt>
      <trkpt lat="47.508141" lon="7.922350">
        <ele>429.643882</ele>
        <time>2021-11-18T20:44:01.476Z</time>
      </trkpt>
      <trkpt lat="47.508128" lon="7.922441">
        <ele>429.925401</ele>
        <time>2021-11-18T20:44:04.272Z</time>
      </trkpt>
      <trkpt lat="47.508064" lon="7.922687">
        <ele>430.723277</ele>
        <time>2021-11-18T20:44:10.781Z</time>
      </trkpt>
      <trkpt lat="47.507981" lon="7.923001">
        <ele>431.743829</ele>
        <time>2021-11-18T20:44:19.095Z</time>
      </trkpt>
      <trkpt lat="47.507956" lon="7.923075">
        <ele>431.994253</ele>
        <time>2021-11-18T20:44:21.086Z</time>
      </trkpt>
      <trkpt lat="47.507876" lon="7.923234">
        <ele>432.340872</ele>
        <time>2021-11-18T20:44:25.411Z</time>
      </trkpt>
      <trkpt lat="47.507823" lon="7.923307">
        <ele>432.422539</ele>
        <time>2021-11-18T20:44:27.144Z</time>
      </trkpt>
      <trkpt lat="47.507715" lon="7.923412">
        <ele>432.568303</ele>
        <time>2021-11-18T20:44:31.860Z</time>
      </trkpt>
      <trkpt lat="47.507337" lon="7.923777">
        <ele>433.077431</ele>
        <time>2021-11-18T20:44:40.234Z</time>
      </trkpt>
      <trkpt lat="47.507226" lon="7.923898">
        <ele>433.232940</ele>
        <time>2021-11-18T20:44:43.826Z</time>
      </trkpt>
      <trkpt lat="47.507191" lon="7.924066">
        <ele>433.366915</ele>
        <time>2021-11-18T20:44:45.375Z</time>
      </trkpt>
      <trkpt lat="47.506562" lon="7.924949">
        <ele>434.201971</ele>
        <time>2021-11-18T20:44:58.274Z</time>
      </trkpt>
      <trkpt lat="47.506019" lon="7.926055">
        <ele>432.768608</ele>
        <time>2021-11-18T20:45:07.957Z</time>
      </trkpt>
      <trkpt lat="47.505768" lon="7.926636">
        <ele>432.045603</ele>
        <time>2021-11-18T20:45:13.028Z</time>
      </trkpt>
      <trkpt lat="47.505699" lon="7.926906">
        <ele>431.742967</ele>
        <time>2021-11-18T20:45:15.693Z</time>
      </trkpt>
      <trkpt lat="47.505690" lon="7.927200">
        <ele>431.523529</ele>
        <time>2021-11-18T20:45:17.895Z</time>
      </trkpt>
      <trkpt lat="47.505748" lon="7.927310">
        <ele>431.598616</ele>
        <time>2021-11-18T20:45:19.581Z</time>
      </trkpt>
      <trkpt lat="47.505858" lon="7.927551">
        <ele>431.755122</ele>
        <time>2021-11-18T20:45:22.738Z</time>
      </trkpt>
      <trkpt lat="47.505881" lon="7.927601">
        <ele>431.787672</ele>
        <time>2021-11-18T20:45:23.897Z</time>
      </trkpt>
      <trkpt lat="47.505868" lon="7.927611">
        <ele>431.799342</ele>
        <time>2021-11-18T20:45:24.168Z</time>
      </trkpt>
      <trkpt lat="47.505814" lon="7.927657">
        <ele>431.848970</ele>
        <time>2021-11-18T20:45:25.407Z</time>
      </trkpt>
      <trkpt lat="47.505457" lon="7.927984">
        <ele>432.183376</ele>
        <time>2021-11-18T20:45:32.983Z</time>
      </trkpt>
      <trkpt lat="47.505253" lon="7.928170">
        <ele>432.374224</ele>
        <time>2021-11-18T20:45:37.826Z</time>
      </trkpt>
      <trkpt lat="47.504799" lon="7.928777">
        <ele>432.861529</ele>
        <time>2021-11-18T20:45:48.099Z</time>
      </trkpt>
      <trkpt lat="47.504724" lon="7.928871">
        <ele>432.947136</ele>
        <time>2021-11-18T20:45:52.132Z</time>
      </trkpt>
      <trkpt lat="47.504650" lon="7.928941">
        <ele>433.054318</ele>
        <time>2021-11-18T20:45:54.058Z</time>
      </trkpt>
      <trkpt lat="47.504005" lon="7.929312">
        <ele>433.898879</ele>
        <time>2021-11-18T20:46:09.607Z</time>
      </trkpt>
      <trkpt lat="47.503815" lon="7.929426">
        <ele>434.149099</ele>
        <time>2021-11-18T20:46:12.476Z</time>
      </trkpt>
      <trkpt lat="47.503598" lon="7.929585">
        <ele>434.444616</ele>
        <time>2021-11-18T20:46:17.884Z</time>
      </trkpt>
      <trkpt lat="47.503528" lon="7.929650">
        <ele>434.545469</ele>
        <time>2021-11-18T20:46:18.944Z</time>
      </trkpt>
      <trkpt lat="47.503485" lon="7.929688">
        <ele>434.606591</ele>
        <time>2021-11-18T20:46:20.490Z</time>
      </trkpt>
      <trkpt lat="47.503014" lon="7.930220">
        <ele>435.266165</ele>
        <time>2021-11-18T20:46:30.571Z</time>
      </trkpt>
      <trkpt lat="47.502891" lon="7.930409">
        <ele>435.416597</ele>
        <time>2021-11-18T20:46:33.650Z</time>
      </trkpt>
      <trkpt lat="47.502761" lon="7.930610">
        <ele>435.576105</ele>
        <time>2021-11-18T20:46:36.924Z</time>
      </trkpt>
      <trkpt lat="47.502613" lon="7.930856">
        <ele>435.764930</ele>
        <time>2021-11-18T20:46:40.726Z</time>
      </trkpt>
      <trkpt lat="47.502400" lon="7.931256">
        <ele>436.056887</ele>
        <time>2021-11-18T20:46:47.530Z</time>
      </trkpt>
      <trkpt lat="47.502023" lon="7.932158">
        <ele>436.658132</ele>
        <time>2021-11-18T20:47:00.548Z</time>
      </trkpt>
      <trkpt lat="47.501901" lon="7.932351">
        <ele>436.750887</ele>
        <time>2021-11-18T20:47:04.395Z</time>
      </trkpt>
      <trkpt lat="47.501794" lon="7.932466">
        <ele>436.819574</ele>
        <time>2021-11-18T20:47:06.215Z</time>
      </trkpt>
      <trkpt lat="47.501463" lon="7.932668">
        <ele>437.005554</ele>
        <time>2021-11-18T20:47:12.355Z</time>
      </trkpt>
      <trkpt lat="47.501075" lon="7.932885">
        <ele>437.221009</ele>
        <time>2021-11-18T20:47:19.888Z</time>
      </trkpt>
      <trkpt lat="47.500990" lon="7.932950">
        <ele>437.270707</ele>
        <time>2021-11-18T20:47:21.851Z</time>
      </trkpt>
      <trkpt lat="47.500843" lon="7.933102">
        <ele>437.363853</ele>
        <time>2021-11-18T20:47:24.594Z</time>
      </trkpt>
      <trkpt lat="47.500435" lon="7.933872">
        <ele>437.775863</ele>
        <time>2021-11-18T20:47:34.467Z</time>
      </trkpt>
      <trkpt lat="47.500386" lon="7.933937">
        <ele>437.828723</ele>
        <time>2021-11-18T20:47:35.303Z</time>
      </trkpt>
      <trkpt lat="47.500352" lon="7.933976">
        <ele>437.863280</ele>
        <time>2021-11-18T20:47:36.061Z</time>
      </trkpt>
      <trkpt lat="47.500275" lon="7.934029">
        <ele>437.931501</ele>
        <time>2021-11-18T20:47:37.214Z</time>
      </trkpt>
      <trkpt lat="47.500208" lon="7.934071">
        <ele>437.989955</ele>
        <time>2021-11-18T20:47:38.495Z</time>
      </trkpt>
      <trkpt lat="47.500193" lon="7.934023">
        <ele>438.018659</ele>
        <time>2021-11-18T20:47:38.957Z</time>
      </trkpt>
      <trkpt lat="47.500169" lon="7.933984">
        <ele>438.047291</ele>
        <time>2021-11-18T20:47:39.380Z</time>
      </trkpt>
      <trkpt lat="47.500138" lon="7.933956">
        <ele>438.076466</ele>
        <time>2021-11-18T20:47:39.898Z</time>
      </trkpt>
      <trkpt lat="47.500067" lon="7.933946">
        <ele>438.133763</ele>
        <time>2021-11-18T20:47:40.825Z</time>
      </trkpt>
      <trkpt lat="47.500034" lon="7.933965">
        <ele>438.162209</ele>
        <time>2021-11-18T20:47:41.640Z</time>
      </trkpt>
      <trkpt lat="47.499993" lon="7.933864">
        <ele>438.226162</ele>
        <time>2021-11-18T20:47:43.268Z</time>
      </trkpt>
      <trkpt lat="47.499822" lon="7.933272">
        <ele>438.575607</ele>
        <time>2021-11-18T20:47:51.145Z</time>
      </trkpt>
      <trkpt lat="47.499538" lon="7.932868">
        <ele>438.892050</ele>
        <time>2021-11-18T20:47:59.102Z</time>
      </trkpt>
      <trkpt lat="47.499421" lon="7.932805">
        <ele>438.992071</ele>
        <time>2021-11-18T20:48:02.153Z</time>
      </trkpt>
      <trkpt lat="47.499354" lon="7.932769">
        <ele>439.076774</ele>
        <time>2021-11-18T20:48:03.881Z</time>
      </trkpt>
      <trkpt lat="47.499088" lon="7.932741">
        <ele>439.551378</ele>
        <time>2021-11-18T20:48:09.758Z</time>
      </trkpt>
      <trkpt lat="47.498997" lon="7.932758">
        <ele>439.714618</ele>
        <time>2021-11-18T20:48:11.796Z</time>
      </trkpt>
      <trkpt lat="47.498925" lon="7.932781">
        <ele>439.845709</ele>
        <time>2021-11-18T20:48:13.503Z</time>
      </trkpt>
      <trkpt lat="47.498481" lon="7.933011">
        <ele>440.682906</ele>
        <time>2021-11-18T20:48:22.756Z</time>
      </trkpt>
      <trkpt lat="47.498431" lon="7.932995">
        <ele>440.773948</ele>
        <time>2021-11-18T20:48:23.979Z</time>
      </trkpt>
      <trkpt lat="47.498391" lon="7.932972">
        <ele>440.850321</ele>
        <time>2021-11-18T20:48:24.898Z</time>
      </trkpt>
      <trkpt lat="47.498196" lon="7.932613">
        <ele>441.404195</ele>
        <time>2021-11-18T20:48:31.621Z</time>
      </trkpt>
      <trkpt lat="47.498138" lon="7.932522">
        <ele>441.554620</ele>
        <time>2021-11-18T20:48:33.622Z</time>
      </trkpt>
      <trkpt lat="47.498068" lon="7.932426">
        <ele>441.724458</ele>
        <time>2021-11-18T20:48:36.069Z</time>
      </trkpt>
      <trkpt lat="47.497907" lon="7.932254">
        <ele>442.077836</ele>
        <time>2021-11-18T20:48:40.771Z</time>
      </trkpt>
      <trkpt lat="47.497676" lon="7.932013">
        <ele>442.536199</ele>
        <time>2021-11-18T20:48:47.250Z</time>
      </trkpt>
      <trkpt lat="47.497430" lon="7.931757">
        <ele>443.003737</ele>
        <time>2021-11-18T20:48:54.841Z</time>
      </trkpt>
      <trkpt lat="47.497221" lon="7.931528">
        <ele>443.408026</ele>
        <time>2021-11-18T20:49:00.838Z</time>
      </trkpt>
      <trkpt lat="47.497104" lon="7.931414">
        <ele>443.625808</ele>
        <time>2021-11-18T20:49:03.636Z</time>
      </trkpt>
      <trkpt lat="47.496998" lon="7.931330">
        <ele>443.812745</ele>
        <time>2021-11-18T20:49:06.047Z</time>
      </trkpt>
      <trkpt lat="47.496424" lon="7.931075">
        <ele>444.744499</ele>
        <time>2021-11-18T20:49:16.795Z</time>
      </trkpt>
      <trkpt lat="47.496205" lon="7.930904">
        <ele>445.163336</ele>
        <time>2021-11-18T20:49:20.815Z</time>
      </trkpt>
      <trkpt lat="47.496162" lon="7.930842">
        <ele>445.286726</ele>
        <time>2021-11-18T20:49:22.381Z</time>
      </trkpt>
      <trkpt lat="47.496117" lon="7.930763">
        <ele>445.430223</ele>
        <time>2021-11-18T20:49:23.649Z</time>
      </trkpt>
      <trkpt lat="47.496051" lon="7.930607">
        <ele>445.685834</ele>
        <time>2021-11-18T20:49:26.431Z</time>
      </trkpt>
      <trkpt lat="47.495985" lon="7.930428">
        <ele>445.969024</ele>
        <time>2021-11-18T20:49:29.263Z</time>
      </trkpt>
      <trkpt lat="47.495801" lon="7.929891">
        <ele>446.805193</ele>
        <time>2021-11-18T20:49:38.920Z</time>
      </trkpt>
      <trkpt lat="47.495622" lon="7.929400">
        <ele>447.579993</ele>
        <time>2021-11-18T20:49:47.533Z</time>
      </trkpt>
      <trkpt lat="47.495562" lon="7.929221">
        <ele>447.857489</ele>
        <time>2021-11-18T20:49:50.493Z</time>
      </trkpt>
      <trkpt lat="47.495530" lon="7.929063">
        <ele>448.086557</ele>
        <time>2021-11-18T20:49:52.967Z</time>
      </trkpt>
      <trkpt lat="47.495455" lon="7.928595">
        <ele>448.780853</ele>
        <time>2021-11-18T20:50:01.794Z</time>
      </trkpt>
      <trkpt lat="47.495268" lon="7.927740">
        <ele>451.017050</ele>
        <time>2021-11-18T20:50:18.804Z</time>
      </trkpt>
      <trkpt lat="47.495031" lon="7.927006">
        <ele>453.041322</ele>
        <time>2021-11-18T20:50:35.706Z</time>
      </trkpt>
      <trkpt lat="47.494945" lon="7.926765">
        <ele>453.719510</ele>
        <time>2021-11-18T20:50:42.349Z</time>
      </trkpt>
      <trkpt lat="47.494515" lon="7.925509">
        <ele>457.152500</ele>
        <time>2021-11-18T20:51:10.768Z</time>
      </trkpt>
      <trkpt lat="47.494438" lon="7.925289">
        <ele>457.745821</ele>
        <time>2021-11-18T20:51:16.201Z</time>
      </trkpt>
      <trkpt lat="47.494034" lon="7.924101">
        <ele>460.930744</ele>
        <time>2021-11-18T20:51:41.265Z</time>
      </trkpt>
      <trkpt lat="47.493708" lon="7.923049">
        <ele>463.734688</ele>
        <time>2021-11-18T20:52:02.836Z</time>
      </trkpt>
      <trkpt lat="47.493397" lon="7.921760">
        <ele>467.065934</ele>
        <time>2021-11-18T20:52:29.816Z</time>
      </trkpt>
      <trkpt lat="47.493307" lon="7.921373">
        <ele>468.062068</ele>
        <time>2021-11-18T20:52:38.310Z</time>
      </trkpt>
      <trkpt lat="47.493236" lon="7.921091">
        <ele>468.965552</ele>
        <time>2021-11-18T20:52:44.691Z</time>
      </trkpt>
      <trkpt lat="47.493132" lon="7.920716">
        <ele>470.235533</ele>
        <time>2021-11-18T20:52:53.741Z</time>
      </trkpt>
      <trkpt lat="47.492813" lon="7.919900">
        <ele>473.189113</ele>
        <time>2021-11-18T20:53:15.224Z</time>
      </trkpt>
      <trkpt lat="47.492584" lon="7.919482">
        <ele>474.875088</ele>
        <time>2021-11-18T20:53:27.996Z</time>
      </trkpt>
      <trkpt lat="47.492227" lon="7.918989">
        <ele>477.085055</ele>
        <time>2021-11-18T20:53:44.898Z</time>
      </trkpt>
      <trkpt lat="47.491324" lon="7.917985">
        <ele>481.850190</ele>
        <time>2021-11-18T20:54:21.683Z</time>
      </trkpt>
      <trkpt lat="47.490822" lon="7.917158">
        <ele>484.703310</ele>
        <time>2021-11-18T20:54:43.843Z</time>
      </trkpt>
      <trkpt lat="47.490607" lon="7.916690">
        <ele>485.744821</ele>
        <time>2021-11-18T20:54:54.041Z</time>
      </trkpt>
      <trkpt lat="47.490429" lon="7.916164">
        <ele>486.827481</ele>
        <time>2021-11-18T20:55:03.910Z</time>
      </trkpt>
      <trkpt lat="47.490283" lon="7.915612">
        <ele>487.918435</ele>
        <time>2021-11-18T20:55:13.738Z</time>
      </trkpt>
      <trkpt lat="47.489987" lon="7.914083">
        <ele>490.683776</ele>
        <time>2021-11-18T20:55:39.519Z</time>
      </trkpt>
      <trkpt lat="47.489951" lon="7.913893">
        <ele>491.014632</ele>
        <time>2021-11-18T20:55:42.513Z</time>
      </trkpt>
      <trkpt lat="47.489922" lon="7.913738">
        <ele>491.284295</ele>
        <time>2021-11-18T20:55:45.018Z</time>
      </trkpt>
      <trkpt lat="47.489843" lon="7.913398">
        <ele>491.887129</ele>
        <time>2021-11-18T20:55:50.365Z</time>
      </trkpt>
      <trkpt lat="47.489607" lon="7.912646">
        <ele>493.277348</ele>
        <time>2021-11-18T20:56:04.593Z</time>
      </trkpt>
      <trkpt lat="47.489216" lon="7.911685">
        <ele>496.145790</ele>
        <time>2021-11-18T20:56:26.907Z</time>
      </trkpt>
      <trkpt lat="47.489040" lon="7.911300">
        <ele>497.386404</ele>
        <time>2021-11-18T20:56:36.374Z</time>
      </trkpt>
      <trkpt lat="47.488908" lon="7.911009">
        <ele>498.321847</ele>
        <time>2021-11-18T20:56:44.935Z</time>
      </trkpt>
      <trkpt lat="47.488699" lon="7.910498">
        <ele>499.916075</ele>
        <time>2021-11-18T20:56:58.598Z</time>
      </trkpt>
      <trkpt lat="47.488366" lon="7.909318">
        <ele>502.970116</ele>
        <time>2021-11-18T20:57:24.470Z</time>
      </trkpt>
      <trkpt lat="47.488241" lon="7.908835">
        <ele>504.169394</ele>
        <time>2021-11-18T20:57:33.657Z</time>
      </trkpt>
      <trkpt lat="47.488185" lon="7.908663">
        <ele>504.612097</ele>
        <time>2021-11-18T20:57:37.709Z</time>
      </trkpt>
      <trkpt lat="47.488080" lon="7.908344">
        <ele>505.434862</ele>
        <time>2021-11-18T20:57:43.670Z</time>
      </trkpt>
      <trkpt lat="47.487763" lon="7.907711">
        <ele>507.299265</ele>
        <time>2021-11-18T20:57:58.727Z</time>
      </trkpt>
      <trkpt lat="47.487587" lon="7.907459">
        <ele>508.203106</ele>
        <time>2021-11-18T20:58:05.187Z</time>
      </trkpt>
      <trkpt lat="47.487378" lon="7.907191">
        <ele>509.223764</ele>
        <time>2021-11-18T20:58:12.386Z</time>
      </trkpt>
      <trkpt lat="47.487197" lon="7.906946">
        <ele>510.129086</ele>
        <time>2021-11-18T20:58:18.527Z</time>
      </trkpt>
      <trkpt lat="47.486969" lon="7.906583">
        <ele>511.365093</ele>
        <time>2021-11-18T20:58:26.835Z</time>
      </trkpt>
      <trkpt lat="47.486769" lon="7.905976">
        <ele>513.049337</ele>
        <time>2021-11-18T20:58:42.865Z</time>
      </trkpt>
      <trkpt lat="47.486724" lon="7.905485">
        <ele>514.850619</ele>
        <time>2021-11-18T20:58:55.536Z</time>
      </trkpt>
      <trkpt lat="47.486755" lon="7.904487">
        <ele>518.941046</ele>
        <time>2021-11-18T20:59:22.403Z</time>
      </trkpt>
      <trkpt lat="47.486721" lon="7.904326">
        <ele>519.631668</ele>
        <time>2021-11-18T20:59:27.417Z</time>
      </trkpt>
      <trkpt lat="47.486688" lon="7.904238">
        <ele>520.043725</ele>
        <time>2021-11-18T20:59:30.573Z</time>
      </trkpt>
      <trkpt lat="47.486480" lon="7.904016">
        <ele>521.597543</ele>
        <time>2021-11-18T20:59:39.676Z</time>
      </trkpt>
      <trkpt lat="47.486247" lon="7.904043">
        <ele>523.013566</ele>
        <time>2021-11-18T20:59:48.344Z</time>
      </trkpt>
      <trkpt lat="47.486049" lon="7.904262">
        <ele>524.436582</ele>
        <time>2021-11-18T20:59:59.740Z</time>
      </trkpt>
      <trkpt lat="47.485593" lon="7.905145">
        <ele>527.367240</ele>
        <time>2021-11-18T21:00:29.507Z</time>
      </trkpt>
      <trkpt lat="47.485331" lon="7.905337">
        <ele>528.508164</ele>
        <time>2021-11-18T21:00:38.091Z</time>
      </trkpt>
      <trkpt lat="47.485073" lon="7.905345">
        <ele>529.515194</ele>
        <time>2021-11-18T21:00:44.703Z</time>
      </trkpt>
      <trkpt lat="47.485049" lon="7.905336">
        <ele>529.611811</ele>
        <time>2021-11-18T21:00:46.300Z</time>
      </trkpt>
      <trkpt lat="47.484936" lon="7.905289">
        <ele>530.069866</ele>
        <time>2021-11-18T21:00:48.929Z</time>
      </trkpt>
      <trkpt lat="47.484713" lon="7.905133">
        <ele>531.032436</ele>
        <time>2021-11-18T21:00:54.549Z</time>
      </trkpt>
      <trkpt lat="47.484481" lon="7.904947">
        <ele>530.744513</ele>
        <time>2021-11-18T21:00:57.925Z</time>
      </trkpt>
      <trkpt lat="47.484248" lon="7.904856">
        <ele>530.014472</ele>
        <time>2021-11-18T21:01:00.954Z</time>
      </trkpt>
      <trkpt lat="47.484124" lon="7.904824">
        <ele>529.633147</ele>
        <time>2021-11-18T21:01:02.431Z</time>
      </trkpt>
      <trkpt lat="47.484064" lon="7.904808">
        <ele>529.448450</ele>
        <time>2021-11-18T21:01:03.100Z</time>
      </trkpt>
      <trkpt lat="47.484005" lon="7.904793">
        <ele>529.267092</ele>
        <time>2021-11-18T21:01:03.832Z</time>
      </trkpt>
      <trkpt lat="47.483385" lon="7.904708">
        <ele>527.380770</ele>
        <time>2021-11-18T21:01:10.286Z</time>
      </trkpt>
      <trkpt lat="47.483329" lon="7.904705">
        <ele>527.211008</ele>
        <time>2021-11-18T21:01:10.793Z</time>
      </trkpt>
      <trkpt lat="47.483101" lon="7.904680">
        <ele>526.518392</ele>
        <time>2021-11-18T21:01:12.922Z</time>
      </trkpt>
      <trkpt lat="47.482433" lon="7.904538">
        <ele>522.681691</ele>
        <time>2021-11-18T21:01:18.893Z</time>
      </trkpt>
      <trkpt lat="47.482157" lon="7.904346">
        <ele>520.572843</ele>
        <time>2021-11-18T21:01:21.607Z</time>
      </trkpt>
      <trkpt lat="47.481709" lon="7.903892">
        <ele>516.818186</ele>
        <time>2021-11-18T21:01:26.446Z</time>
      </trkpt>
      <trkpt lat="47.481588" lon="7.903776">
        <ele>515.821247</ele>
        <time>2021-11-18T21:01:27.732Z</time>
      </trkpt>
      <trkpt lat="47.481478" lon="7.903693">
        <ele>514.967442</ele>
        <time>2021-11-18T21:01:28.864Z</time>
      </trkpt>
      <trkpt lat="47.480980" lon="7.903461">
        <ele>511.831842</ele>
        <time>2021-11-18T21:01:33.695Z</time>
      </trkpt>
      <trkpt lat="47.478367" lon="7.903166">
        <ele>497.488520</ele>
        <time>2021-11-18T21:01:58.327Z</time>
      </trkpt>
      <trkpt lat="47.478182" lon="7.903109">
        <ele>496.419304</ele>
        <time>2021-11-18T21:02:00.071Z</time>
      </trkpt>
      <trkpt lat="47.478118" lon="7.903075">
        <ele>496.034545</ele>
        <time>2021-11-18T21:02:00.669Z</time>
      </trkpt>
      <trkpt lat="47.476982" lon="7.902234">
        <ele>488.298605</ele>
        <time>2021-11-18T21:02:12.162Z</time>
      </trkpt>
      <trkpt lat="47.476536" lon="7.901977">
        <ele>485.281887</ele>
        <time>2021-11-18T21:02:16.530Z</time>
      </trkpt>
      <trkpt lat="47.476364" lon="7.901870">
        <ele>484.105876</ele>
        <time>2021-11-18T21:02:18.225Z</time>
      </trkpt>
      <trkpt lat="47.475300" lon="7.901112">
        <ele>477.329067</ele>
        <time>2021-11-18T21:02:29.134Z</time>
      </trkpt>
      <trkpt lat="47.475163" lon="7.901034">
        <ele>476.512722</ele>
        <time>2021-11-18T21:02:30.460Z</time>
      </trkpt>
      <trkpt lat="47.474888" lon="7.900841">
        <ele>474.820061</ele>
        <time>2021-11-18T21:02:33.313Z</time>
      </trkpt>
      <trkpt lat="47.474617" lon="7.900560">
        <ele>472.979703</ele>
        <time>2021-11-18T21:02:36.442Z</time>
      </trkpt>
      <trkpt lat="47.474336" lon="7.900125">
        <ele>470.943984</ele>
        <time>2021-11-18T21:02:40.283Z</time>
      </trkpt>
      <trkpt lat="47.474186" lon="7.899915">
        <ele>469.957287</ele>
        <time>2021-11-18T21:02:42.218Z</time>
      </trkpt>
      <trkpt lat="47.474087" lon="7.899774">
        <ele>469.300715</ele>
        <time>2021-11-18T21:02:43.530Z</time>
      </trkpt>
      <trkpt lat="47.473931" lon="7.899567">
        <ele>468.299496</ele>
        <time>2021-11-18T21:02:45.490Z</time>
      </trkpt>
      <trkpt lat="47.473317" lon="7.898945">
        <ele>464.744052</ele>
        <time>2021-11-18T21:02:52.730Z</time>
      </trkpt>
      <trkpt lat="47.471910" lon="7.898392">
        <ele>457.213887</ele>
        <time>2021-11-18T21:03:06.323Z</time>
      </trkpt>
      <trkpt lat="47.471825" lon="7.898370">
        <ele>456.761729</ele>
        <time>2021-11-18T21:03:07.111Z</time>
      </trkpt>
      <trkpt lat="47.471597" lon="7.898344">
        <ele>455.563483</ele>
        <time>2021-11-18T21:03:09.264Z</time>
      </trkpt>
      <trkpt lat="47.471002" lon="7.898222">
        <ele>452.716610</ele>
        <time>2021-11-18T21:03:14.858Z</time>
      </trkpt>
      <trkpt lat="47.469999" lon="7.897879">
        <ele>448.181247</ele>
        <time>2021-11-18T21:03:24.610Z</time>
      </trkpt>
      <trkpt lat="47.469806" lon="7.897795">
        <ele>447.294927</ele>
        <time>2021-11-18T21:03:26.639Z</time>
      </trkpt>
      <trkpt lat="47.469534" lon="7.897638">
        <ele>446.232988</ele>
        <time>2021-11-18T21:03:29.724Z</time>
      </trkpt>
      <trkpt lat="47.469598" lon="7.897405">
        <ele>445.936181</ele>
        <time>2021-11-18T21:03:31.515Z</time>
      </trkpt>
      <trkpt lat="47.469652" lon="7.897139">
        <ele>445.608413</ele>
        <time>2021-11-18T21:03:33.540Z</time>
      </trkpt>
      <trkpt lat="47.469678" lon="7.896938">
        <ele>445.366901</ele>
        <time>2021-11-18T21:03:35.002Z</time>
      </trkpt>
      <trkpt lat="47.469692" lon="7.896826">
        <ele>445.232484</ele>
        <time>2021-11-18T21:03:35.898Z</time>
      </trkpt>
      <trkpt lat="47.469738" lon="7.896220">
        <ele>444.512825</ele>
        <time>2021-11-18T21:03:40.498Z</time>
      </trkpt>
      <trkpt lat="47.469747" lon="7.895922">
        <ele>444.160793</ele>
        <time>2021-11-18T21:03:42.737Z</time>
      </trkpt>
      <trkpt lat="47.469734" lon="7.895575">
        <ele>443.750657</ele>
        <time>2021-11-18T21:03:45.776Z</time>
      </trkpt>
      <trkpt lat="47.469728" lon="7.895384">
        <ele>443.525007</ele>
        <time>2021-11-18T21:03:47.372Z</time>
      </trkpt>
      <trkpt lat="47.469714" lon="7.895204">
        <ele>443.311181</ele>
        <time>2021-11-18T21:03:49.044Z</time>
      </trkpt>
      <trkpt lat="47.469691" lon="7.894970">
        <ele>443.158251</ele>
        <time>2021-11-18T21:03:51.180Z</time>
      </trkpt>
      <trkpt lat="47.469658" lon="7.894567">
        <ele>442.969633</ele>
        <time>2021-11-18T21:03:54.847Z</time>
      </trkpt>
      <trkpt lat="47.469496" lon="7.893085">
        <ele>442.272095</ele>
        <time>2021-11-18T21:04:08.062Z</time>
      </trkpt>
      <trkpt lat="47.469288" lon="7.891996">
        <ele>441.609301</ele>
        <time>2021-11-18T21:04:17.573Z</time>
      </trkpt>
      <trkpt lat="47.468951" lon="7.890216">
        <ele>440.293589</ele>
        <time>2021-11-18T21:04:32.576Z</time>
      </trkpt>
      <trkpt lat="47.468718" lon="7.888938">
        <ele>439.676921</ele>
        <time>2021-11-18T21:04:43.455Z</time>
      </trkpt>
      <trkpt lat="47.468546" lon="7.888014">
        <ele>439.287467</ele>
        <time>2021-11-18T21:04:51.781Z</time>
      </trkpt>
      <trkpt lat="47.468250" lon="7.886308">
        <ele>440.125702</ele>
        <time>2021-11-18T21:05:10.060Z</time>
      </trkpt>
      <trkpt lat="47.468174" lon="7.885724">
        <ele>440.705765</ele>
        <time>2021-11-18T21:05:18.932Z</time>
      </trkpt>
      <trkpt lat="47.468160" lon="7.885412">
        <ele>441.010744</ele>
        <time>2021-11-18T21:05:23.975Z</time>
      </trkpt>
      <trkpt lat="47.468160" lon="7.885131">
        <ele>441.284818</ele>
        <time>2021-11-18T21:05:28.651Z</time>
      </trkpt>
      <trkpt lat="47.468167" lon="7.884863">
        <ele>441.546407</ele>
        <time>2021-11-18T21:05:33.087Z</time>
      </trkpt>
      <trkpt lat="47.468170" lon="7.884753">
        <ele>441.685972</ele>
        <time>2021-11-18T21:05:34.760Z</time>
      </trkpt>
      <trkpt lat="47.468175" lon="7.884477">
        <ele>442.245281</ele>
        <time>2021-11-18T21:05:40.474Z</time>
      </trkpt>
      <trkpt lat="47.468085" lon="7.883534">
        <ele>444.174513</ele>
        <time>2021-11-18T21:05:59.975Z</time>
      </trkpt>
      <trkpt lat="47.467832" lon="7.882502">
        <ele>446.398328</ele>
        <time>2021-11-18T21:06:21.560Z</time>
      </trkpt>
      <trkpt lat="47.467789" lon="7.882188">
        <ele>446.979504</ele>
        <time>2021-11-18T21:06:27.198Z</time>
      </trkpt>
      <trkpt lat="47.467755" lon="7.881902">
        <ele>446.376237</ele>
        <time>2021-11-18T21:06:31.321Z</time>
      </trkpt>
      <trkpt lat="47.467712" lon="7.880819">
        <ele>444.122485</ele>
        <time>2021-11-18T21:06:40.073Z</time>
      </trkpt>
      <trkpt lat="47.467695" lon="7.879712">
        <ele>441.822157</ele>
        <time>2021-11-18T21:06:46.941Z</time>
      </trkpt>
      <trkpt lat="47.467758" lon="7.879308">
        <ele>440.166973</ele>
        <time>2021-11-18T21:06:49.425Z</time>
      </trkpt>
      <trkpt lat="47.467814" lon="7.879126">
        <ele>439.124083</ele>
        <time>2021-11-18T21:06:50.591Z</time>
      </trkpt>
      <trkpt lat="47.467908" lon="7.878819">
        <ele>437.366397</ele>
        <time>2021-11-18T21:06:52.622Z</time>
      </trkpt>
      <trkpt lat="47.468067" lon="7.878427">
        <ele>434.982215</ele>
        <time>2021-11-18T21:06:55.398Z</time>
      </trkpt>
      <trkpt lat="47.468104" lon="7.878354">
        <ele>434.506370</ele>
        <time>2021-11-18T21:06:55.909Z</time>
      </trkpt>
      <trkpt lat="47.468268" lon="7.878083">
        <ele>432.609424</ele>
        <time>2021-11-18T21:06:58.112Z</time>
      </trkpt>
      <trkpt lat="47.468308" lon="7.877998">
        <ele>432.069288</ele>
        <time>2021-11-18T21:06:58.753Z</time>
      </trkpt>
      <trkpt lat="47.468327" lon="7.877957">
        <ele>431.810041</ele>
        <time>2021-11-18T21:06:59.031Z</time>
      </trkpt>
      <trkpt lat="47.468377" lon="7.877826">
        <ele>431.025462</ele>
        <time>2021-11-18T21:06:59.909Z</time>
      </trkpt>
      <trkpt lat="47.468379" lon="7.877817">
        <ele>430.976053</ele>
        <time>2021-11-18T21:06:59.963Z</time>
      </trkpt>
      <trkpt lat="47.468557" lon="7.876917">
        <ele>426.863800</ele>
        <time>2021-11-18T21:07:05.578Z</time>
      </trkpt>
      <trkpt lat="47.468639" lon="7.876439">
        <ele>425.604908</ele>
        <time>2021-11-18T21:07:08.773Z</time>
      </trkpt>
      <trkpt lat="47.468698" lon="7.876140">
        <ele>424.809783</ele>
        <time>2021-11-18T21:07:10.866Z</time>
      </trkpt>
      <trkpt lat="47.468806" lon="7.875696">
        <ele>423.605221</ele>
        <time>2021-11-18T21:07:14.143Z</time>
      </trkpt>
      <trkpt lat="47.468925" lon="7.875205">
        <ele>422.273704</ele>
        <time>2021-11-18T21:07:18.104Z</time>
      </trkpt>
      <trkpt lat="47.468989" lon="7.874967">
        <ele>421.619848</ele>
        <time>2021-11-18T21:07:19.903Z</time>
      </trkpt>
      <trkpt lat="47.469050" lon="7.874738">
        <ele>420.991524</ele>
        <time>2021-11-18T21:07:21.789Z</time>
      </trkpt>
      <trkpt lat="47.469068" lon="7.874689">
        <ele>420.849164</ele>
        <time>2021-11-18T21:07:22.223Z</time>
      </trkpt>
      <trkpt lat="47.469097" lon="7.874606">
        <ele>420.713842</ele>
        <time>2021-11-18T21:07:22.858Z</time>
      </trkpt>
      <trkpt lat="47.469136" lon="7.874516">
        <ele>420.576900</ele>
        <time>2021-11-18T21:07:23.612Z</time>
      </trkpt>
      <trkpt lat="47.469173" lon="7.874432">
        <ele>420.448470</ele>
        <time>2021-11-18T21:07:24.365Z</time>
      </trkpt>
      <trkpt lat="47.469224" lon="7.874328">
        <ele>420.283885</ele>
        <time>2021-11-18T21:07:25.407Z</time>
      </trkpt>
      <trkpt lat="47.469422" lon="7.873965">
        <ele>419.686392</ele>
        <time>2021-11-18T21:07:28.855Z</time>
      </trkpt>
      <trkpt lat="47.469489" lon="7.873809">
        <ele>419.449638</ele>
        <time>2021-11-18T21:07:30.297Z</time>
      </trkpt>
      <trkpt lat="47.469626" lon="7.873477">
        <ele>418.951379</ele>
        <time>2021-11-18T21:07:33.173Z</time>
      </trkpt>
      <trkpt lat="47.469682" lon="7.873326">
        <ele>418.730755</ele>
        <time>2021-11-18T21:07:34.513Z</time>
      </trkpt>
      <trkpt lat="47.469710" lon="7.873249">
        <ele>418.618755</ele>
        <time>2021-11-18T21:07:35.094Z</time>
      </trkpt>
      <trkpt lat="47.469969" lon="7.872276">
        <ele>417.304467</ele>
        <time>2021-11-18T21:07:43.079Z</time>
      </trkpt>
      <trkpt lat="47.470156" lon="7.871491">
        <ele>416.445043</ele>
        <time>2021-11-18T21:07:49.375Z</time>
      </trkpt>
      <trkpt lat="47.470217" lon="7.871214">
        <ele>416.144227</ele>
        <time>2021-11-18T21:07:51.547Z</time>
      </trkpt>
      <trkpt lat="47.470245" lon="7.871088">
        <ele>416.007274</ele>
        <time>2021-11-18T21:07:52.539Z</time>
      </trkpt>
      <trkpt lat="47.470316" lon="7.870753">
        <ele>415.644763</ele>
        <time>2021-11-18T21:07:55.423Z</time>
      </trkpt>
      <trkpt lat="47.470333" lon="7.870669">
        <ele>415.554223</ele>
        <time>2021-11-18T21:07:56.037Z</time>
      </trkpt>
      <trkpt lat="47.470350" lon="7.870570">
        <ele>415.448753</ele>
        <time>2021-11-18T21:07:56.829Z</time>
      </trkpt>
      <trkpt lat="47.470379" lon="7.870338">
        <ele>415.205138</ele>
        <time>2021-11-18T21:07:58.821Z</time>
      </trkpt>
      <trkpt lat="47.470397" lon="7.870147">
        <ele>415.006011</ele>
        <time>2021-11-18T21:08:00.914Z</time>
      </trkpt>
      <trkpt lat="47.470391" lon="7.869977">
        <ele>414.830237</ele>
        <time>2021-11-18T21:08:02.855Z</time>
      </trkpt>
      <trkpt lat="47.470378" lon="7.869634">
        <ele>414.575739</ele>
        <time>2021-11-18T21:08:06.869Z</time>
      </trkpt>
      <trkpt lat="47.470378" lon="7.869626">
        <ele>414.571920</ele>
        <time>2021-11-18T21:08:06.943Z</time>
      </trkpt>
      <trkpt lat="47.470309" lon="7.869201">
        <ele>414.363261</ele>
        <time>2021-11-18T21:08:12.313Z</time>
      </trkpt>
      <trkpt lat="47.470234" lon="7.868884">
        <ele>414.202927</ele>
        <time>2021-11-18T21:08:16.311Z</time>
      </trkpt>
      <trkpt lat="47.470127" lon="7.868484">
        <ele>413.997563</ele>
        <time>2021-11-18T21:08:21.723Z</time>
      </trkpt>
      <trkpt lat="47.469915" lon="7.867494">
        <ele>413.501799</ele>
        <time>2021-11-18T21:08:34.895Z</time>
      </trkpt>
      <trkpt lat="47.469808" lon="7.866690">
        <ele>412.892517</ele>
        <time>2021-11-18T21:08:44.619Z</time>
      </trkpt>
      <trkpt lat="47.469764" lon="7.866452">
        <ele>412.683326</ele>
        <time>2021-11-18T21:08:47.630Z</time>
      </trkpt>
      <trkpt lat="47.469710" lon="7.866208">
        <ele>412.465654</ele>
        <time>2021-11-18T21:08:50.597Z</time>
      </trkpt>
      <trkpt lat="47.469629" lon="7.865918">
        <ele>412.199625</ele>
        <time>2021-11-18T21:08:54.352Z</time>
      </trkpt>
      <trkpt lat="47.469305" lon="7.864692">
        <ele>411.061037</ele>
        <time>2021-11-18T21:09:08.750Z</time>
      </trkpt>
      <trkpt lat="47.469011" lon="7.863405">
        <ele>409.411956</ele>
        <time>2021-11-18T21:09:23.461Z</time>
      </trkpt>
      <trkpt lat="47.468986" lon="7.863323">
        <ele>409.302761</ele>
        <time>2021-11-18T21:09:24.318Z</time>
      </trkpt>
      <trkpt lat="47.468943" lon="7.863195">
        <ele>409.129252</ele>
        <time>2021-11-18T21:09:25.865Z</time>
      </trkpt>
      <trkpt lat="47.468859" lon="7.862978">
        <ele>408.825703</ele>
        <time>2021-11-18T21:09:28.629Z</time>
      </trkpt>
      <trkpt lat="47.468825" lon="7.862900">
        <ele>408.713041</ele>
        <time>2021-11-18T21:09:29.605Z</time>
      </trkpt>
      <trkpt lat="47.468543" lon="7.862357">
        <ele>407.895463</ele>
        <time>2021-11-18T21:09:37.015Z</time>
      </trkpt>
      <trkpt lat="47.468224" lon="7.861805">
        <ele>407.513066</ele>
        <time>2021-11-18T21:09:45.177Z</time>
      </trkpt>
      <trkpt lat="47.467944" lon="7.861300">
        <ele>407.169148</ele>
        <time>2021-11-18T21:09:52.551Z</time>
      </trkpt>
      <trkpt lat="47.467266" lon="7.860107">
        <ele>406.593367</ele>
        <time>2021-11-18T21:10:13.591Z</time>
      </trkpt>
      <trkpt lat="47.467047" lon="7.859682">
        <ele>406.752551</ele>
        <time>2021-11-18T21:10:21.057Z</time>
      </trkpt>
      <trkpt lat="47.466922" lon="7.859398">
        <ele>406.853500</ele>
        <time>2021-11-18T21:10:25.702Z</time>
      </trkpt>
      <trkpt lat="47.466861" lon="7.859463">
        <ele>406.886627</ele>
        <time>2021-11-18T21:10:30.886Z</time>
      </trkpt>
      <trkpt lat="47.466684" lon="7.859660">
        <ele>406.984232</ele>
        <time>2021-11-18T21:10:34.604Z</time>
      </trkpt>
      <trkpt lat="47.466499" lon="7.859736">
        <ele>407.068836</ele>
        <time>2021-11-18T21:10:38.328Z</time>
      </trkpt>
      <trkpt lat="47.466367" lon="7.859349">
        <ele>407.197959</ele>
        <time>2021-11-18T21:10:44.883Z</time>
      </trkpt>
      <trkpt lat="47.466192" lon="7.858910">
        <ele>407.416495</ele>
        <time>2021-11-18T21:10:52.768Z</time>
      </trkpt>
      <trkpt lat="47.466155" lon="7.858859">
        <ele>407.467189</ele>
        <time>2021-11-18T21:10:54.048Z</time>
      </trkpt>
      <trkpt lat="47.465862" lon="7.858578">
        <ele>407.817216</ele>
        <time>2021-11-18T21:11:00.121Z</time>
      </trkpt>
      <trkpt lat="47.465229" lon="7.858145">
        <ele>408.516289</ele>
        <time>2021-11-18T21:11:13.462Z</time>
      </trkpt>
      <trkpt lat="47.465155" lon="7.858104">
        <ele>408.595498</ele>
        <time>2021-11-18T21:11:15.223Z</time>
      </trkpt>
      <trkpt lat="47.465111" lon="7.858014">
        <ele>408.670764</ele>
        <time>2021-11-18T21:11:16.256Z</time>
      </trkpt>
      <trkpt lat="47.465021" lon="7.857835">
        <ele>408.821934</ele>
        <time>2021-11-18T21:11:19.176Z</time>
      </trkpt>
      <trkpt lat="47.464877" lon="7.857457">
        <ele>409.110543</ele>
        <time>2021-11-18T21:11:25.075Z</time>
      </trkpt>
      <trkpt lat="47.464779" lon="7.857320">
        <ele>409.198725</ele>
        <time>2021-11-18T21:11:28.468Z</time>
      </trkpt>
      <trkpt lat="47.464641" lon="7.857232">
        <ele>409.297002</ele>
        <time>2021-11-18T21:11:30.545Z</time>
      </trkpt>
      <trkpt lat="47.464510" lon="7.857563">
        <ele>409.466575</ele>
        <time>2021-11-18T21:11:36.332Z</time>
      </trkpt>
      <trkpt lat="47.464354" lon="7.858424">
        <ele>409.860672</ele>
        <time>2021-11-18T21:11:44.924Z</time>
      </trkpt>
      <trkpt lat="47.464375" lon="7.858610">
        <ele>409.944045</ele>
        <time>2021-11-18T21:11:48.428Z</time>
      </trkpt>
      <trkpt lat="47.464294" lon="7.858576">
        <ele>409.999108</ele>
        <time>2021-11-18T21:11:49.275Z</time>
      </trkpt>
      <trkpt lat="47.464083" lon="7.858541">
        <ele>410.137961</ele>
        <time>2021-11-18T21:11:53.939Z</time>
      </trkpt>
      <trkpt lat="47.463904" lon="7.858706">
        <ele>410.275893</ele>
        <time>2021-11-18T21:11:56.927Z</time>
      </trkpt>
      <trkpt lat="47.463612" lon="7.859016">
        <ele>410.215271</ele>
        <time>2021-11-18T21:12:03.494Z</time>
      </trkpt>
      <trkpt lat="47.463411" lon="7.859675">
        <ele>410.131549</ele>
        <time>2021-11-18T21:12:10.580Z</time>
      </trkpt>
      <trkpt lat="47.463351" lon="7.859872">
        <ele>410.106528</ele>
        <time>2021-11-18T21:12:12.445Z</time>
      </trkpt>
      <trkpt lat="47.463241" lon="7.860203">
        <ele>410.063816</ele>
        <time>2021-11-18T21:12:15.324Z</time>
      </trkpt>
      <trkpt lat="47.463190" lon="7.860331">
        <ele>410.046610</ele>
        <time>2021-11-18T21:12:16.719Z</time>
      </trkpt>
      <trkpt lat="47.463125" lon="7.860492">
        <ele>410.024894</ele>
        <time>2021-11-18T21:12:18.227Z</time>
      </trkpt>
      <trkpt lat="47.462844" lon="7.861110">
        <ele>410.083641</ele>
        <time>2021-11-18T21:12:25.146Z</time>
      </trkpt>
      <trkpt lat="47.462785" lon="7.861204">
        <ele>410.140813</ele>
        <time>2021-11-18T21:12:26.772Z</time>
      </trkpt>
      <trkpt lat="47.462605" lon="7.861066">
        <ele>410.274483</ele>
        <time>2021-11-18T21:12:29.773Z</time>
      </trkpt>
      <trkpt lat="47.462470" lon="7.860949">
        <ele>410.377642</ele>
        <time>2021-11-18T21:12:32.785Z</time>
      </trkpt>
      <trkpt lat="47.462314" lon="7.860800">
        <ele>410.500074</ele>
        <time>2021-11-18T21:12:35.878Z</time>
      </trkpt>
      <trkpt lat="47.462285" lon="7.860769">
        <ele>410.523665</ele>
        <time>2021-11-18T21:12:36.373Z</time>
      </trkpt>
      <trkpt lat="47.462231" lon="7.860873">
        <ele>410.582116</ele>
        <time>2021-11-18T21:12:38.372Z</time>
      </trkpt>
      <trkpt lat="47.461855" lon="7.861499">
        <ele>410.955365</ele>
        <time>2021-11-18T21:12:48.599Z</time>
      </trkpt>
      <trkpt lat="47.461541" lon="7.862217">
        <ele>411.567938</ele>
        <time>2021-11-18T21:12:59.932Z</time>
      </trkpt>
      <trkpt lat="47.461527" lon="7.862242">
        <ele>411.600794</ele>
        <time>2021-11-18T21:13:00.370Z</time>
      </trkpt>
      <trkpt lat="47.461353" lon="7.862539">
        <ele>411.998550</ele>
        <time>2021-11-18T21:13:06.284Z</time>
      </trkpt>
      <trkpt lat="47.461098" lon="7.862848">
        <ele>412.492043</ele>
        <time>2021-11-18T21:13:13.795Z</time>
      </trkpt>
      <trkpt lat="47.460786" lon="7.863164">
        <ele>413.058124</ele>
        <time>2021-11-18T21:13:22.184Z</time>
      </trkpt>
      <trkpt lat="47.460527" lon="7.863440">
        <ele>413.536004</ele>
        <time>2021-11-18T21:13:28.946Z</time>
      </trkpt>
      <trkpt lat="47.460398" lon="7.863603">
        <ele>413.789995</ele>
        <time>2021-11-18T21:13:32.360Z</time>
      </trkpt>
      <trkpt lat="47.460271" lon="7.863810">
        <ele>414.031763</ele>
        <time>2021-11-18T21:13:35.888Z</time>
      </trkpt>
      <trkpt lat="47.460115" lon="7.864146">
        <ele>414.369160</ele>
        <time>2021-11-18T21:13:40.652Z</time>
      </trkpt>
      <trkpt lat="47.460001" lon="7.864512">
        <ele>414.702730</ele>
        <time>2021-11-18T21:13:45.438Z</time>
      </trkpt>
      <trkpt lat="47.459616" lon="7.865526">
        <ele>415.665396</ele>
        <time>2021-11-18T21:14:01.671Z</time>
      </trkpt>
      <trkpt lat="47.459563" lon="7.865651">
        <ele>415.787532</ele>
        <time>2021-11-18T21:14:03.540Z</time>
      </trkpt>
      <trkpt lat="47.459497" lon="7.865844">
        <ele>415.966567</ele>
        <time>2021-11-18T21:14:06.479Z</time>
      </trkpt>
      <trkpt lat="47.459383" lon="7.866214">
        <ele>416.373293</ele>
        <time>2021-11-18T21:14:12.081Z</time>
      </trkpt>
      <trkpt lat="47.459231" lon="7.866811">
        <ele>417.047185</ele>
        <time>2021-11-18T21:14:20.768Z</time>
      </trkpt>
      <trkpt lat="47.459152" lon="7.867074">
        <ele>417.351197</ele>
        <time>2021-11-18T21:14:24.821Z</time>
      </trkpt>
      <trkpt lat="47.459058" lon="7.867339">
        <ele>417.667326</ele>
        <time>2021-11-18T21:14:28.896Z</time>
      </trkpt>
      <trkpt lat="47.458844" lon="7.867795">
        <ele>418.253707</ele>
        <time>2021-11-18T21:14:36.845Z</time>
      </trkpt>
      <trkpt lat="47.458680" lon="7.868173">
        <ele>418.728165</ele>
        <time>2021-11-18T21:14:44.101Z</time>
      </trkpt>
      <trkpt lat="47.458252" lon="7.869378">
        <ele>420.494621</ele>
        <time>2021-11-18T21:15:04.493Z</time>
      </trkpt>
      <trkpt lat="47.458055" lon="7.870048">
        <ele>421.460498</ele>
        <time>2021-11-18T21:15:15.261Z</time>
      </trkpt>
      <trkpt lat="47.457897" lon="7.870571">
        <ele>422.217792</ele>
        <time>2021-11-18T21:15:24.037Z</time>
      </trkpt>
      <trkpt lat="47.457834" lon="7.870782">
        <ele>422.618105</ele>
        <time>2021-11-18T21:15:28.016Z</time>
      </trkpt>
      <trkpt lat="47.457598" lon="7.871461">
        <ele>424.284547</ele>
        <time>2021-11-18T21:15:40.153Z</time>
      </trkpt>
      <trkpt lat="47.457107" lon="7.872555">
        <ele>427.150688</ele>
        <time>2021-11-18T21:16:07.079Z</time>
      </trkpt>
      <trkpt lat="47.456956" lon="7.873025">
        <ele>428.261390</ele>
        <time>2021-11-18T21:16:18.002Z</time>
      </trkpt>
      <trkpt lat="47.456839" lon="7.873690">
        <ele>429.398100</ele>
        <time>2021-11-18T21:16:30.983Z</time>
      </trkpt>
      <trkpt lat="47.456816" lon="7.873911">
        <ele>429.767995</ele>
        <time>2021-11-18T21:16:35.399Z</time>
      </trkpt>
      <trkpt lat="47.456788" lon="7.874217">
        <ele>430.278811</ele>
        <time>2021-11-18T21:16:40.631Z</time>
      </trkpt>
      <trkpt lat="47.456714" lon="7.874531">
        <ele>430.828895</ele>
        <time>2021-11-18T21:16:46.192Z</time>
      </trkpt>
      <trkpt lat="47.456658" lon="7.874665">
        <ele>431.089490</ele>
        <time>2021-11-18T21:16:48.045Z</time>
      </trkpt>
      <trkpt lat="47.456403" lon="7.875046">
        <ele>431.976323</ele>
        <time>2021-11-18T21:16:55.902Z</time>
      </trkpt>
      <trkpt lat="47.455780" lon="7.875652">
        <ele>432.773459</ele>
        <time>2021-11-18T21:17:11.396Z</time>
      </trkpt>
      <trkpt lat="47.455446" lon="7.875966">
        <ele>432.924712</ele>
        <time>2021-11-18T21:17:17.087Z</time>
      </trkpt>
      <trkpt lat="47.455123" lon="7.876253">
        <ele>433.068721</ele>
        <time>2021-11-18T21:17:22.061Z</time>
      </trkpt>
      <trkpt lat="47.454502" lon="7.876895">
        <ele>433.420464</ele>
        <time>2021-11-18T21:17:33.171Z</time>
      </trkpt>
      <trkpt lat="47.454362" lon="7.877045">
        <ele>433.533431</ele>
        <time>2021-11-18T21:17:36.098Z</time>
      </trkpt>
      <trkpt lat="47.453945" lon="7.877554">
        <ele>433.886739</ele>
        <time>2021-11-18T21:17:46.238Z</time>
      </trkpt>
      <trkpt lat="47.453517" lon="7.878069">
        <ele>434.247288</ele>
        <time>2021-11-18T21:17:56.373Z</time>
      </trkpt>
      <trkpt lat="47.453302" lon="7.878355">
        <ele>434.436249</ele>
        <time>2021-11-18T21:18:01.706Z</time>
      </trkpt>
      <trkpt lat="47.453057" lon="7.878652">
        <ele>434.671242</ele>
        <time>2021-11-18T21:18:07.305Z</time>
      </trkpt>
      <trkpt lat="47.452813" lon="7.878981">
        <ele>434.917617</ele>
        <time>2021-11-18T21:18:12.987Z</time>
      </trkpt>
      <trkpt lat="47.452655" lon="7.879223">
        <ele>435.087343</ele>
        <time>2021-11-18T21:18:16.847Z</time>
      </trkpt>
      <trkpt lat="47.452247" lon="7.879980">
        <ele>435.575769</ele>
        <time>2021-11-18T21:18:28.401Z</time>
      </trkpt>
      <trkpt lat="47.451953" lon="7.880518">
        <ele>435.995456</ele>
        <time>2021-11-18T21:18:36.742Z</time>
      </trkpt>
      <trkpt lat="47.451581" lon="7.881111">
        <ele>436.614565</ele>
        <time>2021-11-18T21:18:47.307Z</time>
      </trkpt>
      <trkpt lat="47.451351" lon="7.881477">
        <ele>436.996990</ele>
        <time>2021-11-18T21:18:53.857Z</time>
      </trkpt>
      <trkpt lat="47.451309" lon="7.881545">
        <ele>437.067480</ele>
        <time>2021-11-18T21:18:55.104Z</time>
      </trkpt>
      <trkpt lat="47.451241" lon="7.881654">
        <ele>437.180990</ele>
        <time>2021-11-18T21:18:57.061Z</time>
      </trkpt>
      <trkpt lat="47.451051" lon="7.881948">
        <ele>437.492257</ele>
        <time>2021-11-18T21:19:02.646Z</time>
      </trkpt>
      <trkpt lat="47.450772" lon="7.882435">
        <ele>438.000108</ele>
        <time>2021-11-18T21:19:11.426Z</time>
      </trkpt>
      <trkpt lat="47.450733" lon="7.882508">
        <ele>438.080082</ele>
        <time>2021-11-18T21:19:12.691Z</time>
      </trkpt>
      <trkpt lat="47.450650" lon="7.882664">
        <ele>438.250716</ele>
        <time>2021-11-18T21:19:15.412Z</time>
      </trkpt>
      <trkpt lat="47.450548" lon="7.882846">
        <ele>438.453916</ele>
        <time>2021-11-18T21:19:18.640Z</time>
      </trkpt>
      <trkpt lat="47.450472" lon="7.882973">
        <ele>438.599699</ele>
        <time>2021-11-18T21:19:20.867Z</time>
      </trkpt>
      <trkpt lat="47.450274" lon="7.883264">
        <ele>438.954565</ele>
        <time>2021-11-18T21:19:26.472Z</time>
      </trkpt>
      <trkpt lat="47.449712" lon="7.884119">
        <ele>439.979561</ele>
        <time>2021-11-18T21:19:42.192Z</time>
      </trkpt>
      <trkpt lat="47.449068" lon="7.885121">
        <ele>441.245910</ele>
        <time>2021-11-18T21:20:00.519Z</time>
      </trkpt>
      <trkpt lat="47.449022" lon="7.885187">
        <ele>441.333397</ele>
        <time>2021-11-18T21:20:01.850Z</time>
      </trkpt>
      <trkpt lat="47.448867" lon="7.885429">
        <ele>441.641069</ele>
        <time>2021-11-18T21:20:06.448Z</time>
      </trkpt>
      <trkpt lat="47.448801" lon="7.885554">
        <ele>441.787457</ele>
        <time>2021-11-18T21:20:08.724Z</time>
      </trkpt>
      <trkpt lat="47.448759" lon="7.885611">
        <ele>441.865271</ele>
        <time>2021-11-18T21:20:09.680Z</time>
      </trkpt>
      <trkpt lat="47.448727" lon="7.885648">
        <ele>441.920718</ele>
        <time>2021-11-18T21:20:10.447Z</time>
      </trkpt>
      <trkpt lat="47.448623" lon="7.885730">
        <ele>442.081594</ele>
        <time>2021-11-18T21:20:12.966Z</time>
      </trkpt>
      <trkpt lat="47.448497" lon="7.885784">
        <ele>442.260660</ele>
        <time>2021-11-18T21:20:15.985Z</time>
      </trkpt>
      <trkpt lat="47.448256" lon="7.885830">
        <ele>442.600185</ele>
        <time>2021-11-18T21:20:21.158Z</time>
      </trkpt>
      <trkpt lat="47.447948" lon="7.885889">
        <ele>443.147803</ele>
        <time>2021-11-18T21:20:27.575Z</time>
      </trkpt>
      <trkpt lat="47.447927" lon="7.885893">
        <ele>443.185137</ele>
        <time>2021-11-18T21:20:28.349Z</time>
      </trkpt>
      <trkpt lat="47.447843" lon="7.885915">
        <ele>443.335555</ele>
        <time>2021-11-18T21:20:30.510Z</time>
      </trkpt>
      <trkpt lat="47.447578" lon="7.886047">
        <ele>443.828614</ele>
        <time>2021-11-18T21:20:36.167Z</time>
      </trkpt>
      <trkpt lat="47.447271" lon="7.886367">
        <ele>444.490901</ele>
        <time>2021-11-18T21:20:44.490Z</time>
      </trkpt>
      <trkpt lat="47.446926" lon="7.886788">
        <ele>445.279617</ele>
        <time>2021-11-18T21:20:54.526Z</time>
      </trkpt>
      <trkpt lat="47.446791" lon="7.886928">
        <ele>445.570360</ele>
        <time>2021-11-18T21:20:58.004Z</time>
      </trkpt>
      <trkpt lat="47.446303" lon="7.887408">
        <ele>446.648728</ele>
        <time>2021-11-18T21:21:11.171Z</time>
      </trkpt>
      <trkpt lat="47.446228" lon="7.887482">
        <ele>446.815947</ele>
        <time>2021-11-18T21:21:13.180Z</time>
      </trkpt>
      <trkpt lat="47.446159" lon="7.887548">
        <ele>446.968356</ele>
        <time>2021-11-18T21:21:14.998Z</time>
      </trkpt>
      <trkpt lat="47.445865" lon="7.887829">
        <ele>447.617605</ele>
        <time>2021-11-18T21:21:22.783Z</time>
      </trkpt>
      <trkpt lat="47.445713" lon="7.887975">
        <ele>447.953763</ele>
        <time>2021-11-18T21:21:26.683Z</time>
      </trkpt>
      <trkpt lat="47.445254" lon="7.888414">
        <ele>448.967590</ele>
        <time>2021-11-18T21:21:38.521Z</time>
      </trkpt>
      <trkpt lat="47.445147" lon="7.888511">
        <ele>449.264910</ele>
        <time>2021-11-18T21:21:41.237Z</time>
      </trkpt>
      <trkpt lat="47.444943" lon="7.888709">
        <ele>449.946396</ele>
        <time>2021-11-18T21:21:47.315Z</time>
      </trkpt>
      <trkpt lat="47.444488" lon="7.889150">
        <ele>451.465741</ele>
        <time>2021-11-18T21:21:59.962Z</time>
      </trkpt>
      <trkpt lat="47.444393" lon="7.889238">
        <ele>451.778812</ele>
        <time>2021-11-18T21:22:03.109Z</time>
      </trkpt>
      <trkpt lat="47.444034" lon="7.889556">
        <ele>452.947538</ele>
        <time>2021-11-18T21:22:13.692Z</time>
      </trkpt>
      <trkpt lat="47.443891" lon="7.889667">
        <ele>453.398582</ele>
        <time>2021-11-18T21:22:18.048Z</time>
      </trkpt>
      <trkpt lat="47.443758" lon="7.889758">
        <ele>453.807853</ele>
        <time>2021-11-18T21:22:22.531Z</time>
      </trkpt>
      <trkpt lat="47.443195" lon="7.890087">
        <ele>457.639561</ele>
        <time>2021-11-18T21:22:41.708Z</time>
      </trkpt>
      <trkpt lat="47.442695" lon="7.890269">
        <ele>461.272724</ele>
        <time>2021-11-18T21:23:03.144Z</time>
      </trkpt>
      <trkpt lat="47.441565" lon="7.890682">
        <ele>470.957218</ele>
        <time>2021-11-18T21:24:03.622Z</time>
      </trkpt>
      <trkpt lat="47.441263" lon="7.890792">
        <ele>474.348231</ele>
        <time>2021-11-18T21:24:22.149Z</time>
      </trkpt>
      <trkpt lat="47.440728" lon="7.890993">
        <ele>480.366467</ele>
        <time>2021-11-18T21:24:54.946Z</time>
      </trkpt>
      <trkpt lat="47.440254" lon="7.891376">
        <ele>486.255666</ele>
        <time>2021-11-18T21:25:28.741Z</time>
      </trkpt>
      <trkpt lat="47.439256" lon="7.892823">
        <ele>501.705791</ele>
        <time>2021-11-18T21:26:56.331Z</time>
      </trkpt>
      <trkpt lat="47.439228" lon="7.892871">
        <ele>502.179724</ele>
        <time>2021-11-18T21:26:59.220Z</time>
      </trkpt>
      <trkpt lat="47.439042" lon="7.893234">
        <ele>505.584768</ele>
        <time>2021-11-18T21:27:14.884Z</time>
      </trkpt>
      <trkpt lat="47.438836" lon="7.893774">
        <ele>507.912195</ele>
        <time>2021-11-18T21:27:35.377Z</time>
      </trkpt>
      <trkpt lat="47.438723" lon="7.894209">
        <ele>509.355725</ele>
        <time>2021-11-18T21:27:48.847Z</time>
      </trkpt>
      <trkpt lat="47.438683" lon="7.894397">
        <ele>509.966255</ele>
        <time>2021-11-18T21:27:54.041Z</time>
      </trkpt>
      <trkpt lat="47.438392" lon="7.895853">
        <ele>514.399358</ele>
        <time>2021-11-18T21:28:21.401Z</time>
      </trkpt>
      <trkpt lat="47.438129" lon="7.896764">
        <ele>512.020681</ele>
        <time>2021-11-18T21:28:28.386Z</time>
      </trkpt>
      <trkpt lat="47.438061" lon="7.896935">
        <ele>511.544316</ele>
        <time>2021-11-18T21:28:29.716Z</time>
      </trkpt>
      <trkpt lat="47.438020" lon="7.897061">
        <ele>511.208535</ele>
        <time>2021-11-18T21:28:30.543Z</time>
      </trkpt>
      <trkpt lat="47.437727" lon="7.897775">
        <ele>509.202983</ele>
        <time>2021-11-18T21:28:35.978Z</time>
      </trkpt>
      <trkpt lat="47.437513" lon="7.898238">
        <ele>507.727565</ele>
        <time>2021-11-18T21:28:39.487Z</time>
      </trkpt>
      <trkpt lat="47.437451" lon="7.898374">
        <ele>507.149390</ele>
        <time>2021-11-18T21:28:40.440Z</time>
      </trkpt>
      <trkpt lat="47.436614" lon="7.900163">
        <ele>499.480827</ele>
        <time>2021-11-18T21:28:53.918Z</time>
      </trkpt>
      <trkpt lat="47.436392" lon="7.900644">
        <ele>499.193784</ele>
        <time>2021-11-18T21:28:58.482Z</time>
      </trkpt>
      <trkpt lat="47.436162" lon="7.901123">
        <ele>499.874502</ele>
        <time>2021-11-18T21:29:04.581Z</time>
      </trkpt>
      <trkpt lat="47.435966" lon="7.901542">
        <ele>500.464852</ele>
        <time>2021-11-18T21:29:12.065Z</time>
      </trkpt>
      <trkpt lat="47.435289" lon="7.902539">
        <ele>502.587239</ele>
        <time>2021-11-18T21:29:42.755Z</time>
      </trkpt>
      <trkpt lat="47.434454" lon="7.903404">
        <ele>507.550230</ele>
        <time>2021-11-18T21:30:22.977Z</time>
      </trkpt>
      <trkpt lat="47.433904" lon="7.903847">
        <ele>510.598062</ele>
        <time>2021-11-18T21:30:41.612Z</time>
      </trkpt>
      <trkpt lat="47.433528" lon="7.904076">
        <ele>512.247804</ele>
        <time>2021-11-18T21:30:52.903Z</time>
      </trkpt>
      <trkpt lat="47.433057" lon="7.904364">
        <ele>514.315565</ele>
        <time>2021-11-18T21:31:05.528Z</time>
      </trkpt>
      <trkpt lat="47.432000" lon="7.904989">
        <ele>519.472507</ele>
        <time>2021-11-18T21:31:45.079Z</time>
      </trkpt>
      <trkpt lat="47.431501" lon="7.905134">
        <ele>522.600225</ele>
        <time>2021-11-18T21:32:04.115Z</time>
      </trkpt>
      <trkpt lat="47.431347" lon="7.905140">
        <ele>523.547697</ele>
        <time>2021-11-18T21:32:12.154Z</time>
      </trkpt>
      <trkpt lat="47.430772" lon="7.905115">
        <ele>527.085636</ele>
        <time>2021-11-18T21:32:35.613Z</time>
      </trkpt>
      <trkpt lat="47.429366" lon="7.905049">
        <ele>533.888279</ele>
        <time>2021-11-18T21:33:31.479Z</time>
      </trkpt>
      <trkpt lat="47.427817" lon="7.905261">
        <ele>537.255776</ele>
        <time>2021-11-18T21:34:05.455Z</time>
      </trkpt>
      <trkpt lat="47.426850" lon="7.905086">
        <ele>537.439299</ele>
        <time>2021-11-18T21:34:17.416Z</time>
      </trkpt>
      <trkpt lat="47.426720" lon="7.905004">
        <ele>537.061124</ele>
        <time>2021-11-18T21:34:19.097Z</time>
      </trkpt>
      <trkpt lat="47.426720" lon="7.905004">
        <ele>537.061124</ele>
        <time>2021-11-18T21:34:19.099Z</time>
      </trkpt>
      <trkpt lat="47.426613" lon="7.904841">
        <ele>536.650006</ele>
        <time>2021-11-18T21:34:21.599Z</time>
      </trkpt>
      <trkpt lat="47.426552" lon="7.904727">
        <ele>536.386907</ele>
        <time>2021-11-18T21:34:22.516Z</time>
      </trkpt>
      <trkpt lat="47.426425" lon="7.904463">
        <ele>535.800534</ele>
        <time>2021-11-18T21:34:24.997Z</time>
      </trkpt>
      <trkpt lat="47.426367" lon="7.904349">
        <ele>535.542338</ele>
        <time>2021-11-18T21:34:26.023Z</time>
      </trkpt>
      <trkpt lat="47.426138" lon="7.904113">
        <ele>534.795401</ele>
        <time>2021-11-18T21:34:28.928Z</time>
      </trkpt>
      <trkpt lat="47.425619" lon="7.903851">
        <ele>533.328006</ele>
        <time>2021-11-18T21:34:34.308Z</time>
      </trkpt>
      <trkpt lat="47.425434" lon="7.903707">
        <ele>532.768579</ele>
        <time>2021-11-18T21:34:36.631Z</time>
      </trkpt>
      <trkpt lat="47.425311" lon="7.903615">
        <ele>532.320144</ele>
        <time>2021-11-18T21:34:37.867Z</time>
      </trkpt>
      <trkpt lat="47.423589" lon="7.902766">
        <ele>526.584117</ele>
        <time>2021-11-18T21:34:56.153Z</time>
      </trkpt>
      <trkpt lat="47.423452" lon="7.902645">
        <ele>526.422477</ele>
        <time>2021-11-18T21:34:57.768Z</time>
      </trkpt>
      <trkpt lat="47.423374" lon="7.902581">
        <ele>526.332121</ele>
        <time>2021-11-18T21:34:58.750Z</time>
      </trkpt>
      <trkpt lat="47.423315" lon="7.902540">
        <ele>526.266090</ele>
        <time>2021-11-18T21:34:59.593Z</time>
      </trkpt>
      <trkpt lat="47.423238" lon="7.902495">
        <ele>526.182228</ele>
        <time>2021-11-18T21:35:00.520Z</time>
      </trkpt>
      <trkpt lat="47.423044" lon="7.902393">
        <ele>525.973681</ele>
        <time>2021-11-18T21:35:02.748Z</time>
      </trkpt>
      <trkpt lat="47.422906" lon="7.902320">
        <ele>525.825231</ele>
        <time>2021-11-18T21:35:04.684Z</time>
      </trkpt>
      <trkpt lat="47.421602" lon="7.901655">
        <ele>525.193832</ele>
        <time>2021-11-18T21:35:26.055Z</time>
      </trkpt>
      <trkpt lat="47.421521" lon="7.901542">
        <ele>525.263519</ele>
        <time>2021-11-18T21:35:28.234Z</time>
      </trkpt>
      <trkpt lat="47.421502" lon="7.901465">
        <ele>525.298214</ele>
        <time>2021-11-18T21:35:30.965Z</time>
      </trkpt>
      <trkpt lat="47.421410" lon="7.901506">
        <ele>525.358334</ele>
        <time>2021-11-18T21:35:32.064Z</time>
      </trkpt>
      <trkpt lat="47.421321" lon="7.901553">
        <ele>525.417464</ele>
        <time>2021-11-18T21:35:33.124Z</time>
      </trkpt>
      <trkpt lat="47.421222" lon="7.901610">
        <ele>525.483937</ele>
        <time>2021-11-18T21:35:34.789Z</time>
      </trkpt>
      <trkpt lat="47.421180" lon="7.901635">
        <ele>525.512265</ele>
        <time>2021-11-18T21:35:37.249Z</time>
      </trkpt>
      <trkpt lat="47.420695" lon="7.901920">
        <ele>525.838809</ele>
        <time>2021-11-18T21:35:44.709Z</time>
      </trkpt>
      <trkpt lat="47.420637" lon="7.901954">
        <ele>525.877846</ele>
        <time>2021-11-18T21:35:45.409Z</time>
      </trkpt>
      <trkpt lat="47.420085" lon="7.902235">
        <ele>526.664595</ele>
        <time>2021-11-18T21:35:57.783Z</time>
      </trkpt>
      <trkpt lat="47.419578" lon="7.902441">
        <ele>527.634434</ele>
        <time>2021-11-18T21:36:07.123Z</time>
      </trkpt>
      <trkpt lat="47.419204" lon="7.902583">
        <ele>528.346664</ele>
        <time>2021-11-18T21:36:15.787Z</time>
      </trkpt>
      <trkpt lat="47.419043" lon="7.902685">
        <ele>528.669757</ele>
        <time>2021-11-18T21:36:20.839Z</time>
      </trkpt>
      <trkpt lat="47.418932" lon="7.902787">
        <ele>528.910841</ele>
        <time>2021-11-18T21:36:23.916Z</time>
      </trkpt>
      <trkpt lat="47.418668" lon="7.903098">
        <ele>529.786355</ele>
        <time>2021-11-18T21:36:33.419Z</time>
      </trkpt>
      <trkpt lat="47.418532" lon="7.903258">
        <ele>530.535278</ele>
        <time>2021-11-18T21:36:38.165Z</time>
      </trkpt>
      <trkpt lat="47.418268" lon="7.903613">
        <ele>532.073047</ele>
        <time>2021-11-18T21:36:48.699Z</time>
      </trkpt>
      <trkpt lat="47.418232" lon="7.903669">
        <ele>532.298232</ele>
        <time>2021-11-18T21:36:50.684Z</time>
      </trkpt>
      <trkpt lat="47.418168" lon="7.903812">
        <ele>532.798050</ele>
        <time>2021-11-18T21:36:54.506Z</time>
      </trkpt>
      <trkpt lat="47.417991" lon="7.904019">
        <ele>533.770516</ele>
        <time>2021-11-18T21:37:01.623Z</time>
      </trkpt>
      <trkpt lat="47.417618" lon="7.904179">
        <ele>535.443867</ele>
        <time>2021-11-18T21:37:15.027Z</time>
      </trkpt>
      <trkpt lat="47.417531" lon="7.904238">
        <ele>535.856276</ele>
        <time>2021-11-18T21:37:18.750Z</time>
      </trkpt>
      <trkpt lat="47.417427" lon="7.904326">
        <ele>536.372593</ele>
        <time>2021-11-18T21:37:22.643Z</time>
      </trkpt>
      <trkpt lat="47.417265" lon="7.904453">
        <ele>537.166894</ele>
        <time>2021-11-18T21:37:29.691Z</time>
      </trkpt>
      <trkpt lat="47.416980" lon="7.904605">
        <ele>538.552043</ele>
        <time>2021-11-18T21:37:39.848Z</time>
      </trkpt>
      <trkpt lat="47.416822" lon="7.904701">
        <ele>539.333017</ele>
        <time>2021-11-18T21:37:46.844Z</time>
      </trkpt>
      <trkpt lat="47.416808" lon="7.904773">
        <ele>539.564756</ele>
        <time>2021-11-18T21:37:48.154Z</time>
      </trkpt>
      <trkpt lat="47.416773" lon="7.904932">
        <ele>540.081980</ele>
        <time>2021-11-18T21:37:51.290Z</time>
      </trkpt>
      <trkpt lat="47.416651" lon="7.905415">
        <ele>541.676802</ele>
        <time>2021-11-18T21:38:02.395Z</time>
      </trkpt>
      <trkpt lat="47.416580" lon="7.905705">
        <ele>542.630808</ele>
        <time>2021-11-18T21:38:09.386Z</time>
      </trkpt>
      <trkpt lat="47.416460" lon="7.906294">
        <ele>544.533631</ele>
        <time>2021-11-18T21:38:22.150Z</time>
      </trkpt>
      <trkpt lat="47.416398" lon="7.906605">
        <ele>545.533878</ele>
        <time>2021-11-18T21:38:28.710Z</time>
      </trkpt>
      <trkpt lat="47.416410" lon="7.906687">
        <ele>545.790230</ele>
        <time>2021-11-18T21:38:31.384Z</time>
      </trkpt>
      <trkpt lat="47.416442" lon="7.906759">
        <ele>546.053446</ele>
        <time>2021-11-18T21:38:32.995Z</time>
      </trkpt>
      <trkpt lat="47.416608" lon="7.907067">
        <ele>547.256618</ele>
        <time>2021-11-18T21:38:42.472Z</time>
      </trkpt>
      <trkpt lat="47.416637" lon="7.907164">
        <ele>547.580652</ele>
        <time>2021-11-18T21:38:45.169Z</time>
      </trkpt>
      <trkpt lat="47.416673" lon="7.907346">
        <ele>548.160043</ele>
        <time>2021-11-18T21:38:49.416Z</time>
      </trkpt>
      <trkpt lat="47.416753" lon="7.907390">
        <ele>548.545505</ele>
        <time>2021-11-18T21:38:52.056Z</time>
      </trkpt>
      <trkpt lat="47.416851" lon="7.907423">
        <ele>548.999385</ele>
        <time>2021-11-18T21:38:55.905Z</time>
      </trkpt>
      <trkpt lat="47.416890" lon="7.907417">
        <ele>549.176449</ele>
        <time>2021-11-18T21:38:57.126Z</time>
      </trkpt>
      <trkpt lat="47.416991" lon="7.907401">
        <ele>549.635146</ele>
        <time>2021-11-18T21:39:00.486Z</time>
      </trkpt>
      <trkpt lat="47.417045" lon="7.907386">
        <ele>549.883263</ele>
        <time>2021-11-18T21:39:01.751Z</time>
      </trkpt>
      <trkpt lat="47.417211" lon="7.907291">
        <ele>550.687109</ele>
        <time>2021-11-18T21:39:07.722Z</time>
      </trkpt>
      <trkpt lat="47.417526" lon="7.907135">
        <ele>552.187292</ele>
        <time>2021-11-18T21:39:17.749Z</time>
      </trkpt>
      <trkpt lat="47.417654" lon="7.907109">
        <ele>552.770734</ele>
        <time>2021-11-18T21:39:21.604Z</time>
      </trkpt>
      <trkpt lat="47.417654" lon="7.907109">
        <ele>552.770734</ele>
        <time>2021-11-18T21:39:21.732Z</time>
      </trkpt>
      <trkpt lat="47.417520" lon="7.907671">
        <ele>555.000963</ele>
        <time>2021-11-18T21:39:37.102Z</time>
      </trkpt>
      <trkpt lat="47.417369" lon="7.908044">
        <ele>556.800746</ele>
        <time>2021-11-18T21:39:49.076Z</time>
      </trkpt>
      <trkpt lat="47.417016" lon="7.908958">
        <ele>561.158427</ele>
        <time>2021-11-18T21:40:22.063Z</time>
      </trkpt>
      <trkpt lat="47.416301" lon="7.911097">
        <ele>571.373178</ele>
        <time>2021-11-18T21:41:40.691Z</time>
      </trkpt>
      <trkpt lat="47.415997" lon="7.911628">
        <ele>574.400084</ele>
        <time>2021-11-18T21:42:00.034Z</time>
      </trkpt>
      <trkpt lat="47.415760" lon="7.912376">
        <ele>577.112122</ele>
        <time>2021-11-18T21:42:18.230Z</time>
      </trkpt>
      <trkpt lat="47.415709" lon="7.912548">
        <ele>577.565580</ele>
        <time>2021-11-18T21:42:23.520Z</time>
      </trkpt>
      <trkpt lat="47.415639" lon="7.912609">
        <ele>577.855571</ele>
        <time>2021-11-18T21:42:25.795Z</time>
      </trkpt>
      <trkpt lat="47.415289" lon="7.913076">
        <ele>579.538315</ele>
        <time>2021-11-18T21:42:41.410Z</time>
      </trkpt>
      <trkpt lat="47.415068" lon="7.913592">
        <ele>581.012935</ele>
        <time>2021-11-18T21:42:53.902Z</time>
      </trkpt>
      <trkpt lat="47.415027" lon="7.913784">
        <ele>581.499106</ele>
        <time>2021-11-18T21:42:58.905Z</time>
      </trkpt>
      <trkpt lat="47.414979" lon="7.914028">
        <ele>582.112701</ele>
        <time>2021-11-18T21:43:03.640Z</time>
      </trkpt>
      <trkpt lat="47.414790" lon="7.914515">
        <ele>583.698021</ele>
        <time>2021-11-18T21:43:15.823Z</time>
      </trkpt>
      <trkpt lat="47.414743" lon="7.914645">
        <ele>584.132713</ele>
        <time>2021-11-18T21:43:18.788Z</time>
      </trkpt>
      <trkpt lat="47.414683" lon="7.914749">
        <ele>584.535777</ele>
        <time>2021-11-18T21:43:21.938Z</time>
      </trkpt>
      <trkpt lat="47.414533" lon="7.915331">
        <ele>586.372523</ele>
        <time>2021-11-18T21:43:36.183Z</time>
      </trkpt>
      <trkpt lat="47.414571" lon="7.915814">
        <ele>587.806606</ele>
        <time>2021-11-18T21:43:48.403Z</time>
      </trkpt>
      <trkpt lat="47.414593" lon="7.915964">
        <ele>588.259266</ele>
        <time>2021-11-18T21:43:52.635Z</time>
      </trkpt>
      <trkpt lat="47.414614" lon="7.916201">
        <ele>588.964204</ele>
        <time>2021-11-18T21:43:59.113Z</time>
      </trkpt>
      <trkpt lat="47.414611" lon="7.916472">
        <ele>589.763557</ele>
        <time>2021-11-18T21:44:06.689Z</time>
      </trkpt>
      <trkpt lat="47.414655" lon="7.916711">
        <ele>590.839570</ele>
        <time>2021-11-18T21:44:13.971Z</time>
      </trkpt>
      <trkpt lat="47.415093" lon="7.918531">
        <ele>605.318742</ele>
        <time>2021-11-18T21:45:26.314Z</time>
      </trkpt>
      <trkpt lat="47.415743" lon="7.919244">
        <ele>618.187900</ele>
        <time>2021-11-18T21:46:41.775Z</time>
      </trkpt>
      <trkpt lat="47.415878" lon="7.919394">
        <ele>621.843049</ele>
        <time>2021-11-18T21:47:00.626Z</time>
      </trkpt>
      <trkpt lat="47.416067" lon="7.919724">
        <ele>628.174034</ele>
        <time>2021-11-18T21:47:32.337Z</time>
      </trkpt>
      <trkpt lat="47.416241" lon="7.920142">
        <ele>635.360567</ele>
        <time>2021-11-18T21:48:08.603Z</time>
      </trkpt>
      <trkpt lat="47.416280" lon="7.920320">
        <ele>638.100368</ele>
        <time>2021-11-18T21:48:22.829Z</time>
      </trkpt>
      <trkpt lat="47.416295" lon="7.920442">
        <ele>639.916142</ele>
        <time>2021-11-18T21:48:32.206Z</time>
      </trkpt>
      <trkpt lat="47.416422" lon="7.920803">
        <ele>645.874247</ele>
        <time>2021-11-18T21:49:02.895Z</time>
      </trkpt>
      <trkpt lat="47.416551" lon="7.921143">
        <ele>651.393978</ele>
        <time>2021-11-18T21:49:32.444Z</time>
      </trkpt>
      <trkpt lat="47.416551" lon="7.922152">
        <ele>665.040289</ele>
        <time>2021-11-18T21:50:48.545Z</time>
      </trkpt>
      <trkpt lat="47.416740" lon="7.922487">
        <ele>670.939237</ele>
        <time>2021-11-18T21:51:21.443Z</time>
      </trkpt>
      <trkpt lat="47.416907" lon="7.922626">
        <ele>674.770080</ele>
        <time>2021-11-18T21:51:38.235Z</time>
      </trkpt>
      <trkpt lat="47.417060" lon="7.923009">
        <ele>680.785287</ele>
        <time>2021-11-18T21:52:04.046Z</time>
      </trkpt>
      <trkpt lat="47.417315" lon="7.923258">
        <ele>686.224249</ele>
        <time>2021-11-18T21:52:26.779Z</time>
      </trkpt>
      <trkpt lat="47.417440" lon="7.923660">
        <ele>690.013501</ele>
        <time>2021-11-18T21:52:48.886Z</time>
      </trkpt>
      <trkpt lat="47.417590" lon="7.923893">
        <ele>692.768039</ele>
        <time>2021-11-18T21:53:04.683Z</time>
      </trkpt>
      <trkpt lat="47.417664" lon="7.924293">
        <ele>696.319740</ele>
        <time>2021-11-18T21:53:24.817Z</time>
      </trkpt>
      <trkpt lat="47.417788" lon="7.924508">
        <ele>698.739345</ele>
        <time>2021-11-18T21:53:38.431Z</time>
      </trkpt>
      <trkpt lat="47.417884" lon="7.925463">
        <ele>707.008564</ele>
        <time>2021-11-18T21:54:22.403Z</time>
      </trkpt>
      <trkpt lat="47.418164" lon="7.926180">
        <ele>712.942771</ele>
        <time>2021-11-18T21:54:57.660Z</time>
      </trkpt>
      <trkpt lat="47.418236" lon="7.926706">
        <ele>716.690851</ele>
        <time>2021-11-18T21:55:19.948Z</time>
      </trkpt>
      <trkpt lat="47.418735" lon="7.928053">
        <ele>727.353048</ele>
        <time>2021-11-18T21:56:22.354Z</time>
      </trkpt>
      <trkpt lat="47.418844" lon="7.928621">
        <ele>731.220636</ele>
        <time>2021-11-18T21:56:46.271Z</time>
      </trkpt>
      <trkpt lat="47.418827" lon="7.928951">
        <ele>733.388645</ele>
        <time>2021-11-18T21:56:59.625Z</time>
      </trkpt>
      <trkpt lat="47.419061" lon="7.929738">
        <ele>739.019882</ele>
        <time>2021-11-18T21:57:33.929Z</time>
      </trkpt>
      <trkpt lat="47.419019" lon="7.930038">
        <ele>741.026730</ele>
        <time>2021-11-18T21:57:46.229Z</time>
      </trkpt>
      <trkpt lat="47.419056" lon="7.930533">
        <ele>744.191215</ele>
        <time>2021-11-18T21:58:05.518Z</time>
      </trkpt>
      <trkpt lat="47.419186" lon="7.930749">
        <ele>745.695715</ele>
        <time>2021-11-18T21:58:16.197Z</time>
      </trkpt>
      <trkpt lat="47.419326" lon="7.931556">
        <ele>750.031483</ele>
        <time>2021-11-18T21:58:49.697Z</time>
      </trkpt>
      <trkpt lat="47.419571" lon="7.932270">
        <ele>754.197903</ele>
        <time>2021-11-18T21:59:16.354Z</time>
      </trkpt>
      <trkpt lat="47.419799" lon="7.932769">
        <ele>757.331526</ele>
        <time>2021-11-18T21:59:34.204Z</time>
      </trkpt>
      <trkpt lat="47.419807" lon="7.932908">
        <ele>757.768364</ele>
        <time>2021-11-18T21:59:39.263Z</time>
      </trkpt>
      <trkpt lat="47.419808" lon="7.932981">
        <ele>757.880434</ele>
        <time>2021-11-18T21:59:41.369Z</time>
      </trkpt>
      <trkpt lat="47.419780" lon="7.933237">
        <ele>758.278467</ele>
        <time>2021-11-18T21:59:47.031Z</time>
      </trkpt>
      <trkpt lat="47.419737" lon="7.933541">
        <ele>758.755160</ele>
        <time>2021-11-18T21:59:55.544Z</time>
      </trkpt>
      <trkpt lat="47.419697" lon="7.933825">
        <ele>759.200414</ele>
        <time>2021-11-18T22:00:04.269Z</time>
      </trkpt>
      <trkpt lat="47.419497" lon="7.934707">
        <ele>760.628192</ele>
        <time>2021-11-18T22:00:33.023Z</time>
      </trkpt>
      <trkpt lat="47.419297" lon="7.934952">
        <ele>761.217472</ele>
        <time>2021-11-18T22:00:44.233Z</time>
      </trkpt>
      <trkpt lat="47.419161" lon="7.935303">
        <ele>761.647637</ele>
        <time>2021-11-18T22:00:53.398Z</time>
      </trkpt>
      <trkpt lat="47.418955" lon="7.936370">
        <ele>760.418564</ele>
        <time>2021-11-18T22:01:16.516Z</time>
      </trkpt>
      <trkpt lat="47.418877" lon="7.936595">
        <ele>760.138528</ele>
        <time>2021-11-18T22:01:21.998Z</time>
      </trkpt>
      <trkpt lat="47.418903" lon="7.937717">
        <ele>758.894970</ele>
        <time>2021-11-18T22:01:46.041Z</time>
      </trkpt>
      <trkpt lat="47.418879" lon="7.937864">
        <ele>758.788855</ele>
        <time>2021-11-18T22:01:49.155Z</time>
      </trkpt>
      <trkpt lat="47.418854" lon="7.937970">
        <ele>758.801796</ele>
        <time>2021-11-18T22:01:50.358Z</time>
      </trkpt>
      <trkpt lat="47.418782" lon="7.938308">
        <ele>758.842647</ele>
        <time>2021-11-18T22:01:54.808Z</time>
      </trkpt>
      <trkpt lat="47.418774" lon="7.938414">
        <ele>758.854943</ele>
        <time>2021-11-18T22:01:55.912Z</time>
      </trkpt>
      <trkpt lat="47.418762" lon="7.938641">
        <ele>758.881192</ele>
        <time>2021-11-18T22:01:57.978Z</time>
      </trkpt>
      <trkpt lat="47.418789" lon="7.939219">
        <ele>758.947984</ele>
        <time>2021-11-18T22:02:03.403Z</time>
      </trkpt>
      <trkpt lat="47.419082" lon="7.940220">
        <ele>759.073716</ele>
        <time>2021-11-18T22:02:15.942Z</time>
      </trkpt>
      <trkpt lat="47.419104" lon="7.940427">
        <ele>759.246312</ele>
        <time>2021-11-18T22:02:19.174Z</time>
      </trkpt>
      <trkpt lat="47.419130" lon="7.940677">
        <ele>759.793402</ele>
        <time>2021-11-18T22:02:24.004Z</time>
      </trkpt>
      <trkpt lat="47.419184" lon="7.941194">
        <ele>760.924894</ele>
        <time>2021-11-18T22:02:35.063Z</time>
      </trkpt>
      <trkpt lat="47.419425" lon="7.942445">
        <ele>763.738278</ele>
        <time>2021-11-18T22:03:01.416Z</time>
      </trkpt>
      <trkpt lat="47.419469" lon="7.942694">
        <ele>764.294915</ele>
        <time>2021-11-18T22:03:05.637Z</time>
      </trkpt>
      <trkpt lat="47.419480" lon="7.942782">
        <ele>764.488474</ele>
        <time>2021-11-18T22:03:09.153Z</time>
      </trkpt>
      <trkpt lat="47.419436" lon="7.943185">
        <ele>765.118265</ele>
        <time>2021-11-18T22:03:14.366Z</time>
      </trkpt>
      <trkpt lat="47.419403" lon="7.943280">
        <ele>765.239383</ele>
        <time>2021-11-18T22:03:18.549Z</time>
      </trkpt>
      <trkpt lat="47.419628" lon="7.943420">
        <ele>765.648603</ele>
        <time>2021-11-18T22:03:23.291Z</time>
      </trkpt>
      <trkpt lat="47.420597" lon="7.943743">
        <ele>767.313693</ele>
        <time>2021-11-18T22:03:46.613Z</time>
      </trkpt>
      <trkpt lat="47.420682" lon="7.943737">
        <ele>767.456337</ele>
        <time>2021-11-18T22:03:47.612Z</time>
      </trkpt>
      <trkpt lat="47.420805" lon="7.943719">
        <ele>767.663524</ele>
        <time>2021-11-18T22:03:50.323Z</time>
      </trkpt>
      <trkpt lat="47.420877" lon="7.943722">
        <ele>767.784262</ele>
        <time>2021-11-18T22:03:51.235Z</time>
      </trkpt>
      <trkpt lat="47.420976" lon="7.943782">
        <ele>767.678429</ele>
        <time>2021-11-18T22:03:52.451Z</time>
      </trkpt>
      <trkpt lat="47.421012" lon="7.943822">
        <ele>767.557249</ele>
        <time>2021-11-18T22:03:52.991Z</time>
      </trkpt>
      <trkpt lat="47.421108" lon="7.943951">
        <ele>767.208157</ele>
        <time>2021-11-18T22:03:54.450Z</time>
      </trkpt>
      <trkpt lat="47.421331" lon="7.944359">
        <ele>766.253346</ele>
        <time>2021-11-18T22:03:58.575Z</time>
      </trkpt>
      <trkpt lat="47.421631" lon="7.945174">
        <ele>764.564332</ele>
        <time>2021-11-18T22:04:05.091Z</time>
      </trkpt>
      <trkpt lat="47.421944" lon="7.945671">
        <ele>763.328293</ele>
        <time>2021-11-18T22:04:09.598Z</time>
      </trkpt>
      <trkpt lat="47.422126" lon="7.946071">
        <ele>761.716133</ele>
        <time>2021-11-18T22:04:12.762Z</time>
      </trkpt>
      <trkpt lat="47.422193" lon="7.946222">
        <ele>760.959217</ele>
        <time>2021-11-18T22:04:13.855Z</time>
      </trkpt>
      <trkpt lat="47.422250" lon="7.946328">
        <ele>760.391657</ele>
        <time>2021-11-18T22:04:14.628Z</time>
      </trkpt>
      <trkpt lat="47.422351" lon="7.946426">
        <ele>759.643137</ele>
        <time>2021-11-18T22:04:15.875Z</time>
      </trkpt>
      <trkpt lat="47.422561" lon="7.946612">
        <ele>758.126393</ele>
        <time>2021-11-18T22:04:18.021Z</time>
      </trkpt>
      <trkpt lat="47.423268" lon="7.947444">
        <ele>752.527498</ele>
        <time>2021-11-18T22:04:26.301Z</time>
      </trkpt>
      <trkpt lat="47.423328" lon="7.947553">
        <ele>751.938498</ele>
        <time>2021-11-18T22:04:27.138Z</time>
      </trkpt>
      <trkpt lat="47.423328" lon="7.947553">
        <ele>751.938498</ele>
        <time>2021-11-18T22:04:27.159Z</time>
      </trkpt>
      <trkpt lat="47.423363" lon="7.947641">
        <ele>751.499654</ele>
        <time>2021-11-18T22:04:27.758Z</time>
      </trkpt>
      <trkpt lat="47.423387" lon="7.947746">
        <ele>751.020981</ele>
        <time>2021-11-18T22:04:28.487Z</time>
      </trkpt>
      <trkpt lat="47.423417" lon="7.947883">
        <ele>750.399060</ele>
        <time>2021-11-18T22:04:29.441Z</time>
      </trkpt>
      <trkpt lat="47.423374" lon="7.948260">
        <ele>748.747829</ele>
        <time>2021-11-18T22:04:31.726Z</time>
      </trkpt>
      <trkpt lat="47.423266" lon="7.948471">
        <ele>747.605116</ele>
        <time>2021-11-18T22:04:33.460Z</time>
      </trkpt>
      <trkpt lat="47.422976" lon="7.948772">
        <ele>745.343004</ele>
        <time>2021-11-18T22:04:36.712Z</time>
      </trkpt>
      <trkpt lat="47.422934" lon="7.948905">
        <ele>744.709086</ele>
        <time>2021-11-18T22:04:37.567Z</time>
      </trkpt>
      <trkpt lat="47.422940" lon="7.948986">
        <ele>744.357155</ele>
        <time>2021-11-18T22:04:38.068Z</time>
      </trkpt>
      <trkpt lat="47.422958" lon="7.949050">
        <ele>744.057806</ele>
        <time>2021-11-18T22:04:38.546Z</time>
      </trkpt>
      <trkpt lat="47.423086" lon="7.949148">
        <ele>743.137586</ele>
        <time>2021-11-18T22:04:39.932Z</time>
      </trkpt>
      <trkpt lat="47.423726" lon="7.949015">
        <ele>739.128672</ele>
        <time>2021-11-18T22:04:45.778Z</time>
      </trkpt>
      <trkpt lat="47.423922" lon="7.948906">
        <ele>737.905146</ele>
        <time>2021-11-18T22:04:47.631Z</time>
      </trkpt>
      <trkpt lat="47.424604" lon="7.947906">
        <ele>732.292409</ele>
        <time>2021-11-18T22:04:56.617Z</time>
      </trkpt>
      <trkpt lat="47.424674" lon="7.947832">
        <ele>731.789588</ele>
        <time>2021-11-18T22:04:57.352Z</time>
      </trkpt>
      <trkpt lat="47.424790" lon="7.947734">
        <ele>731.008949</ele>
        <time>2021-11-18T22:04:58.711Z</time>
      </trkpt>
      <trkpt lat="47.425147" lon="7.947512">
        <ele>727.919529</ele>
        <time>2021-11-18T22:05:02.537Z</time>
      </trkpt>
      <trkpt lat="47.425498" lon="7.947459">
        <ele>724.356859</ele>
        <time>2021-11-18T22:05:05.693Z</time>
      </trkpt>
      <trkpt lat="47.425835" lon="7.947558">
        <ele>720.887443</ele>
        <time>2021-11-18T22:05:08.652Z</time>
      </trkpt>
      <trkpt lat="47.426172" lon="7.947859">
        <ele>716.911566</ele>
        <time>2021-11-18T22:05:11.965Z</time>
      </trkpt>
      <trkpt lat="47.426240" lon="7.947961">
        <ele>715.933308</ele>
        <time>2021-11-18T22:05:12.790Z</time>
      </trkpt>
      <trkpt lat="47.426320" lon="7.948063">
        <ele>714.866505</ele>
        <time>2021-11-18T22:05:13.669Z</time>
      </trkpt>
      <trkpt lat="47.426514" lon="7.948142">
        <ele>712.834610</ele>
        <time>2021-11-18T22:05:15.423Z</time>
      </trkpt>
      <trkpt lat="47.426547" lon="7.948133">
        <ele>712.495768</ele>
        <time>2021-11-18T22:05:15.713Z</time>
      </trkpt>
      <trkpt lat="47.426587" lon="7.948105">
        <ele>712.048865</ele>
        <time>2021-11-18T22:05:16.086Z</time>
      </trkpt>
      <trkpt lat="47.426691" lon="7.947897">
        <ele>709.748610</ele>
        <time>2021-11-18T22:05:17.577Z</time>
      </trkpt>
      <trkpt lat="47.426641" lon="7.947531">
        <ele>706.251222</ele>
        <time>2021-11-18T22:05:19.682Z</time>
      </trkpt>
      <trkpt lat="47.426598" lon="7.947306">
        <ele>704.061251</ele>
        <time>2021-11-18T22:05:21.002Z</time>
      </trkpt>
      <trkpt lat="47.426551" lon="7.947011">
        <ele>701.222497</ele>
        <time>2021-11-18T22:05:22.696Z</time>
      </trkpt>
      <trkpt lat="47.426554" lon="7.946505">
        <ele>696.482781</ele>
        <time>2021-11-18T22:05:25.529Z</time>
      </trkpt>
      <trkpt lat="47.426763" lon="7.945300">
        <ele>686.096103</ele>
        <time>2021-11-18T22:05:32.558Z</time>
      </trkpt>
      <trkpt lat="47.426788" lon="7.945129">
        <ele>685.501367</ele>
        <time>2021-11-18T22:05:33.538Z</time>
      </trkpt>
      <trkpt lat="47.426834" lon="7.944970">
        <ele>684.913494</ele>
        <time>2021-11-18T22:05:34.575Z</time>
      </trkpt>
      <trkpt lat="47.427334" lon="7.943795">
        <ele>680.194616</ele>
        <time>2021-11-18T22:05:43.883Z</time>
      </trkpt>
      <trkpt lat="47.427365" lon="7.943049">
        <ele>677.653996</ele>
        <time>2021-11-18T22:05:51.078Z</time>
      </trkpt>
      <trkpt lat="47.427671" lon="7.942227">
        <ele>674.468966</ele>
        <time>2021-11-18T22:06:01.918Z</time>
      </trkpt>
      <trkpt lat="47.427590" lon="7.941648">
        <ele>672.461837</ele>
        <time>2021-11-18T22:06:05.834Z</time>
      </trkpt>
      <trkpt lat="47.427387" lon="7.940897">
        <ele>669.716425</ele>
        <time>2021-11-18T22:06:10.597Z</time>
      </trkpt>
      <trkpt lat="47.427374" lon="7.940805">
        <ele>669.397369</ele>
        <time>2021-11-18T22:06:12.160Z</time>
      </trkpt>
      <trkpt lat="47.427373" lon="7.940710">
        <ele>669.074830</ele>
        <time>2021-11-18T22:06:12.692Z</time>
      </trkpt>
      <trkpt lat="47.427385" lon="7.940642">
        <ele>668.836263</ele>
        <time>2021-11-18T22:06:13.118Z</time>
      </trkpt>
      <trkpt lat="47.427416" lon="7.940458">
        <ele>666.855352</ele>
        <time>2021-11-18T22:06:14.182Z</time>
      </trkpt>
      <trkpt lat="47.427416" lon="7.940458">
        <ele>666.855352</ele>
        <time>2021-11-18T22:06:14.187Z</time>
      </trkpt>
      <trkpt lat="47.427575" lon="7.940106">
        <ele>661.992745</ele>
        <time>2021-11-18T22:06:16.692Z</time>
      </trkpt>
      <trkpt lat="47.427650" lon="7.939972">
        <ele>659.994694</ele>
        <time>2021-11-18T22:06:17.653Z</time>
      </trkpt>
      <trkpt lat="47.427839" lon="7.939696">
        <ele>655.482934</ele>
        <time>2021-11-18T22:06:19.868Z</time>
      </trkpt>
      <trkpt lat="47.427904" lon="7.939616">
        <ele>654.046559</ele>
        <time>2021-11-18T22:06:20.566Z</time>
      </trkpt>
      <trkpt lat="47.428064" lon="7.939492">
        <ele>650.978625</ele>
        <time>2021-11-18T22:06:22.072Z</time>
      </trkpt>
      <trkpt lat="47.428131" lon="7.939456">
        <ele>649.767991</ele>
        <time>2021-11-18T22:06:22.659Z</time>
      </trkpt>
      <trkpt lat="47.428188" lon="7.939435">
        <ele>648.770403</ele>
        <time>2021-11-18T22:06:23.161Z</time>
      </trkpt>
      <trkpt lat="47.428844" lon="7.939341">
        <ele>637.597179</ele>
        <time>2021-11-18T22:06:28.562Z</time>
      </trkpt>
      <trkpt lat="47.428887" lon="7.939301">
        <ele>636.760658</ele>
        <time>2021-11-18T22:06:28.992Z</time>
      </trkpt>
      <trkpt lat="47.428968" lon="7.939204">
        <ele>635.044257</ele>
        <time>2021-11-18T22:06:29.849Z</time>
      </trkpt>
      <trkpt lat="47.429049" lon="7.939099">
        <ele>633.270412</ele>
        <time>2021-11-18T22:06:30.744Z</time>
      </trkpt>
      <trkpt lat="47.429126" lon="7.938998">
        <ele>631.575433</ele>
        <time>2021-11-18T22:06:31.582Z</time>
      </trkpt>
      <trkpt lat="47.429208" lon="7.938884">
        <ele>629.721992</ele>
        <time>2021-11-18T22:06:32.502Z</time>
      </trkpt>
      <trkpt lat="47.429422" lon="7.938553">
        <ele>624.622179</ele>
        <time>2021-11-18T22:06:35.053Z</time>
      </trkpt>
      <trkpt lat="47.429698" lon="7.938099">
        <ele>617.823421</ele>
        <time>2021-11-18T22:06:38.494Z</time>
      </trkpt>
      <trkpt lat="47.430098" lon="7.937743">
        <ele>610.135841</ele>
        <time>2021-11-18T22:06:42.392Z</time>
      </trkpt>
      <trkpt lat="47.430152" lon="7.937646">
        <ele>608.736615</ele>
        <time>2021-11-18T22:06:43.089Z</time>
      </trkpt>
      <trkpt lat="47.430189" lon="7.937568">
        <ele>608.074496</ele>
        <time>2021-11-18T22:06:43.632Z</time>
      </trkpt>
      <trkpt lat="47.430314" lon="7.937276">
        <ele>605.897298</ele>
        <time>2021-11-18T22:06:45.641Z</time>
      </trkpt>
      <trkpt lat="47.430396" lon="7.937100">
        <ele>604.550839</ele>
        <time>2021-11-18T22:06:46.871Z</time>
      </trkpt>
      <trkpt lat="47.430465" lon="7.936959">
        <ele>603.454380</ele>
        <time>2021-11-18T22:06:47.933Z</time>
      </trkpt>
      <trkpt lat="47.430872" lon="7.936442">
        <ele>598.456386</ele>
        <time>2021-11-18T22:06:52.582Z</time>
      </trkpt>
      <trkpt lat="47.431327" lon="7.935907">
        <ele>593.041532</ele>
        <time>2021-11-18T22:06:57.775Z</time>
      </trkpt>
      <trkpt lat="47.431654" lon="7.935633">
        <ele>590.511250</ele>
        <time>2021-11-18T22:07:01.135Z</time>
      </trkpt>
      <trkpt lat="47.431738" lon="7.935566">
        <ele>589.997187</ele>
        <time>2021-11-18T22:07:01.939Z</time>
      </trkpt>
      <trkpt lat="47.431977" lon="7.935653">
        <ele>588.671521</ele>
        <time>2021-11-18T22:07:04.298Z</time>
      </trkpt>
      <trkpt lat="47.432306" lon="7.935654">
        <ele>586.899578</ele>
        <time>2021-11-18T22:07:07.337Z</time>
      </trkpt>
      <trkpt lat="47.432352" lon="7.935654">
        <ele>586.651830</ele>
        <time>2021-11-18T22:07:07.774Z</time>
      </trkpt>
      <trkpt lat="47.432374" lon="7.935658">
        <ele>586.532449</ele>
        <time>2021-11-18T22:07:07.957Z</time>
      </trkpt>
      <trkpt lat="47.432419" lon="7.935671">
        <ele>586.285502</ele>
        <time>2021-11-18T22:07:08.355Z</time>
      </trkpt>
      <trkpt lat="47.432624" lon="7.935687">
        <ele>585.179868</ele>
        <time>2021-11-18T22:07:10.420Z</time>
      </trkpt>
      <trkpt lat="47.432699" lon="7.935659">
        <ele>584.763249</ele>
        <time>2021-11-18T22:07:11.188Z</time>
      </trkpt>
      <trkpt lat="47.432772" lon="7.935614">
        <ele>584.337270</ele>
        <time>2021-11-18T22:07:11.869Z</time>
      </trkpt>
      <trkpt lat="47.432898" lon="7.935515">
        <ele>583.568758</ele>
        <time>2021-11-18T22:07:13.323Z</time>
      </trkpt>
      <trkpt lat="47.433050" lon="7.935392">
        <ele>582.635487</ele>
        <time>2021-11-18T22:07:14.993Z</time>
      </trkpt>
      <trkpt lat="47.433187" lon="7.935304">
        <ele>582.103128</ele>
        <time>2021-11-18T22:07:16.419Z</time>
      </trkpt>
      <trkpt lat="47.433385" lon="7.935078">
        <ele>581.887948</ele>
        <time>2021-11-18T22:07:19.110Z</time>
      </trkpt>
      <trkpt lat="47.433512" lon="7.934950">
        <ele>581.755729</ele>
        <time>2021-11-18T22:07:21.054Z</time>
      </trkpt>
      <trkpt lat="47.433620" lon="7.934930">
        <ele>581.662101</ele>
        <time>2021-11-18T22:07:23.438Z</time>
      </trkpt>
      <trkpt lat="47.434298" lon="7.934609">
        <ele>581.049707</ele>
        <time>2021-11-18T22:07:33.505Z</time>
      </trkpt>
      <trkpt lat="47.434567" lon="7.934576">
        <ele>580.817518</ele>
        <time>2021-11-18T22:07:37.990Z</time>
      </trkpt>
      <trkpt lat="47.434614" lon="7.934590">
        <ele>580.776276</ele>
        <time>2021-11-18T22:07:39.150Z</time>
      </trkpt>
      <trkpt lat="47.434668" lon="7.934617">
        <ele>580.727240</ele>
        <time>2021-11-18T22:07:40.670Z</time>
      </trkpt>
      <trkpt lat="47.434806" lon="7.934720">
        <ele>580.594436</ele>
        <time>2021-11-18T22:07:42.260Z</time>
      </trkpt>
      <trkpt lat="47.434953" lon="7.934914">
        <ele>580.427133</ele>
        <time>2021-11-18T22:07:46.577Z</time>
      </trkpt>
      <trkpt lat="47.435021" lon="7.934988">
        <ele>580.355444</ele>
        <time>2021-11-18T22:07:47.374Z</time>
      </trkpt>
      <trkpt lat="47.435108" lon="7.935067">
        <ele>580.268757</ele>
        <time>2021-11-18T22:07:48.798Z</time>
      </trkpt>
      <trkpt lat="47.435139" lon="7.935085">
        <ele>580.240480</ele>
        <time>2021-11-18T22:07:49.815Z</time>
      </trkpt>
      <trkpt lat="47.435218" lon="7.935133">
        <ele>580.167963</ele>
        <time>2021-11-18T22:07:51.249Z</time>
      </trkpt>
      <trkpt lat="47.435945" lon="7.935453">
        <ele>579.523941</ele>
        <time>2021-11-18T22:08:00.656Z</time>
      </trkpt>
      <trkpt lat="47.435987" lon="7.935459">
        <ele>579.488116</ele>
        <time>2021-11-18T22:08:01.213Z</time>
      </trkpt>
      <trkpt lat="47.436041" lon="7.935466">
        <ele>579.442093</ele>
        <time>2021-11-18T22:08:01.698Z</time>
      </trkpt>
      <trkpt lat="47.436379" lon="7.935508">
        <ele>579.154109</ele>
        <time>2021-11-18T22:08:05.941Z</time>
      </trkpt>
      <trkpt lat="47.436645" lon="7.935783">
        <ele>579.167606</ele>
        <time>2021-11-18T22:08:09.945Z</time>
      </trkpt>
      <trkpt lat="47.436754" lon="7.935830">
        <ele>579.209138</ele>
        <time>2021-11-18T22:08:11.096Z</time>
      </trkpt>
      <trkpt lat="47.436817" lon="7.935819">
        <ele>579.232342</ele>
        <time>2021-11-18T22:08:11.683Z</time>
      </trkpt>
      <trkpt lat="47.436959" lon="7.935813">
        <ele>579.284304</ele>
        <time>2021-11-18T22:08:15.150Z</time>
      </trkpt>
      <trkpt lat="47.437163" lon="7.935805">
        <ele>579.358950</ele>
        <time>2021-11-18T22:08:17.230Z</time>
      </trkpt>
      <trkpt lat="47.437455" lon="7.935929">
        <ele>579.470078</ele>
        <time>2021-11-18T22:08:22.107Z</time>
      </trkpt>
      <trkpt lat="47.438097" lon="7.936295">
        <ele>579.721764</ele>
        <time>2021-11-18T22:08:37.972Z</time>
      </trkpt>
      <trkpt lat="47.438488" lon="7.936601">
        <ele>580.650035</ele>
        <time>2021-11-18T22:08:49.536Z</time>
      </trkpt>
      <trkpt lat="47.438795" lon="7.937030">
        <ele>581.620681</ele>
        <time>2021-11-18T22:09:00.929Z</time>
      </trkpt>
      <trkpt lat="47.439053" lon="7.937594">
        <ele>582.678876</ele>
        <time>2021-11-18T22:09:11.903Z</time>
      </trkpt>
      <trkpt lat="47.439305" lon="7.937977">
        <ele>583.509296</ele>
        <time>2021-11-18T22:09:19.254Z</time>
      </trkpt>
      <trkpt lat="47.439513" lon="7.938183">
        <ele>584.155376</ele>
        <time>2021-11-18T22:09:24.383Z</time>
      </trkpt>
      <trkpt lat="47.439973" lon="7.938391">
        <ele>585.627847</ele>
        <time>2021-11-18T22:09:36.475Z</time>
      </trkpt>
      <trkpt lat="47.440111" lon="7.938384">
        <ele>586.050522</ele>
        <time>2021-11-18T22:09:39.138Z</time>
      </trkpt>
      <trkpt lat="47.440276" lon="7.938174">
        <ele>586.716956</ele>
        <time>2021-11-18T22:09:45.480Z</time>
      </trkpt>
      <trkpt lat="47.440493" lon="7.937497">
        <ele>588.268029</ele>
        <time>2021-11-18T22:09:58.876Z</time>
      </trkpt>
      <trkpt lat="47.440535" lon="7.937445">
        <ele>588.435717</ele>
        <time>2021-11-18T22:09:59.425Z</time>
      </trkpt>
      <trkpt lat="47.440583" lon="7.937384">
        <ele>588.629466</ele>
        <time>2021-11-18T22:10:04.026Z</time>
      </trkpt>
      <trkpt lat="47.440806" lon="7.937210">
        <ele>589.419001</ele>
        <time>2021-11-18T22:10:10.892Z</time>
      </trkpt>
      <trkpt lat="47.441000" lon="7.937143">
        <ele>590.474816</ele>
        <time>2021-11-18T22:10:18.885Z</time>
      </trkpt>
      <trkpt lat="47.441541" lon="7.937289">
        <ele>593.389312</ele>
        <time>2021-11-18T22:10:37.800Z</time>
      </trkpt>
      <trkpt lat="47.442638" lon="7.937187">
        <ele>599.027857</ele>
        <time>2021-11-18T22:11:22.075Z</time>
      </trkpt>
      <trkpt lat="47.443543" lon="7.937251">
        <ele>600.892334</ele>
        <time>2021-11-18T22:11:47.086Z</time>
      </trkpt>
      <trkpt lat="47.443821" lon="7.937284">
        <ele>601.466255</ele>
        <time>2021-11-18T22:11:52.673Z</time>
      </trkpt>
      <trkpt lat="47.444030" lon="7.937346">
        <ele>601.904915</ele>
        <time>2021-11-18T22:11:56.223Z</time>
      </trkpt>
      <trkpt lat="47.444304" lon="7.937471">
        <ele>602.494991</ele>
        <time>2021-11-18T22:12:00.094Z</time>
      </trkpt>
      <trkpt lat="47.444544" lon="7.937668">
        <ele>601.656952</ele>
        <time>2021-11-18T22:12:03.436Z</time>
      </trkpt>
      <trkpt lat="47.444935" lon="7.938269">
        <ele>599.192760</ele>
        <time>2021-11-18T22:12:09.149Z</time>
      </trkpt>
      <trkpt lat="47.445088" lon="7.938426">
        <ele>598.379071</ele>
        <time>2021-11-18T22:12:10.919Z</time>
      </trkpt>
      <trkpt lat="47.445739" lon="7.938730">
        <ele>595.396258</ele>
        <time>2021-11-18T22:12:17.187Z</time>
      </trkpt>
      <trkpt lat="47.445987" lon="7.938989">
        <ele>593.755613</ele>
        <time>2021-11-18T22:12:19.870Z</time>
      </trkpt>
      <trkpt lat="47.446136" lon="7.939210">
        <ele>592.409121</ele>
        <time>2021-11-18T22:12:21.763Z</time>
      </trkpt>
      <trkpt lat="47.446200" lon="7.939305">
        <ele>591.830537</ele>
        <time>2021-11-18T22:12:22.536Z</time>
      </trkpt>
      <trkpt lat="47.446350" lon="7.939484">
        <ele>590.600728</ele>
        <time>2021-11-18T22:12:24.368Z</time>
      </trkpt>
      <trkpt lat="47.446714" lon="7.939663">
        <ele>588.153277</ele>
        <time>2021-11-18T22:12:27.810Z</time>
      </trkpt>
      <trkpt lat="47.446911" lon="7.939640">
        <ele>586.892467</ele>
        <time>2021-11-18T22:12:29.558Z</time>
      </trkpt>
      <trkpt lat="47.447023" lon="7.939500">
        <ele>585.956774</ele>
        <time>2021-11-18T22:12:30.959Z</time>
      </trkpt>
      <trkpt lat="47.447088" lon="7.939400">
        <ele>585.358312</ele>
        <time>2021-11-18T22:12:31.764Z</time>
      </trkpt>
      <trkpt lat="47.447148" lon="7.939307">
        <ele>584.803729</ele>
        <time>2021-11-18T22:12:32.561Z</time>
      </trkpt>
      <trkpt lat="47.447375" lon="7.938987">
        <ele>583.175112</ele>
        <time>2021-11-18T22:12:35.451Z</time>
      </trkpt>
      <trkpt lat="47.447514" lon="7.938816">
        <ele>582.928469</ele>
        <time>2021-11-18T22:12:37.454Z</time>
      </trkpt>
      <trkpt lat="47.447579" lon="7.938758">
        <ele>582.824913</ele>
        <time>2021-11-18T22:12:38.183Z</time>
      </trkpt>
      <trkpt lat="47.447622" lon="7.938729">
        <ele>582.760446</ele>
        <time>2021-11-18T22:12:38.618Z</time>
      </trkpt>
      <trkpt lat="47.447884" lon="7.938706">
        <ele>582.402432</ele>
        <time>2021-11-18T22:12:41.866Z</time>
      </trkpt>
      <trkpt lat="47.448076" lon="7.938764">
        <ele>582.135122</ele>
        <time>2021-11-18T22:12:43.925Z</time>
      </trkpt>
      <trkpt lat="47.448323" lon="7.938940">
        <ele>581.761122</ele>
        <time>2021-11-18T22:12:47.087Z</time>
      </trkpt>
      <trkpt lat="47.448504" lon="7.939113">
        <ele>581.467142</ele>
        <time>2021-11-18T22:12:50.531Z</time>
      </trkpt>
      <trkpt lat="47.448566" lon="7.939145">
        <ele>581.377566</ele>
        <time>2021-11-18T22:12:52.193Z</time>
      </trkpt>
      <trkpt lat="47.448632" lon="7.939166">
        <ele>581.285477</ele>
        <time>2021-11-18T22:12:53.655Z</time>
      </trkpt>
      <trkpt lat="47.448737" lon="7.939187">
        <ele>581.140947</ele>
        <time>2021-11-18T22:12:55.470Z</time>
      </trkpt>
      <trkpt lat="47.448995" lon="7.939236">
        <ele>580.886860</ele>
        <time>2021-11-18T22:13:01.127Z</time>
      </trkpt>
      <trkpt lat="47.449095" lon="7.939194">
        <ele>581.133413</ele>
        <time>2021-11-18T22:13:02.946Z</time>
      </trkpt>
      <trkpt lat="47.449121" lon="7.939164">
        <ele>581.211629</ele>
        <time>2021-11-18T22:13:03.359Z</time>
      </trkpt>
      <trkpt lat="47.449215" lon="7.939276">
        <ele>581.497934</ele>
        <time>2021-11-18T22:13:06.380Z</time>
      </trkpt>
      <trkpt lat="47.449278" lon="7.939333">
        <ele>581.673101</ele>
        <time>2021-11-18T22:13:08.219Z</time>
      </trkpt>
      <trkpt lat="47.449351" lon="7.939383">
        <ele>581.863907</ele>
        <time>2021-11-18T22:13:10.278Z</time>
      </trkpt>
      <trkpt lat="47.449443" lon="7.939446">
        <ele>582.104365</ele>
        <time>2021-11-18T22:13:11.531Z</time>
      </trkpt>
      <trkpt lat="47.449589" lon="7.939535">
        <ele>582.478904</ele>
        <time>2021-11-18T22:13:16.432Z</time>
      </trkpt>
      <trkpt lat="47.449814" lon="7.939672">
        <ele>583.056007</ele>
        <time>2021-11-18T22:13:21.143Z</time>
      </trkpt>
      <trkpt lat="47.449913" lon="7.939726">
        <ele>583.306271</ele>
        <time>2021-11-18T22:13:25.300Z</time>
      </trkpt>
      <trkpt lat="47.450248" lon="7.939948">
        <ele>584.176929</ele>
        <time>2021-11-18T22:13:34.661Z</time>
      </trkpt>
      <trkpt lat="47.450383" lon="7.940114">
        <ele>584.593340</ele>
        <time>2021-11-18T22:13:38.641Z</time>
      </trkpt>
      <trkpt lat="47.450538" lon="7.940621">
        <ele>585.749601</ele>
        <time>2021-11-18T22:13:48.724Z</time>
      </trkpt>
      <trkpt lat="47.450568" lon="7.940770">
        <ele>586.164702</ele>
        <time>2021-11-18T22:13:51.950Z</time>
      </trkpt>
      <trkpt lat="47.450565" lon="7.940916">
        <ele>586.554711</ele>
        <time>2021-11-18T22:13:55.390Z</time>
      </trkpt>
      <trkpt lat="47.450557" lon="7.941072">
        <ele>586.972438</ele>
        <time>2021-11-18T22:13:57.622Z</time>
      </trkpt>
      <trkpt lat="47.450585" lon="7.941257">
        <ele>587.478622</ele>
        <time>2021-11-18T22:14:01.004Z</time>
      </trkpt>
      <trkpt lat="47.450601" lon="7.941306">
        <ele>587.623909</ele>
        <time>2021-11-18T22:14:02.150Z</time>
      </trkpt>
      <trkpt lat="47.450637" lon="7.941376">
        <ele>587.858726</ele>
        <time>2021-11-18T22:14:04.427Z</time>
      </trkpt>
      <trkpt lat="47.450769" lon="7.941529">
        <ele>588.520947</ele>
        <time>2021-11-18T22:14:08.808Z</time>
      </trkpt>
      <trkpt lat="47.451074" lon="7.941649">
        <ele>589.767129</ele>
        <time>2021-11-18T22:14:17.768Z</time>
      </trkpt>
      <trkpt lat="47.451110" lon="7.941681">
        <ele>589.932977</ele>
        <time>2021-11-18T22:14:19.458Z</time>
      </trkpt>
      <trkpt lat="47.451135" lon="7.941726">
        <ele>590.088478</ele>
        <time>2021-11-18T22:14:20.509Z</time>
      </trkpt>
      <trkpt lat="47.451213" lon="7.942012">
        <ele>590.911876</ele>
        <time>2021-11-18T22:14:28.110Z</time>
      </trkpt>
      <trkpt lat="47.451290" lon="7.942344">
        <ele>591.849016</ele>
        <time>2021-11-18T22:14:36.509Z</time>
      </trkpt>
      <trkpt lat="47.451325" lon="7.942609">
        <ele>592.657339</ele>
        <time>2021-11-18T22:14:43.075Z</time>
      </trkpt>
      <trkpt lat="47.451365" lon="7.943156">
        <ele>594.464890</ele>
        <time>2021-11-18T22:14:56.661Z</time>
      </trkpt>
      <trkpt lat="47.451395" lon="7.943371">
        <ele>595.186116</ele>
        <time>2021-11-18T22:15:02.173Z</time>
      </trkpt>
      <trkpt lat="47.451407" lon="7.943431">
        <ele>595.391677</ele>
        <time>2021-11-18T22:15:03.639Z</time>
      </trkpt>
      <trkpt lat="47.451423" lon="7.943479">
        <ele>595.567491</ele>
        <time>2021-11-18T22:15:04.848Z</time>
      </trkpt>
      <trkpt lat="47.451442" lon="7.943512">
        <ele>595.709881</ele>
        <time>2021-11-18T22:15:06.348Z</time>
      </trkpt>
      <trkpt lat="47.451644" lon="7.943673">
        <ele>596.824741</ele>
        <time>2021-11-18T22:15:13.785Z</time>
      </trkpt>
      <trkpt lat="47.451676" lon="7.943686">
        <ele>596.985969</ele>
        <time>2021-11-18T22:15:15.227Z</time>
      </trkpt>
      <trkpt lat="47.451846" lon="7.943751">
        <ele>597.839057</ele>
        <time>2021-11-18T22:15:21.093Z</time>
      </trkpt>
      <trkpt lat="47.451953" lon="7.943794">
        <ele>598.377758</ele>
        <time>2021-11-18T22:15:24.310Z</time>
      </trkpt>
      <trkpt lat="47.451977" lon="7.943811">
        <ele>598.507046</ele>
        <time>2021-11-18T22:15:25.230Z</time>
      </trkpt>
      <trkpt lat="47.452015" lon="7.943844">
        <ele>598.721144</ele>
        <time>2021-11-18T22:15:26.859Z</time>
      </trkpt>
      <trkpt lat="47.452054" lon="7.943901">
        <ele>598.987543</ele>
        <time>2021-11-18T22:15:28.749Z</time>
      </trkpt>
      <trkpt lat="47.452112" lon="7.944014">
        <ele>599.453612</ele>
        <time>2021-11-18T22:15:32.199Z</time>
      </trkpt>
      <trkpt lat="47.452156" lon="7.944137">
        <ele>599.910762</ele>
        <time>2021-11-18T22:15:34.675Z</time>
      </trkpt>
      <trkpt lat="47.452182" lon="7.944245">
        <ele>600.287387</ele>
        <time>2021-11-18T22:15:37.174Z</time>
      </trkpt>
      <trkpt lat="47.452197" lon="7.944338">
        <ele>600.601488</ele>
        <time>2021-11-18T22:15:39.551Z</time>
      </trkpt>
      <trkpt lat="47.452205" lon="7.944436">
        <ele>600.925783</ele>
        <time>2021-11-18T22:15:42.135Z</time>
      </trkpt>
      <trkpt lat="47.452196" lon="7.944620">
        <ele>601.397528</ele>
        <time>2021-11-18T22:15:45.397Z</time>
      </trkpt>
      <trkpt lat="47.452193" lon="7.944664">
        <ele>601.510430</ele>
        <time>2021-11-18T22:15:46.222Z</time>
      </trkpt>
      <trkpt lat="47.452130" lon="7.945001">
        <ele>602.403061</ele>
        <time>2021-11-18T22:15:54.509Z</time>
      </trkpt>
      <trkpt lat="47.452004" lon="7.945500">
        <ele>603.762926</ele>
        <time>2021-11-18T22:16:05.909Z</time>
      </trkpt>
      <trkpt lat="47.451848" lon="7.945864">
        <ele>604.863141</ele>
        <time>2021-11-18T22:16:14.628Z</time>
      </trkpt>
      <trkpt lat="47.451666" lon="7.946053">
        <ele>605.702771</ele>
        <time>2021-11-18T22:16:19.953Z</time>
      </trkpt>
      <trkpt lat="47.451393" lon="7.946246">
        <ele>606.845195</ele>
        <time>2021-11-18T22:16:28.500Z</time>
      </trkpt>
      <trkpt lat="47.451332" lon="7.946292">
        <ele>607.103713</ele>
        <time>2021-11-18T22:16:30.458Z</time>
      </trkpt>
      <trkpt lat="47.451170" lon="7.946404">
        <ele>607.779983</ele>
        <time>2021-11-18T22:16:35.946Z</time>
      </trkpt>
      <trkpt lat="47.451058" lon="7.946540">
        <ele>608.337381</ele>
        <time>2021-11-18T22:16:39.365Z</time>
      </trkpt>
      <trkpt lat="47.450994" lon="7.946647">
        <ele>608.708924</ele>
        <time>2021-11-18T22:16:42.689Z</time>
      </trkpt>
      <trkpt lat="47.450764" lon="7.947491">
        <ele>611.075651</ele>
        <time>2021-11-18T22:17:00.700Z</time>
      </trkpt>
      <trkpt lat="47.450665" lon="7.947928">
        <ele>612.274345</ele>
        <time>2021-11-18T22:17:10.671Z</time>
      </trkpt>
      <trkpt lat="47.450637" lon="7.948032">
        <ele>612.565493</ele>
        <time>2021-11-18T22:17:13.020Z</time>
      </trkpt>
      <trkpt lat="47.450592" lon="7.948134">
        <ele>612.882256</ele>
        <time>2021-11-18T22:17:16.033Z</time>
      </trkpt>
      <trkpt lat="47.450567" lon="7.948175">
        <ele>613.025845</ele>
        <time>2021-11-18T22:17:17.133Z</time>
      </trkpt>
      <trkpt lat="47.450539" lon="7.948213">
        <ele>613.172018</ele>
        <time>2021-11-18T22:17:18.378Z</time>
      </trkpt>
      <trkpt lat="47.450205" lon="7.948459">
        <ele>614.607187</ele>
        <time>2021-11-18T22:17:30.277Z</time>
      </trkpt>
      <trkpt lat="47.450135" lon="7.948495">
        <ele>614.792085</ele>
        <time>2021-11-18T22:17:32.469Z</time>
      </trkpt>
      <trkpt lat="47.450004" lon="7.948575">
        <ele>615.122478</ele>
        <time>2021-11-18T22:17:36.668Z</time>
      </trkpt>
      <trkpt lat="47.449791" lon="7.948794">
        <ele>615.727232</ele>
        <time>2021-11-18T22:17:44.252Z</time>
      </trkpt>
      <trkpt lat="47.449549" lon="7.949269">
        <ele>616.664746</ele>
        <time>2021-11-18T22:17:55.484Z</time>
      </trkpt>
      <trkpt lat="47.449418" lon="7.949404">
        <ele>617.036963</ele>
        <time>2021-11-18T22:17:59.004Z</time>
      </trkpt>
      <trkpt lat="47.448451" lon="7.949520">
        <ele>618.568558</ele>
        <time>2021-11-18T22:18:18.811Z</time>
      </trkpt>
      <trkpt lat="47.448314" lon="7.949566">
        <ele>618.384894</ele>
        <time>2021-11-18T22:18:20.720Z</time>
      </trkpt>
      <trkpt lat="47.448162" lon="7.949710">
        <ele>618.148896</ele>
        <time>2021-11-18T22:18:22.703Z</time>
      </trkpt>
      <trkpt lat="47.447993" lon="7.950057">
        <ele>617.770837</ele>
        <time>2021-11-18T22:18:25.984Z</time>
      </trkpt>
      <trkpt lat="47.447781" lon="7.951149">
        <ele>616.766407</ele>
        <time>2021-11-18T22:18:34.546Z</time>
      </trkpt>
      <trkpt lat="47.447641" lon="7.951415">
        <ele>616.447557</ele>
        <time>2021-11-18T22:18:37.142Z</time>
      </trkpt>
      <trkpt lat="47.447587" lon="7.951456">
        <ele>616.218131</ele>
        <time>2021-11-18T22:18:37.676Z</time>
      </trkpt>
      <trkpt lat="47.447532" lon="7.951475">
        <ele>616.004661</ele>
        <time>2021-11-18T22:18:38.349Z</time>
      </trkpt>
      <trkpt lat="47.446999" lon="7.951346">
        <ele>613.963373</ele>
        <time>2021-11-18T22:18:43.961Z</time>
      </trkpt>
      <trkpt lat="47.446952" lon="7.951343">
        <ele>613.785571</ele>
        <time>2021-11-18T22:18:44.418Z</time>
      </trkpt>
      <trkpt lat="47.446713" lon="7.951341">
        <ele>612.882252</ele>
        <time>2021-11-18T22:18:46.693Z</time>
      </trkpt>
      <trkpt lat="47.446253" lon="7.951461">
        <ele>611.116826</ele>
        <time>2021-11-18T22:18:51.171Z</time>
      </trkpt>
      <trkpt lat="47.446082" lon="7.951692">
        <ele>610.241428</ele>
        <time>2021-11-18T22:18:53.350Z</time>
      </trkpt>
      <trkpt lat="47.445906" lon="7.952081">
        <ele>608.904761</ele>
        <time>2021-11-18T22:18:56.486Z</time>
      </trkpt>
      <trkpt lat="47.445832" lon="7.952260">
        <ele>608.250211</ele>
        <time>2021-11-18T22:18:57.851Z</time>
      </trkpt>
      <trkpt lat="47.445733" lon="7.952446">
        <ele>607.511728</ele>
        <time>2021-11-18T22:18:59.383Z</time>
      </trkpt>
      <trkpt lat="47.445277" lon="7.952896">
        <ele>604.982562</ele>
        <time>2021-11-18T22:19:04.657Z</time>
      </trkpt>
      <trkpt lat="47.445190" lon="7.953050">
        <ele>604.356502</ele>
        <time>2021-11-18T22:19:05.944Z</time>
      </trkpt>
      <trkpt lat="47.445043" lon="7.953752">
        <ele>602.063680</ele>
        <time>2021-11-18T22:19:10.692Z</time>
      </trkpt>
      <trkpt lat="47.444431" lon="7.955161">
        <ele>595.321352</ele>
        <time>2021-11-18T22:19:21.239Z</time>
      </trkpt>
      <trkpt lat="47.444374" lon="7.955426">
        <ele>594.163996</ele>
        <time>2021-11-18T22:19:22.937Z</time>
      </trkpt>
      <trkpt lat="47.444371" lon="7.955878">
        <ele>592.282699</ele>
        <time>2021-11-18T22:19:25.705Z</time>
      </trkpt>
      <trkpt lat="47.444384" lon="7.956138">
        <ele>591.197637</ele>
        <time>2021-11-18T22:19:27.286Z</time>
      </trkpt>
      <trkpt lat="47.444409" lon="7.956577">
        <ele>589.002645</ele>
        <time>2021-11-18T22:19:29.928Z</time>
      </trkpt>
      <trkpt lat="47.444407" lon="7.957243">
        <ele>585.177080</ele>
        <time>2021-11-18T22:19:33.920Z</time>
      </trkpt>
      <trkpt lat="47.444188" lon="7.958233">
        <ele>579.194005</ele>
        <time>2021-11-18T22:19:40.010Z</time>
      </trkpt>
      <trkpt lat="47.443914" lon="7.958964">
        <ele>574.559327</ele>
        <time>2021-11-18T22:19:44.946Z</time>
      </trkpt>
      <trkpt lat="47.443720" lon="7.959271">
        <ele>572.766847</ele>
        <time>2021-11-18T22:19:47.458Z</time>
      </trkpt>
      <trkpt lat="47.443571" lon="7.959413">
        <ele>571.648629</ele>
        <time>2021-11-18T22:19:49.118Z</time>
      </trkpt>
      <trkpt lat="47.443496" lon="7.959438">
        <ele>571.163651</ele>
        <time>2021-11-18T22:19:49.756Z</time>
      </trkpt>
      <trkpt lat="47.443343" lon="7.959453">
        <ele>570.196400</ele>
        <time>2021-11-18T22:19:51.188Z</time>
      </trkpt>
      <trkpt lat="47.442504" lon="7.959467">
        <ele>564.903604</ele>
        <time>2021-11-18T22:19:59.002Z</time>
      </trkpt>
      <trkpt lat="47.442431" lon="7.959459">
        <ele>564.441853</ele>
        <time>2021-11-18T22:19:59.621Z</time>
      </trkpt>
      <trkpt lat="47.442302" lon="7.959406">
        <ele>563.680704</ele>
        <time>2021-11-18T22:20:00.959Z</time>
      </trkpt>
      <trkpt lat="47.442137" lon="7.959350">
        <ele>563.547493</ele>
        <time>2021-11-18T22:20:02.812Z</time>
      </trkpt>
      <trkpt lat="47.442070" lon="7.959339">
        <ele>563.494448</ele>
        <time>2021-11-18T22:20:03.379Z</time>
      </trkpt>
      <trkpt lat="47.441658" lon="7.959533">
        <ele>563.154213</ele>
        <time>2021-11-18T22:20:08.255Z</time>
      </trkpt>
      <trkpt lat="47.441281" lon="7.960073">
        <ele>562.741183</ele>
        <time>2021-11-18T22:20:18.056Z</time>
      </trkpt>
      <trkpt lat="47.441074" lon="7.960255">
        <ele>562.551676</ele>
        <time>2021-11-18T22:20:21.563Z</time>
      </trkpt>
      <trkpt lat="47.440869" lon="7.960279">
        <ele>562.389862</ele>
        <time>2021-11-18T22:20:26.410Z</time>
      </trkpt>
      <trkpt lat="47.440544" lon="7.960192">
        <ele>562.453362</ele>
        <time>2021-11-18T22:20:33.484Z</time>
      </trkpt>
      <trkpt lat="47.440419" lon="7.960172">
        <ele>562.571609</ele>
        <time>2021-11-18T22:20:35.569Z</time>
      </trkpt>
      <trkpt lat="47.440324" lon="7.960176">
        <ele>562.660992</ele>
        <time>2021-11-18T22:20:37.344Z</time>
      </trkpt>
      <trkpt lat="47.440264" lon="7.960181">
        <ele>562.717511</ele>
        <time>2021-11-18T22:20:38.652Z</time>
      </trkpt>
      <trkpt lat="47.440212" lon="7.960199">
        <ele>562.767739</ele>
        <time>2021-11-18T22:20:41.179Z</time>
      </trkpt>
      <trkpt lat="47.439964" lon="7.960470">
        <ele>563.057772</ele>
        <time>2021-11-18T22:20:46.556Z</time>
      </trkpt>
      <trkpt lat="47.439936" lon="7.960525">
        <ele>563.101561</ele>
        <time>2021-11-18T22:20:48.899Z</time>
      </trkpt>
      <trkpt lat="47.439909" lon="7.960605">
        <ele>563.158434</ele>
        <time>2021-11-18T22:20:49.547Z</time>
      </trkpt>
      <trkpt lat="47.439858" lon="7.960872">
        <ele>563.334919</ele>
        <time>2021-11-18T22:20:53.086Z</time>
      </trkpt>
      <trkpt lat="47.439862" lon="7.961119">
        <ele>563.492084</ele>
        <time>2021-11-18T22:20:57.204Z</time>
      </trkpt>
      <trkpt lat="47.440011" lon="7.962659">
        <ele>563.064219</ele>
        <time>2021-11-18T22:21:11.653Z</time>
      </trkpt>
      <trkpt lat="47.440007" lon="7.962723">
        <ele>562.992088</ele>
        <time>2021-11-18T22:21:12.062Z</time>
      </trkpt>
      <trkpt lat="47.439994" lon="7.962853">
        <ele>562.844607</ele>
        <time>2021-11-18T22:21:13.132Z</time>
      </trkpt>
      <trkpt lat="47.439978" lon="7.962938">
        <ele>562.745588</ele>
        <time>2021-11-18T22:21:13.864Z</time>
      </trkpt>
      <trkpt lat="47.439934" lon="7.963205">
        <ele>562.437176</ele>
        <time>2021-11-18T22:21:15.675Z</time>
      </trkpt>
      <trkpt lat="47.439904" lon="7.963387">
        <ele>562.226944</ele>
        <time>2021-11-18T22:21:17.070Z</time>
      </trkpt>
      <trkpt lat="47.439896" lon="7.963430">
        <ele>562.176894</ele>
        <time>2021-11-18T22:21:17.426Z</time>
      </trkpt>
      <trkpt lat="47.439883" lon="7.963536">
        <ele>562.055993</ele>
        <time>2021-11-18T22:21:18.262Z</time>
      </trkpt>
      <trkpt lat="47.439879" lon="7.963594">
        <ele>561.990564</ele>
        <time>2021-11-18T22:21:18.596Z</time>
      </trkpt>
      <trkpt lat="47.439896" lon="7.964753">
        <ele>561.374680</ele>
        <time>2021-11-18T22:21:26.997Z</time>
      </trkpt>
      <trkpt lat="47.439676" lon="7.965961">
        <ele>563.232512</ele>
        <time>2021-11-18T22:21:40.813Z</time>
      </trkpt>
      <trkpt lat="47.439678" lon="7.966197">
        <ele>563.583012</ele>
        <time>2021-11-18T22:21:44.568Z</time>
      </trkpt>
      <trkpt lat="47.439608" lon="7.966261">
        <ele>563.763719</ele>
        <time>2021-11-18T22:21:49.692Z</time>
      </trkpt>
      <trkpt lat="47.439636" lon="7.966350">
        <ele>563.909487</ele>
        <time>2021-11-18T22:21:51.812Z</time>
      </trkpt>
      <trkpt lat="47.439683" lon="7.966530">
        <ele>564.196024</ele>
        <time>2021-11-18T22:21:57.075Z</time>
      </trkpt>
      <trkpt lat="47.439705" lon="7.966829">
        <ele>564.642674</ele>
        <time>2021-11-18T22:22:06.059Z</time>
      </trkpt>
      <trkpt lat="47.440032" lon="7.967141">
        <ele>566.654021</ele>
        <time>2021-11-18T22:22:24.333Z</time>
      </trkpt>
      <trkpt lat="47.440140" lon="7.967410">
        <ele>568.072187</ele>
        <time>2021-11-18T22:22:32.336Z</time>
      </trkpt>
      <trkpt lat="47.440168" lon="7.967496">
        <ele>568.504883</ele>
        <time>2021-11-18T22:22:38.861Z</time>
      </trkpt>
      <trkpt lat="47.440222" lon="7.967666">
        <ele>569.356329</ele>
        <time>2021-11-18T22:22:44.200Z</time>
      </trkpt>
      <trkpt lat="47.440236" lon="7.967765">
        <ele>569.814844</ele>
        <time>2021-11-18T22:22:47.458Z</time>
      </trkpt>
      <trkpt lat="47.440279" lon="7.967868">
        <ele>570.363574</ele>
        <time>2021-11-18T22:22:49.669Z</time>
      </trkpt>
      <trkpt lat="47.440311" lon="7.967907">
        <ele>570.641539</ele>
        <time>2021-11-18T22:22:52.164Z</time>
      </trkpt>
      <trkpt lat="47.440346" lon="7.967943">
        <ele>570.927318</ele>
        <time>2021-11-18T22:22:56.920Z</time>
      </trkpt>
      <trkpt lat="47.440903" lon="7.968542">
        <ele>575.543846</ele>
        <time>2021-11-18T22:23:28.614Z</time>
      </trkpt>
      <trkpt lat="47.440924" lon="7.968564">
        <ele>575.716355</ele>
        <time>2021-11-18T22:23:31.457Z</time>
      </trkpt>
      <trkpt lat="47.441040" lon="7.968675">
        <ele>576.642499</ele>
        <time>2021-11-18T22:23:36.447Z</time>
      </trkpt>
      <trkpt lat="47.441410" lon="7.968944">
        <ele>578.086281</ele>
        <time>2021-11-18T22:23:54.451Z</time>
      </trkpt>
      <trkpt lat="47.442104" lon="7.969027">
        <ele>580.204466</ele>
        <time>2021-11-18T22:24:16.373Z</time>
      </trkpt>
      <trkpt lat="47.442199" lon="7.969071">
        <ele>580.507323</ele>
        <time>2021-11-18T22:24:18.586Z</time>
      </trkpt>
      <trkpt lat="47.442241" lon="7.969147">
        <ele>580.709260</ele>
        <time>2021-11-18T22:24:20.477Z</time>
      </trkpt>
      <trkpt lat="47.442561" lon="7.969634">
        <ele>582.106313</ele>
        <time>2021-11-18T22:24:32.687Z</time>
      </trkpt>
      <trkpt lat="47.443374" lon="7.970411">
        <ele>584.651516</ele>
        <time>2021-11-18T22:24:56.786Z</time>
      </trkpt>
      <trkpt lat="47.443429" lon="7.970445">
        <ele>584.804878</ele>
        <time>2021-11-18T22:24:58.947Z</time>
      </trkpt>
      <trkpt lat="47.443590" lon="7.970528">
        <ele>585.243522</ele>
        <time>2021-11-18T22:25:04.662Z</time>
      </trkpt>
      <trkpt lat="47.444104" lon="7.970764">
        <ele>586.628130</ele>
        <time>2021-11-18T22:25:21.995Z</time>
      </trkpt>
      <trkpt lat="47.444521" lon="7.970699">
        <ele>588.688984</ele>
        <time>2021-11-18T22:25:37.804Z</time>
      </trkpt>
      <trkpt lat="47.444764" lon="7.970787">
        <ele>590.354763</ele>
        <time>2021-11-18T22:25:47.466Z</time>
      </trkpt>
      <trkpt lat="47.444788" lon="7.970798">
        <ele>590.522062</ele>
        <time>2021-11-18T22:25:48.812Z</time>
      </trkpt>
      <trkpt lat="47.444939" lon="7.970868">
        <ele>591.575715</ele>
        <time>2021-11-18T22:25:56.262Z</time>
      </trkpt>
      <trkpt lat="47.445316" lon="7.970995">
        <ele>594.150203</ele>
        <time>2021-11-18T22:26:14.089Z</time>
      </trkpt>
      <trkpt lat="47.446016" lon="7.971038">
        <ele>598.815014</ele>
        <time>2021-11-18T22:26:50.999Z</time>
      </trkpt>
      <trkpt lat="47.446397" lon="7.971218">
        <ele>602.671514</ele>
        <time>2021-11-18T22:27:14.491Z</time>
      </trkpt>
      <trkpt lat="47.446928" lon="7.971336">
        <ele>608.014287</ele>
        <time>2021-11-18T22:27:46.013Z</time>
      </trkpt>
      <trkpt lat="47.447428" lon="7.971552">
        <ele>613.197243</ele>
        <time>2021-11-18T22:28:18.241Z</time>
      </trkpt>
      <trkpt lat="47.447757" lon="7.971807">
        <ele>616.893219</ele>
        <time>2021-11-18T22:28:42.020Z</time>
      </trkpt>
      <trkpt lat="47.447894" lon="7.971848">
        <ele>618.389710</ele>
        <time>2021-11-18T22:28:51.006Z</time>
      </trkpt>
      <trkpt lat="47.448170" lon="7.971825">
        <ele>621.359991</ele>
        <time>2021-11-18T22:29:08.639Z</time>
      </trkpt>
      <trkpt lat="47.448651" lon="7.971475">
        <ele>627.120093</ele>
        <time>2021-11-18T22:29:42.339Z</time>
      </trkpt>
      <trkpt lat="47.448844" lon="7.971441">
        <ele>629.208511</ele>
        <time>2021-11-18T22:29:54.459Z</time>
      </trkpt>
      <trkpt lat="47.449465" lon="7.971500">
        <ele>635.894814</ele>
        <time>2021-11-18T22:30:33.533Z</time>
      </trkpt>
      <trkpt lat="47.450790" lon="7.971814">
        <ele>650.451100</ele>
        <time>2021-11-18T22:32:00.304Z</time>
      </trkpt>
      <trkpt lat="47.450970" lon="7.971918">
        <ele>652.547938</ele>
        <time>2021-11-18T22:32:11.812Z</time>
      </trkpt>
      <trkpt lat="47.451062" lon="7.971977">
        <ele>653.635993</ele>
        <time>2021-11-18T22:32:18.663Z</time>
      </trkpt>
      <trkpt lat="47.451297" lon="7.972061">
        <ele>656.124212</ele>
        <time>2021-11-18T22:32:33.333Z</time>
      </trkpt>
      <trkpt lat="47.451398" lon="7.972095">
        <ele>656.915633</ele>
        <time>2021-11-18T22:32:40.274Z</time>
      </trkpt>
      <trkpt lat="47.451536" lon="7.972159">
        <ele>658.020638</ele>
        <time>2021-11-18T22:32:49.047Z</time>
      </trkpt>
      <trkpt lat="47.451819" lon="7.972254">
        <ele>660.237875</ele>
        <time>2021-11-18T22:33:08.002Z</time>
      </trkpt>
      <trkpt lat="47.451926" lon="7.972277">
        <ele>661.063987</ele>
        <time>2021-11-18T22:33:14.752Z</time>
      </trkpt>
      <trkpt lat="47.452000" lon="7.972290">
        <ele>661.633351</ele>
        <time>2021-11-18T22:33:19.474Z</time>
      </trkpt>
      <trkpt lat="47.452327" lon="7.972249">
        <ele>664.140720</ele>
        <time>2021-11-18T22:33:37.771Z</time>
      </trkpt>
      <trkpt lat="47.452392" lon="7.972241">
        <ele>664.639062</ele>
        <time>2021-11-18T22:33:40.961Z</time>
      </trkpt>
      <trkpt lat="47.452457" lon="7.972253">
        <ele>665.139542</ele>
        <time>2021-11-18T22:33:44.808Z</time>
      </trkpt>
      <trkpt lat="47.452590" lon="7.972400">
        <ele>666.408160</ele>
        <time>2021-11-18T22:33:50.813Z</time>
      </trkpt>
      <trkpt lat="47.452604" lon="7.972434">
        <ele>666.613824</ele>
        <time>2021-11-18T22:33:52.369Z</time>
      </trkpt>
      <trkpt lat="47.452632" lon="7.972494">
        <ele>666.990464</ele>
        <time>2021-11-18T22:33:54.490Z</time>
      </trkpt>
      <trkpt lat="47.452678" lon="7.972645">
        <ele>667.846107</ele>
        <time>2021-11-18T22:33:58.633Z</time>
      </trkpt>
      <trkpt lat="47.452694" lon="7.972755">
        <ele>668.427412</ele>
        <time>2021-11-18T22:34:01.185Z</time>
      </trkpt>
      <trkpt lat="47.452732" lon="7.972948">
        <ele>669.465939</ele>
        <time>2021-11-18T22:34:06.043Z</time>
      </trkpt>
      <trkpt lat="47.452786" lon="7.973138">
        <ele>669.265409</ele>
        <time>2021-11-18T22:34:09.930Z</time>
      </trkpt>
      <trkpt lat="47.452857" lon="7.973400">
        <ele>668.851576</ele>
        <time>2021-11-18T22:34:14.526Z</time>
      </trkpt>
      <trkpt lat="47.453246" lon="7.974631">
        <ele>666.859387</ele>
        <time>2021-11-18T22:34:29.953Z</time>
      </trkpt>
      <trkpt lat="47.453515" lon="7.975833">
        <ele>663.643861</ele>
        <time>2021-11-18T22:34:40.932Z</time>
      </trkpt>
      <trkpt lat="47.453777" lon="7.976317">
        <ele>660.810861</ele>
        <time>2021-11-18T22:34:46.294Z</time>
      </trkpt>
      <trkpt lat="47.453844" lon="7.976390">
        <ele>660.248490</ele>
        <time>2021-11-18T22:34:47.277Z</time>
      </trkpt>
      <trkpt lat="47.453933" lon="7.976479">
        <ele>659.522469</ele>
        <time>2021-11-18T22:34:48.723Z</time>
      </trkpt>
      <trkpt lat="47.454134" lon="7.976602">
        <ele>658.052493</ele>
        <time>2021-11-18T22:34:51.536Z</time>
      </trkpt>
      <trkpt lat="47.454265" lon="7.976677">
        <ele>657.103220</ele>
        <time>2021-11-18T22:34:53.348Z</time>
      </trkpt>
      <trkpt lat="47.454341" lon="7.976719">
        <ele>656.554953</ele>
        <time>2021-11-18T22:34:54.469Z</time>
      </trkpt>
      <trkpt lat="47.454411" lon="7.976750">
        <ele>656.061164</ele>
        <time>2021-11-18T22:34:55.464Z</time>
      </trkpt>
      <trkpt lat="47.454585" lon="7.976812">
        <ele>654.851685</ele>
        <time>2021-11-18T22:34:57.695Z</time>
      </trkpt>
      <trkpt lat="47.454937" lon="7.976997">
        <ele>652.510242</ele>
        <time>2021-11-18T22:35:02.569Z</time>
      </trkpt>
      <trkpt lat="47.455120" lon="7.977318">
        <ele>650.893505</ele>
        <time>2021-11-18T22:35:06.239Z</time>
      </trkpt>
      <trkpt lat="47.455241" lon="7.977427">
        <ele>650.086680</ele>
        <time>2021-11-18T22:35:08.211Z</time>
      </trkpt>
      <trkpt lat="47.455514" lon="7.977466">
        <ele>648.524785</ele>
        <time>2021-11-18T22:35:12.056Z</time>
      </trkpt>
      <trkpt lat="47.456570" lon="7.977395">
        <ele>641.974386</ele>
        <time>2021-11-18T22:35:26.179Z</time>
      </trkpt>
      <trkpt lat="47.456742" lon="7.977427">
        <ele>640.282132</ele>
        <time>2021-11-18T22:35:28.415Z</time>
      </trkpt>
      <trkpt lat="47.456898" lon="7.977540">
        <ele>638.586460</ele>
        <time>2021-11-18T22:35:30.598Z</time>
      </trkpt>
      <trkpt lat="47.456992" lon="7.977705">
        <ele>637.162366</ele>
        <time>2021-11-18T22:35:32.368Z</time>
      </trkpt>
      <trkpt lat="47.457085" lon="7.977871">
        <ele>635.739466</ele>
        <time>2021-11-18T22:35:34.162Z</time>
      </trkpt>
      <trkpt lat="47.457110" lon="7.977916">
        <ele>635.355051</ele>
        <time>2021-11-18T22:35:34.632Z</time>
      </trkpt>
      <trkpt lat="47.457110" lon="7.978373">
        <ele>632.338699</ele>
        <time>2021-11-18T22:35:38.413Z</time>
      </trkpt>
      <trkpt lat="47.457042" lon="7.978555">
        <ele>630.966235</ele>
        <time>2021-11-18T22:35:40.129Z</time>
      </trkpt>
      <trkpt lat="47.456782" lon="7.978878">
        <ele>627.651602</ele>
        <time>2021-11-18T22:35:44.193Z</time>
      </trkpt>
      <trkpt lat="47.456614" lon="7.979184">
        <ele>624.854830</ele>
        <time>2021-11-18T22:35:47.339Z</time>
      </trkpt>
      <trkpt lat="47.456505" lon="7.979439">
        <ele>622.256650</ele>
        <time>2021-11-18T22:35:49.748Z</time>
      </trkpt>
      <trkpt lat="47.456421" lon="7.979584">
        <ele>620.612203</ele>
        <time>2021-11-18T22:35:51.295Z</time>
      </trkpt>
      <trkpt lat="47.456172" lon="7.979922">
        <ele>616.307250</ele>
        <time>2021-11-18T22:35:55.265Z</time>
      </trkpt>
      <trkpt lat="47.456098" lon="7.980227">
        <ele>613.516494</ele>
        <time>2021-11-18T22:35:57.875Z</time>
      </trkpt>
      <trkpt lat="47.456077" lon="7.980374">
        <ele>612.222529</ele>
        <time>2021-11-18T22:35:59.052Z</time>
      </trkpt>
      <trkpt lat="47.456097" lon="7.980620">
        <ele>610.088629</ele>
        <time>2021-11-18T22:36:01.108Z</time>
      </trkpt>
      <trkpt lat="47.456103" lon="7.980786">
        <ele>608.656936</ele>
        <time>2021-11-18T22:36:02.419Z</time>
      </trkpt>
      <trkpt lat="47.456079" lon="7.981037">
        <ele>606.473727</ele>
        <time>2021-11-18T22:36:04.461Z</time>
      </trkpt>
      <trkpt lat="47.456013" lon="7.981179">
        <ele>604.989702</ele>
        <time>2021-11-18T22:36:05.850Z</time>
      </trkpt>
      <trkpt lat="47.455743" lon="7.981220">
        <ele>601.827492</ele>
        <time>2021-11-18T22:36:09.075Z</time>
      </trkpt>
      <trkpt lat="47.455530" lon="7.981236">
        <ele>599.753143</ele>
        <time>2021-11-18T22:36:11.619Z</time>
      </trkpt>
      <trkpt lat="47.455072" lon="7.981206">
        <ele>595.294180</ele>
        <time>2021-11-18T22:36:17.186Z</time>
      </trkpt>
      <trkpt lat="47.454809" lon="7.981240">
        <ele>592.726437</ele>
        <time>2021-11-18T22:36:20.392Z</time>
      </trkpt>
      <trkpt lat="47.454706" lon="7.981330">
        <ele>591.562849</ele>
        <time>2021-11-18T22:36:21.928Z</time>
      </trkpt>
      <trkpt lat="47.454665" lon="7.981407">
        <ele>590.918288</ele>
        <time>2021-11-18T22:36:22.760Z</time>
      </trkpt>
      <trkpt lat="47.454613" lon="7.981508">
        <ele>590.083420</ele>
        <time>2021-11-18T22:36:23.852Z</time>
      </trkpt>
      <trkpt lat="47.454586" lon="7.981589">
        <ele>589.489504</ele>
        <time>2021-11-18T22:36:24.607Z</time>
      </trkpt>
      <trkpt lat="47.454579" lon="7.981664">
        <ele>588.991582</ele>
        <time>2021-11-18T22:36:25.234Z</time>
      </trkpt>
      <trkpt lat="47.454626" lon="7.981783">
        <ele>588.085240</ele>
        <time>2021-11-18T22:36:26.432Z</time>
      </trkpt>
      <trkpt lat="47.454796" lon="7.982113">
        <ele>585.356871</ele>
        <time>2021-11-18T22:36:29.922Z</time>
      </trkpt>
      <trkpt lat="47.455567" lon="7.983605">
        <ele>575.088050</ele>
        <time>2021-11-18T22:36:46.153Z</time>
      </trkpt>
      <trkpt lat="47.455879" lon="7.984138">
        <ele>571.237395</ele>
        <time>2021-11-18T22:36:51.959Z</time>
      </trkpt>
      <trkpt lat="47.456600" lon="7.985167">
        <ele>563.077379</ele>
        <time>2021-11-18T22:37:04.390Z</time>
      </trkpt>
      <trkpt lat="47.456674" lon="7.985259">
        <ele>562.289672</ele>
        <time>2021-11-18T22:37:05.553Z</time>
      </trkpt>
      <trkpt lat="47.456695" lon="7.985320">
        <ele>561.912545</ele>
        <time>2021-11-18T22:37:06.117Z</time>
      </trkpt>
      <trkpt lat="47.456721" lon="7.985584">
        <ele>560.442718</ele>
        <time>2021-11-18T22:37:08.656Z</time>
      </trkpt>
      <trkpt lat="47.456712" lon="7.985626">
        <ele>560.199981</ele>
        <time>2021-11-18T22:37:09.012Z</time>
      </trkpt>
      <trkpt lat="47.456700" lon="7.985656">
        <ele>560.007942</ele>
        <time>2021-11-18T22:37:09.282Z</time>
      </trkpt>
      <trkpt lat="47.456497" lon="7.985789">
        <ele>558.198818</ele>
        <time>2021-11-18T22:37:12.164Z</time>
      </trkpt>
      <trkpt lat="47.456019" lon="7.985749">
        <ele>554.619108</ele>
        <time>2021-11-18T22:37:18.381Z</time>
      </trkpt>
      <trkpt lat="47.455643" lon="7.985741">
        <ele>552.101117</ele>
        <time>2021-11-18T22:37:23.151Z</time>
      </trkpt>
      <trkpt lat="47.454838" lon="7.985818">
        <ele>546.699500</ele>
        <time>2021-11-18T22:37:33.679Z</time>
      </trkpt>
      <trkpt lat="47.454714" lon="7.985896">
        <ele>545.797199</ele>
        <time>2021-11-18T22:37:35.460Z</time>
      </trkpt>
      <trkpt lat="47.454678" lon="7.985955">
        <ele>545.437378</ele>
        <time>2021-11-18T22:37:36.203Z</time>
      </trkpt>
      <trkpt lat="47.454646" lon="7.986056">
        <ele>544.932367</ele>
        <time>2021-11-18T22:37:37.116Z</time>
      </trkpt>
      <trkpt lat="47.454642" lon="7.986307">
        <ele>543.739849</ele>
        <time>2021-11-18T22:37:39.366Z</time>
      </trkpt>
      <trkpt lat="47.454798" lon="7.987123">
        <ele>539.082069</ele>
        <time>2021-11-18T22:37:46.611Z</time>
      </trkpt>
      <trkpt lat="47.454873" lon="7.987490">
        <ele>536.976181</ele>
        <time>2021-11-18T22:37:49.903Z</time>
      </trkpt>
      <trkpt lat="47.455041" lon="7.988188">
        <ele>532.906614</ele>
        <time>2021-11-18T22:37:56.056Z</time>
      </trkpt>
      <trkpt lat="47.455066" lon="7.988758">
        <ele>529.769190</ele>
        <time>2021-11-18T22:38:00.846Z</time>
      </trkpt>
      <trkpt lat="47.455043" lon="7.988979">
        <ele>528.696551</ele>
        <time>2021-11-18T22:38:02.700Z</time>
      </trkpt>
      <trkpt lat="47.455064" lon="7.989313">
        <ele>527.170663</ele>
        <time>2021-11-18T22:38:05.548Z</time>
      </trkpt>
      <trkpt lat="47.455284" lon="7.990381">
        <ele>522.091998</ele>
        <time>2021-11-18T22:38:15.257Z</time>
      </trkpt>
      <trkpt lat="47.455410" lon="7.990895">
        <ele>519.604960</ele>
        <time>2021-11-18T22:38:20.158Z</time>
      </trkpt>
      <trkpt lat="47.455538" lon="7.991172">
        <ele>518.078783</ele>
        <time>2021-11-18T22:38:23.183Z</time>
      </trkpt>
      <trkpt lat="47.455610" lon="7.991345">
        <ele>517.146627</ele>
        <time>2021-11-18T22:38:25.036Z</time>
      </trkpt>
      <trkpt lat="47.455771" lon="7.991698">
        <ele>515.127874</ele>
        <time>2021-11-18T22:38:29.069Z</time>
      </trkpt>
      <trkpt lat="47.455783" lon="7.991724">
        <ele>514.978627</ele>
        <time>2021-11-18T22:38:29.325Z</time>
      </trkpt>
      <trkpt lat="47.455833" lon="7.991916">
        <ele>514.003160</ele>
        <time>2021-11-18T22:38:31.244Z</time>
      </trkpt>
      <trkpt lat="47.455903" lon="7.992900">
        <ele>509.312195</ele>
        <time>2021-11-18T22:38:39.852Z</time>
      </trkpt>
      <trkpt lat="47.456080" lon="7.993963">
        <ele>503.820215</ele>
        <time>2021-11-18T22:38:49.109Z</time>
      </trkpt>
      <trkpt lat="47.456100" lon="7.994411">
        <ele>500.642931</ele>
        <time>2021-11-18T22:38:52.808Z</time>
      </trkpt>
      <trkpt lat="47.456139" lon="7.995132">
        <ele>495.524301</ele>
        <time>2021-11-18T22:38:58.764Z</time>
      </trkpt>
      <trkpt lat="47.456174" lon="7.995351">
        <ele>493.931793</ele>
        <time>2021-11-18T22:39:00.568Z</time>
      </trkpt>
      <trkpt lat="47.456315" lon="7.995629">
        <ele>491.472494</ele>
        <time>2021-11-18T22:39:03.454Z</time>
      </trkpt>
      <trkpt lat="47.456376" lon="7.995705">
        <ele>490.637712</ele>
        <time>2021-11-18T22:39:04.372Z</time>
      </trkpt>
      <trkpt lat="47.457419" lon="7.996598">
        <ele>478.150624</ele>
        <time>2021-11-18T22:39:18.930Z</time>
      </trkpt>
      <trkpt lat="47.457621" lon="7.996671">
        <ele>476.009134</ele>
        <time>2021-11-18T22:39:21.436Z</time>
      </trkpt>
      <trkpt lat="47.457866" lon="7.996634">
        <ele>473.472894</ele>
        <time>2021-11-18T22:39:24.474Z</time>
      </trkpt>
      <trkpt lat="47.458140" lon="7.996550">
        <ele>470.591135</ele>
        <time>2021-11-18T22:39:27.955Z</time>
      </trkpt>
      <trkpt lat="47.458304" lon="7.996503">
        <ele>468.870775</ele>
        <time>2021-11-18T22:39:29.946Z</time>
      </trkpt>
      <trkpt lat="47.458911" lon="7.996369">
        <ele>463.015468</ele>
        <time>2021-11-18T22:39:37.498Z</time>
      </trkpt>
      <trkpt lat="47.459274" lon="7.996347">
        <ele>459.633850</ele>
        <time>2021-11-18T22:39:41.959Z</time>
      </trkpt>
      <trkpt lat="47.459316" lon="7.996344">
        <ele>459.242461</ele>
        <time>2021-11-18T22:39:42.463Z</time>
      </trkpt>
      <trkpt lat="47.459446" lon="7.996347">
        <ele>458.032282</ele>
        <time>2021-11-18T22:39:44.015Z</time>
      </trkpt>
      <trkpt lat="47.459495" lon="7.996381">
        <ele>457.528496</ele>
        <time>2021-11-18T22:39:44.689Z</time>
      </trkpt>
      <trkpt lat="47.459548" lon="7.996295">
        <ele>456.796185</ele>
        <time>2021-11-18T22:39:45.735Z</time>
      </trkpt>
      <trkpt lat="47.459588" lon="7.996276">
        <ele>456.405138</ele>
        <time>2021-11-18T22:39:46.269Z</time>
      </trkpt>
      <trkpt lat="47.459702" lon="7.996437">
        <ele>454.937990</ele>
        <time>2021-11-18T22:39:48.140Z</time>
      </trkpt>
      <trkpt lat="47.459939" lon="7.996769">
        <ele>451.899626</ele>
        <time>2021-11-18T22:39:52.239Z</time>
      </trkpt>
      <trkpt lat="47.460528" lon="7.996975">
        <ele>447.871088</ele>
        <time>2021-11-18T22:39:59.859Z</time>
      </trkpt>
      <trkpt lat="47.460809" lon="7.997517">
        <ele>445.148505</ele>
        <time>2021-11-18T22:40:05.743Z</time>
      </trkpt>
      <trkpt lat="47.460929" lon="7.997770">
        <ele>443.916592</ele>
        <time>2021-11-18T22:40:08.467Z</time>
      </trkpt>
      <trkpt lat="47.461009" lon="7.997903">
        <ele>443.206993</ele>
        <time>2021-11-18T22:40:10.255Z</time>
      </trkpt>
      <trkpt lat="47.461062" lon="7.998039">
        <ele>442.581271</ele>
        <time>2021-11-18T22:40:11.709Z</time>
      </trkpt>
      <trkpt lat="47.461149" lon="7.998038">
        <ele>442.068318</ele>
        <time>2021-11-18T22:40:12.554Z</time>
      </trkpt>
      <trkpt lat="47.461284" lon="7.998059">
        <ele>441.267993</ele>
        <time>2021-11-18T22:40:13.909Z</time>
      </trkpt>
      <trkpt lat="47.461438" lon="7.998032">
        <ele>440.353679</ele>
        <time>2021-11-18T22:40:15.479Z</time>
      </trkpt>
      <trkpt lat="47.461502" lon="7.997997">
        <ele>440.020015</ele>
        <time>2021-11-18T22:40:16.161Z</time>
      </trkpt>
      <trkpt lat="47.461552" lon="7.997973">
        <ele>439.950271</ele>
        <time>2021-11-18T22:40:16.649Z</time>
      </trkpt>
      <trkpt lat="47.461927" lon="7.997527">
        <ele>439.311846</ele>
        <time>2021-11-18T22:40:21.956Z</time>
      </trkpt>
      <trkpt lat="47.462299" lon="7.997298">
        <ele>438.777255</ele>
        <time>2021-11-18T22:40:26.670Z</time>
      </trkpt>
      <trkpt lat="47.462350" lon="7.997293">
        <ele>438.709442</ele>
        <time>2021-11-18T22:40:27.269Z</time>
      </trkpt>
      <trkpt lat="47.462598" lon="7.997285">
        <ele>438.380328</ele>
        <time>2021-11-18T22:40:30.508Z</time>
      </trkpt>
      <trkpt lat="47.462705" lon="7.997285">
        <ele>438.238366</ele>
        <time>2021-11-18T22:40:31.910Z</time>
      </trkpt>
      <trkpt lat="47.463019" lon="7.997210">
        <ele>437.816368</ele>
        <time>2021-11-18T22:40:36.352Z</time>
      </trkpt>
      <trkpt lat="47.463107" lon="7.997172">
        <ele>437.694740</ele>
        <time>2021-11-18T22:40:37.658Z</time>
      </trkpt>
      <trkpt lat="47.463326" lon="7.997031">
        <ele>437.679163</ele>
        <time>2021-11-18T22:40:41.651Z</time>
      </trkpt>
      <trkpt lat="47.463376" lon="7.996983">
        <ele>437.686499</ele>
        <time>2021-11-18T22:40:42.451Z</time>
      </trkpt>
      <trkpt lat="47.463449" lon="7.996915">
        <ele>437.697115</ele>
        <time>2021-11-18T22:40:43.853Z</time>
      </trkpt>
      <trkpt lat="47.463691" lon="7.996686">
        <ele>437.732470</ele>
        <time>2021-11-18T22:40:48.550Z</time>
      </trkpt>
      <trkpt lat="47.464131" lon="7.996368">
        <ele>437.792737</ele>
        <time>2021-11-18T22:40:57.020Z</time>
      </trkpt>
      <trkpt lat="47.464249" lon="7.996297">
        <ele>437.808415</ele>
        <time>2021-11-18T22:40:59.206Z</time>
      </trkpt>
      <trkpt lat="47.465105" lon="7.995610">
        <ele>437.490049</ele>
        <time>2021-11-18T22:41:12.557Z</time>
      </trkpt>
      <trkpt lat="47.465119" lon="7.995595">
        <ele>437.474694</ele>
        <time>2021-11-18T22:41:13.044Z</time>
      </trkpt>
      <trkpt lat="47.465230" lon="7.995479">
        <ele>437.353979</ele>
        <time>2021-11-18T22:41:14.649Z</time>
      </trkpt>
      <trkpt lat="47.465613" lon="7.995104">
        <ele>436.946021</ele>
        <time>2021-11-18T22:41:20.361Z</time>
      </trkpt>
      <trkpt lat="47.465772" lon="7.994973">
        <ele>436.784367</ele>
        <time>2021-11-18T22:41:22.592Z</time>
      </trkpt>
      <trkpt lat="47.465905" lon="7.994879">
        <ele>436.653442</ele>
        <time>2021-11-18T22:41:24.262Z</time>
      </trkpt>
      <trkpt lat="47.466146" lon="7.994726">
        <ele>436.420501</ele>
        <time>2021-11-18T22:41:27.272Z</time>
      </trkpt>
      <trkpt lat="47.467154" lon="7.994150">
        <ele>435.169995</ele>
        <time>2021-11-18T22:41:39.920Z</time>
      </trkpt>
      <trkpt lat="47.467579" lon="7.993896">
        <ele>434.617931</ele>
        <time>2021-11-18T22:41:45.325Z</time>
      </trkpt>
      <trkpt lat="47.467721" lon="7.993817">
        <ele>434.435213</ele>
        <time>2021-11-18T22:41:47.302Z</time>
      </trkpt>
      <trkpt lat="47.468089" lon="7.993593">
        <ele>434.020123</ele>
        <time>2021-11-18T22:41:52.328Z</time>
      </trkpt>
      <trkpt lat="47.468375" lon="7.993424">
        <ele>433.802648</ele>
        <time>2021-11-18T22:41:56.142Z</time>
      </trkpt>
      <trkpt lat="47.469362" lon="7.992773">
        <ele>433.039541</ele>
        <time>2021-11-18T22:42:09.992Z</time>
      </trkpt>
      <trkpt lat="47.469747" lon="7.992506">
        <ele>432.776192</ele>
        <time>2021-11-18T22:42:15.447Z</time>
      </trkpt>
      <trkpt lat="47.470033" lon="7.992305">
        <ele>432.633750</ele>
        <time>2021-11-18T22:42:19.658Z</time>
      </trkpt>
      <trkpt lat="47.470749" lon="7.991887">
        <ele>432.287476</ele>
        <time>2021-11-18T22:42:30.839Z</time>
      </trkpt>
      <trkpt lat="47.471617" lon="7.991535">
        <ele>430.966737</ele>
        <time>2021-11-18T22:42:42.736Z</time>
      </trkpt>
      <trkpt lat="47.471790" lon="7.991484">
        <ele>430.400412</ele>
        <time>2021-11-18T22:42:44.795Z</time>
      </trkpt>
      <trkpt lat="47.472461" lon="7.991354">
        <ele>428.227817</ele>
        <time>2021-11-18T22:42:51.689Z</time>
      </trkpt>
      <trkpt lat="47.472796" lon="7.991311">
        <ele>427.148282</ele>
        <time>2021-11-18T22:42:54.926Z</time>
      </trkpt>
      <trkpt lat="47.473097" lon="7.991272">
        <ele>426.082052</ele>
        <time>2021-11-18T22:42:57.718Z</time>
      </trkpt>
      <trkpt lat="47.473566" lon="7.991189">
        <ele>422.723248</ele>
        <time>2021-11-18T22:43:02.028Z</time>
      </trkpt>
      <trkpt lat="47.474070" lon="7.991019">
        <ele>419.047370</ele>
        <time>2021-11-18T22:43:06.591Z</time>
      </trkpt>
      <trkpt lat="47.474226" lon="7.990967">
        <ele>417.910257</ele>
        <time>2021-11-18T22:43:08.020Z</time>
      </trkpt>
      <trkpt lat="47.474869" lon="7.990750">
        <ele>413.280412</ele>
        <time>2021-11-18T22:43:13.843Z</time>
      </trkpt>
      <trkpt lat="47.475384" lon="7.990744">
        <ele>410.507180</ele>
        <time>2021-11-18T22:43:18.485Z</time>
      </trkpt>
      <trkpt lat="47.475752" lon="7.990844">
        <ele>408.492446</ele>
        <time>2021-11-18T22:43:21.964Z</time>
      </trkpt>
      <trkpt lat="47.476495" lon="7.991119">
        <ele>404.368286</ele>
        <time>2021-11-18T22:43:29.284Z</time>
      </trkpt>
      <trkpt lat="47.476858" lon="7.991285">
        <ele>403.168622</ele>
        <time>2021-11-18T22:43:33.132Z</time>
      </trkpt>
      <trkpt lat="47.477212" lon="7.991382">
        <ele>402.353848</ele>
        <time>2021-11-18T22:43:36.940Z</time>
      </trkpt>
      <trkpt lat="47.477593" lon="7.991455">
        <ele>401.484392</ele>
        <time>2021-11-18T22:43:41.178Z</time>
      </trkpt>
      <trkpt lat="47.478975" lon="7.991551">
        <ele>398.821486</ele>
        <time>2021-11-18T22:43:56.955Z</time>
      </trkpt>
      <trkpt lat="47.479142" lon="7.991563">
        <ele>398.573527</ele>
        <time>2021-11-18T22:43:58.908Z</time>
      </trkpt>
      <trkpt lat="47.479179" lon="7.991567">
        <ele>398.518509</ele>
        <time>2021-11-18T22:43:59.359Z</time>
      </trkpt>
      <trkpt lat="47.479254" lon="7.991575">
        <ele>398.406993</ele>
        <time>2021-11-18T22:44:00.208Z</time>
      </trkpt>
      <trkpt lat="47.480402" lon="7.991988">
        <ele>396.640689</ele>
        <time>2021-11-18T22:44:13.957Z</time>
      </trkpt>
      <trkpt lat="47.480657" lon="7.991988">
        <ele>396.248738</ele>
        <time>2021-11-18T22:44:16.795Z</time>
      </trkpt>
      <trkpt lat="47.481096" lon="7.991850">
        <ele>395.558907</ele>
        <time>2021-11-18T22:44:21.991Z</time>
      </trkpt>
      <trkpt lat="47.481496" lon="7.991617">
        <ele>394.898156</ele>
        <time>2021-11-18T22:44:26.956Z</time>
      </trkpt>
      <trkpt lat="47.481732" lon="7.991480">
        <ele>394.508491</ele>
        <time>2021-11-18T22:44:29.805Z</time>
      </trkpt>
      <trkpt lat="47.482259" lon="7.991194">
        <ele>393.655556</ele>
        <time>2021-11-18T22:44:36.173Z</time>
      </trkpt>
      <trkpt lat="47.482872" lon="7.991012">
        <ele>392.709508</ele>
        <time>2021-11-18T22:44:43.346Z</time>
      </trkpt>
      <trkpt lat="47.483009" lon="7.990995">
        <ele>392.501479</ele>
        <time>2021-11-18T22:44:44.869Z</time>
      </trkpt>
      <trkpt lat="47.483302" lon="7.991001">
        <ele>392.058084</ele>
        <time>2021-11-18T22:44:48.289Z</time>
      </trkpt>
      <trkpt lat="47.483794" lon="7.991174">
        <ele>391.339062</ele>
        <time>2021-11-18T22:44:54.220Z</time>
      </trkpt>
      <trkpt lat="47.484004" lon="7.991285">
        <ele>391.060439</ele>
        <time>2021-11-18T22:44:56.912Z</time>
      </trkpt>
      <trkpt lat="47.484196" lon="7.991380">
        <ele>390.807488</ele>
        <time>2021-11-18T22:44:59.237Z</time>
      </trkpt>
      <trkpt lat="47.484597" lon="7.991511">
        <ele>390.294392</ele>
        <time>2021-11-18T22:45:04.055Z</time>
      </trkpt>
      <trkpt lat="47.485528" lon="7.991512">
        <ele>389.173625</ele>
        <time>2021-11-18T22:45:15.227Z</time>
      </trkpt>
      <trkpt lat="47.485635" lon="7.991515">
        <ele>389.071571</ele>
        <time>2021-11-18T22:45:16.442Z</time>
      </trkpt>
      <trkpt lat="47.485898" lon="7.991482">
        <ele>388.819870</ele>
        <time>2021-11-18T22:45:19.771Z</time>
      </trkpt>
      <trkpt lat="47.485991" lon="7.991440">
        <ele>388.727146</ele>
        <time>2021-11-18T22:45:20.922Z</time>
      </trkpt>
      <trkpt lat="47.486063" lon="7.991399">
        <ele>388.653578</ele>
        <time>2021-11-18T22:45:21.878Z</time>
      </trkpt>
      <trkpt lat="47.486129" lon="7.991440">
        <ele>388.585318</ele>
        <time>2021-11-18T22:45:23.153Z</time>
      </trkpt>
      <trkpt lat="47.486260" lon="7.991591">
        <ele>388.426969</ele>
        <time>2021-11-18T22:45:26.133Z</time>
      </trkpt>
      <trkpt lat="47.486334" lon="7.991668">
        <ele>388.340702</ele>
        <time>2021-11-18T22:45:27.666Z</time>
      </trkpt>
      <trkpt lat="47.486383" lon="7.991737">
        <ele>388.276200</ele>
        <time>2021-11-18T22:45:28.878Z</time>
      </trkpt>
      <trkpt lat="47.487213" lon="7.993014">
        <ele>387.014655</ele>
        <time>2021-11-18T22:45:50.004Z</time>
      </trkpt>
      <trkpt lat="47.487633" lon="7.993524">
        <ele>386.361937</ele>
        <time>2021-11-18T22:45:59.344Z</time>
      </trkpt>
      <trkpt lat="47.488246" lon="7.994102">
        <ele>385.488689</ele>
        <time>2021-11-18T22:46:11.396Z</time>
      </trkpt>
      <trkpt lat="47.488959" lon="7.994757">
        <ele>384.028370</ele>
        <time>2021-11-18T22:46:24.933Z</time>
      </trkpt>
      <trkpt lat="47.489284" lon="7.995053">
        <ele>383.352623</ele>
        <time>2021-11-18T22:46:31.058Z</time>
      </trkpt>
      <trkpt lat="47.490780" lon="7.996642">
        <ele>379.849349</ele>
        <time>2021-11-18T22:47:00.376Z</time>
      </trkpt>
      <trkpt lat="47.491680" lon="7.997343">
        <ele>377.766941</ele>
        <time>2021-11-18T22:47:16.187Z</time>
      </trkpt>
      <trkpt lat="47.491748" lon="7.997367">
        <ele>377.616590</ele>
        <time>2021-11-18T22:47:17.150Z</time>
      </trkpt>
      <trkpt lat="47.491854" lon="7.997405">
        <ele>377.382019</ele>
        <time>2021-11-18T22:47:18.876Z</time>
      </trkpt>
      <trkpt lat="47.491886" lon="7.997365">
        <ele>377.291931</ele>
        <time>2021-11-18T22:47:19.505Z</time>
      </trkpt>
      <trkpt lat="47.492317" lon="7.997637">
        <ele>376.284204</ele>
        <time>2021-11-18T22:47:24.581Z</time>
      </trkpt>
      <trkpt lat="47.492477" lon="7.997747">
        <ele>375.904770</ele>
        <time>2021-11-18T22:47:26.458Z</time>
      </trkpt>
      <trkpt lat="47.492617" lon="7.997908">
        <ele>375.523451</ele>
        <time>2021-11-18T22:47:28.416Z</time>
      </trkpt>
      <trkpt lat="47.492722" lon="7.998050">
        <ele>375.217540</ele>
        <time>2021-11-18T22:47:29.940Z</time>
      </trkpt>
      <trkpt lat="47.492747" lon="7.998084">
        <ele>375.144518</ele>
        <time>2021-11-18T22:47:30.334Z</time>
      </trkpt>
      <trkpt lat="47.492877" lon="7.998257">
        <ele>374.809105</ele>
        <time>2021-11-18T22:47:32.252Z</time>
      </trkpt>
      <trkpt lat="47.493144" lon="7.998645">
        <ele>374.473771</ele>
        <time>2021-11-18T22:47:36.384Z</time>
      </trkpt>
      <trkpt lat="47.493296" lon="7.998833">
        <ele>374.296251</ele>
        <time>2021-11-18T22:47:38.900Z</time>
      </trkpt>
      <trkpt lat="47.493358" lon="7.998911">
        <ele>374.223328</ele>
        <time>2021-11-18T22:47:39.815Z</time>
      </trkpt>
      <trkpt lat="47.493433" lon="7.998996">
        <ele>374.138673</ele>
        <time>2021-11-18T22:47:41.048Z</time>
      </trkpt>
      <trkpt lat="47.493502" lon="7.999071">
        <ele>374.061954</ele>
        <time>2021-11-18T22:47:42.213Z</time>
      </trkpt>
      <trkpt lat="47.493603" lon="7.999152">
        <ele>373.959008</ele>
        <time>2021-11-18T22:47:43.637Z</time>
      </trkpt>
      <trkpt lat="47.493742" lon="7.999216">
        <ele>373.828553</ele>
        <time>2021-11-18T22:47:45.454Z</time>
      </trkpt>
      <trkpt lat="47.493937" lon="7.999285">
        <ele>373.648878</ele>
        <time>2021-11-18T22:47:48.156Z</time>
      </trkpt>
      <trkpt lat="47.493961" lon="7.999292">
        <ele>373.626956</ele>
        <time>2021-11-18T22:47:48.429Z</time>
      </trkpt>
      <trkpt lat="47.493961" lon="7.999292">
        <ele>373.626956</ele>
        <time>2021-11-18T22:47:48.432Z</time>
      </trkpt>
      <trkpt lat="47.494178" lon="7.999354">
        <ele>373.428900</ele>
        <time>2021-11-18T22:47:51.664Z</time>
      </trkpt>
      <trkpt lat="47.494272" lon="7.999381">
        <ele>373.343090</ele>
        <time>2021-11-18T22:47:53.009Z</time>
      </trkpt>
      <trkpt lat="47.494489" lon="7.999417">
        <ele>373.187754</ele>
        <time>2021-11-18T22:47:56.290Z</time>
      </trkpt>
      <trkpt lat="47.494643" lon="7.999430">
        <ele>373.120275</ele>
        <time>2021-11-18T22:47:58.704Z</time>
      </trkpt>
      <trkpt lat="47.494812" lon="7.999457">
        <ele>373.045914</ele>
        <time>2021-11-18T22:48:01.107Z</time>
      </trkpt>
      <trkpt lat="47.495197" lon="7.999589">
        <ele>372.873031</ele>
        <time>2021-11-18T22:48:06.681Z</time>
      </trkpt>
      <trkpt lat="47.495430" lon="7.999752">
        <ele>372.760290</ele>
        <time>2021-11-18T22:48:10.153Z</time>
      </trkpt>
      <trkpt lat="47.495718" lon="8.000005">
        <ele>372.613780</ele>
        <time>2021-11-18T22:48:14.694Z</time>
      </trkpt>
      <trkpt lat="47.496011" lon="8.000286">
        <ele>372.461047</ele>
        <time>2021-11-18T22:48:19.152Z</time>
      </trkpt>
      <trkpt lat="47.496234" lon="8.000584">
        <ele>372.071758</ele>
        <time>2021-11-18T22:48:22.803Z</time>
      </trkpt>
      <trkpt lat="47.496272" lon="8.000651">
        <ele>371.985174</ele>
        <time>2021-11-18T22:48:23.689Z</time>
      </trkpt>
      <trkpt lat="47.496280" lon="8.000664">
        <ele>371.967769</ele>
        <time>2021-11-18T22:48:23.827Z</time>
      </trkpt>
      <trkpt lat="47.496429" lon="8.000925">
        <ele>371.629562</ele>
        <time>2021-11-18T22:48:26.474Z</time>
      </trkpt>
      <trkpt lat="47.496517" lon="8.001077">
        <ele>371.431435</ele>
        <time>2021-11-18T22:48:28.225Z</time>
      </trkpt>
      <trkpt lat="47.496533" lon="8.001104">
        <ele>371.395888</ele>
        <time>2021-11-18T22:48:28.459Z</time>
      </trkpt>
      <trkpt lat="47.496535" lon="8.001108">
        <ele>371.390963</ele>
        <time>2021-11-18T22:48:28.498Z</time>
      </trkpt>
      <trkpt lat="47.496585" lon="8.001187">
        <ele>371.283820</ele>
        <time>2021-11-18T22:48:29.329Z</time>
      </trkpt>
      <trkpt lat="47.496820" lon="8.001547">
        <ele>370.788353</ele>
        <time>2021-11-18T22:48:33.208Z</time>
      </trkpt>
      <trkpt lat="47.496861" lon="8.001608">
        <ele>370.703189</ele>
        <time>2021-11-18T22:48:33.848Z</time>
      </trkpt>
      <trkpt lat="47.496908" lon="8.001680">
        <ele>370.604096</ele>
        <time>2021-11-18T22:48:34.604Z</time>
      </trkpt>
      <trkpt lat="47.496932" lon="8.001715">
        <ele>370.554737</ele>
        <time>2021-11-18T22:48:34.969Z</time>
      </trkpt>
      <trkpt lat="47.497207" lon="8.002132">
        <ele>369.977975</ele>
        <time>2021-11-18T22:48:39.274Z</time>
      </trkpt>
      <trkpt lat="47.497264" lon="8.002219">
        <ele>369.858025</ele>
        <time>2021-11-18T22:48:40.233Z</time>
      </trkpt>
      <trkpt lat="47.497307" lon="8.002279">
        <ele>369.762795</ele>
        <time>2021-11-18T22:48:40.846Z</time>
      </trkpt>
      <trkpt lat="47.497390" lon="8.002409">
        <ele>369.539290</ele>
        <time>2021-11-18T22:48:42.224Z</time>
      </trkpt>
      <trkpt lat="47.497540" lon="8.002634">
        <ele>369.144300</ele>
        <time>2021-11-18T22:48:44.597Z</time>
      </trkpt>
      <trkpt lat="47.497607" lon="8.002710">
        <ele>368.988175</ele>
        <time>2021-11-18T22:48:45.547Z</time>
      </trkpt>
      <trkpt lat="47.497951" lon="8.003094">
        <ele>368.191277</ele>
        <time>2021-11-18T22:48:50.376Z</time>
      </trkpt>
      <trkpt lat="47.498072" lon="8.003250">
        <ele>367.894489</ele>
        <time>2021-11-18T22:48:52.107Z</time>
      </trkpt>
      <trkpt lat="47.498166" lon="8.003383">
        <ele>367.653977</ele>
        <time>2021-11-18T22:48:53.586Z</time>
      </trkpt>
      <trkpt lat="47.498213" lon="8.003454">
        <ele>367.529768</ele>
        <time>2021-11-18T22:48:54.353Z</time>
      </trkpt>
      <trkpt lat="47.498450" lon="8.003874">
        <ele>366.845973</ele>
        <time>2021-11-18T22:48:58.472Z</time>
      </trkpt>
      <trkpt lat="47.498698" lon="8.004313">
        <ele>366.233048</ele>
        <time>2021-11-18T22:49:02.728Z</time>
      </trkpt>
      <trkpt lat="47.498753" lon="8.004410">
        <ele>366.121403</ele>
        <time>2021-11-18T22:49:03.677Z</time>
      </trkpt>
      <trkpt lat="47.498898" lon="8.004636">
        <ele>365.846627</ele>
        <time>2021-11-18T22:49:06.070Z</time>
      </trkpt>
      <trkpt lat="47.498965" lon="8.004710">
        <ele>365.737538</ele>
        <time>2021-11-18T22:49:07.066Z</time>
      </trkpt>
      <trkpt lat="47.499012" lon="8.004762">
        <ele>365.660965</ele>
        <time>2021-11-18T22:49:07.756Z</time>
      </trkpt>
      <trkpt lat="47.499183" lon="8.004875">
        <ele>365.416592</ele>
        <time>2021-11-18T22:49:09.999Z</time>
      </trkpt>
      <trkpt lat="47.499409" lon="8.005000">
        <ele>365.101758</ele>
        <time>2021-11-18T22:49:12.937Z</time>
      </trkpt>
      <trkpt lat="47.499496" lon="8.005059">
        <ele>364.976880</ele>
        <time>2021-11-18T22:49:14.311Z</time>
      </trkpt>
      <trkpt lat="47.499523" lon="8.005078">
        <ele>364.937868</ele>
        <time>2021-11-18T22:49:14.576Z</time>
      </trkpt>
      <trkpt lat="47.499770" lon="8.005268">
        <ele>364.574620</ele>
        <time>2021-11-18T22:49:18.247Z</time>
      </trkpt>
      <trkpt lat="47.499856" lon="8.005338">
        <ele>364.446547</ele>
        <time>2021-11-18T22:49:19.236Z</time>
      </trkpt>
      <trkpt lat="47.499880" lon="8.005358">
        <ele>364.410606</ele>
        <time>2021-11-18T22:49:19.572Z</time>
      </trkpt>
      <trkpt lat="47.499991" lon="8.005468">
        <ele>364.236292</ele>
        <time>2021-11-18T22:49:21.265Z</time>
      </trkpt>
      <trkpt lat="47.500009" lon="8.005488">
        <ele>364.206921</ele>
        <time>2021-11-18T22:49:21.588Z</time>
      </trkpt>
      <trkpt lat="47.500207" lon="8.005727">
        <ele>364.013348</ele>
        <time>2021-11-18T22:49:24.656Z</time>
      </trkpt>
      <trkpt lat="47.500252" lon="8.005784">
        <ele>363.978088</ele>
        <time>2021-11-18T22:49:25.538Z</time>
      </trkpt>
      <trkpt lat="47.500310" lon="8.005852">
        <ele>363.934041</ele>
        <time>2021-11-18T22:49:26.563Z</time>
      </trkpt>
      <trkpt lat="47.500540" lon="8.006079">
        <ele>363.769470</ele>
        <time>2021-11-18T22:49:30.038Z</time>
      </trkpt>
      <trkpt lat="47.500647" lon="8.006180">
        <ele>363.693921</ele>
        <time>2021-11-18T22:49:32.194Z</time>
      </trkpt>
      <trkpt lat="47.500764" lon="8.006290">
        <ele>363.611406</ele>
        <time>2021-11-18T22:49:33.721Z</time>
      </trkpt>
      <trkpt lat="47.500997" lon="8.006551">
        <ele>363.437454</ele>
        <time>2021-11-18T22:49:37.911Z</time>
      </trkpt>
      <trkpt lat="47.501276" lon="8.006911">
        <ele>363.217112</ele>
        <time>2021-11-18T22:49:43.164Z</time>
      </trkpt>
      <trkpt lat="47.501293" lon="8.006936">
        <ele>363.202846</ele>
        <time>2021-11-18T22:49:43.489Z</time>
      </trkpt>
      <trkpt lat="47.501496" lon="8.007247">
        <ele>363.006947</ele>
        <time>2021-11-18T22:49:47.443Z</time>
      </trkpt>
      <trkpt lat="47.501537" lon="8.007308">
        <ele>362.947776</ele>
        <time>2021-11-18T22:49:48.186Z</time>
      </trkpt>
      <trkpt lat="47.501943" lon="8.008353">
        <ele>362.118823</ele>
        <time>2021-11-18T22:49:58.659Z</time>
      </trkpt>
      <trkpt lat="47.502062" lon="8.008650">
        <ele>361.881373</ele>
        <time>2021-11-18T22:50:01.599Z</time>
      </trkpt>
      <trkpt lat="47.502158" lon="8.008808">
        <ele>361.735247</ele>
        <time>2021-11-18T22:50:03.143Z</time>
      </trkpt>
      <trkpt lat="47.502267" lon="8.008979">
        <ele>361.573579</ele>
        <time>2021-11-18T22:50:05.081Z</time>
      </trkpt>
      <trkpt lat="47.502773" lon="8.009928">
        <ele>360.044438</ele>
        <time>2021-11-18T22:50:14.362Z</time>
      </trkpt>
      <trkpt lat="47.502959" lon="8.010415">
        <ele>359.108342</ele>
        <time>2021-11-18T22:50:18.274Z</time>
      </trkpt>
      <trkpt lat="47.502991" lon="8.010405">
        <ele>359.027334</ele>
        <time>2021-11-18T22:50:18.567Z</time>
      </trkpt>
      <trkpt lat="47.503467" lon="8.010296">
        <ele>357.834314</ele>
        <time>2021-11-18T22:50:23.558Z</time>
      </trkpt>
      <trkpt lat="47.504018" lon="8.010447">
        <ele>356.550375</ele>
        <time>2021-11-18T22:50:29.490Z</time>
      </trkpt>
      <trkpt lat="47.504178" lon="8.010516">
        <ele>356.268624</ele>
        <time>2021-11-18T22:50:31.138Z</time>
      </trkpt>
      <trkpt lat="47.504256" lon="8.010566">
        <ele>356.124920</ele>
        <time>2021-11-18T22:50:32.022Z</time>
      </trkpt>
      <trkpt lat="47.504446" lon="8.010688">
        <ele>355.774777</ele>
        <time>2021-11-18T22:50:34.226Z</time>
      </trkpt>
      <trkpt lat="47.505237" lon="8.011270">
        <ele>354.281387</ele>
        <time>2021-11-18T22:50:44.227Z</time>
      </trkpt>
      <trkpt lat="47.505388" lon="8.011390">
        <ele>353.991637</ele>
        <time>2021-11-18T22:50:46.432Z</time>
      </trkpt>
      <trkpt lat="47.505808" lon="8.011926">
        <ele>353.808763</ele>
        <time>2021-11-18T22:50:54.254Z</time>
      </trkpt>
      <trkpt lat="47.506101" lon="8.012240">
        <ele>353.876861</ele>
        <time>2021-11-18T22:51:00.638Z</time>
      </trkpt>
      <trkpt lat="47.506308" lon="8.012429">
        <ele>353.922648</ele>
        <time>2021-11-18T22:51:04.964Z</time>
      </trkpt>
      <trkpt lat="47.506346" lon="8.012464">
        <ele>353.931074</ele>
        <time>2021-11-18T22:51:05.738Z</time>
      </trkpt>
      <trkpt lat="47.506389" lon="8.012514">
        <ele>353.941368</ele>
        <time>2021-11-18T22:51:06.689Z</time>
      </trkpt>
      <trkpt lat="47.506472" lon="8.012743">
        <ele>353.974417</ele>
        <time>2021-11-18T22:51:09.776Z</time>
      </trkpt>
      <trkpt lat="47.506492" lon="8.012798">
        <ele>353.982361</ele>
        <time>2021-11-18T22:51:10.580Z</time>
      </trkpt>
      <trkpt lat="47.506533" lon="8.012868">
        <ele>353.994143</ele>
        <time>2021-11-18T22:51:11.573Z</time>
      </trkpt>
      <trkpt lat="47.506633" lon="8.012949">
        <ele>354.015604</ele>
        <time>2021-11-18T22:51:13.446Z</time>
      </trkpt>
      <trkpt lat="47.506663" lon="8.012973">
        <ele>354.022023</ele>
        <time>2021-11-18T22:51:13.963Z</time>
      </trkpt>
      <trkpt lat="47.506697" lon="8.013001">
        <ele>354.029348</ele>
        <time>2021-11-18T22:51:14.551Z</time>
      </trkpt>
      <trkpt lat="47.506760" lon="8.013057">
        <ele>354.043182</ele>
        <time>2021-11-18T22:51:15.733Z</time>
      </trkpt>
      <trkpt lat="47.506825" lon="8.013107">
        <ele>354.056973</ele>
        <time>2021-11-18T22:51:16.928Z</time>
      </trkpt>
      <trkpt lat="47.506890" lon="8.013159">
        <ele>354.070883</ele>
        <time>2021-11-18T22:51:18.111Z</time>
      </trkpt>
      <trkpt lat="47.506929" lon="8.013191">
        <ele>354.026824</ele>
        <time>2021-11-18T22:51:18.759Z</time>
      </trkpt>
      <trkpt lat="47.506955" lon="8.013213">
        <ele>353.993081</ele>
        <time>2021-11-18T22:51:19.191Z</time>
      </trkpt>
      <trkpt lat="47.506989" lon="8.013246">
        <ele>353.947273</ele>
        <time>2021-11-18T22:51:19.789Z</time>
      </trkpt>
      <trkpt lat="47.507007" lon="8.013263">
        <ele>353.923216</ele>
        <time>2021-11-18T22:51:20.099Z</time>
      </trkpt>
      <trkpt lat="47.507038" lon="8.013279">
        <ele>353.886225</ele>
        <time>2021-11-18T22:51:20.624Z</time>
      </trkpt>
      <trkpt lat="47.507084" lon="8.013290">
        <ele>353.833724</ele>
        <time>2021-11-18T22:51:21.303Z</time>
      </trkpt>
      <trkpt lat="47.507106" lon="8.013288">
        <ele>353.808889</ele>
        <time>2021-11-18T22:51:21.667Z</time>
      </trkpt>
      <trkpt lat="47.507191" lon="8.013279">
        <ele>353.712872</ele>
        <time>2021-11-18T22:51:22.785Z</time>
      </trkpt>
      <trkpt lat="47.507231" lon="8.013292">
        <ele>353.666729</ele>
        <time>2021-11-18T22:51:23.331Z</time>
      </trkpt>
      <trkpt lat="47.507559" lon="8.013585">
        <ele>353.235092</ele>
        <time>2021-11-18T22:51:28.268Z</time>
      </trkpt>
      <trkpt lat="47.507595" lon="8.013616">
        <ele>353.188167</ele>
        <time>2021-11-18T22:51:28.783Z</time>
      </trkpt>
      <trkpt lat="47.508011" lon="8.013995">
        <ele>352.637799</ele>
        <time>2021-11-18T22:51:34.613Z</time>
      </trkpt>
      <trkpt lat="47.508075" lon="8.014054">
        <ele>352.552850</ele>
        <time>2021-11-18T22:51:35.488Z</time>
      </trkpt>
      <trkpt lat="47.508214" lon="8.014183">
        <ele>352.368004</ele>
        <time>2021-11-18T22:51:37.291Z</time>
      </trkpt>
      <trkpt lat="47.508281" lon="8.014277">
        <ele>352.263998</ele>
        <time>2021-11-18T22:51:38.360Z</time>
      </trkpt>
      <trkpt lat="47.508333" lon="8.014419">
        <ele>352.141064</ele>
        <time>2021-11-18T22:51:39.487Z</time>
      </trkpt>
      <trkpt lat="47.508333" lon="8.014419">
        <ele>352.141064</ele>
        <time>2021-11-18T22:51:39.528Z</time>
      </trkpt>
      <trkpt lat="47.508333" lon="8.014419">
        <ele>352.141064</ele>
        <time>2021-11-18T22:51:39.531Z</time>
      </trkpt>
      <trkpt lat="47.508352" lon="8.014580">
        <ele>352.000343</ele>
        <time>2021-11-18T22:51:40.689Z</time>
      </trkpt>
      <trkpt lat="47.508337" lon="8.014821">
        <ele>351.710632</ele>
        <time>2021-11-18T22:51:42.452Z</time>
      </trkpt>
      <trkpt lat="47.508336" lon="8.014826">
        <ele>351.704390</ele>
        <time>2021-11-18T22:51:42.480Z</time>
      </trkpt>
      <trkpt lat="47.508294" lon="8.015081">
        <ele>351.390199</ele>
        <time>2021-11-18T22:51:44.276Z</time>
      </trkpt>
      <trkpt lat="47.508285" lon="8.015139">
        <ele>351.318962</ele>
        <time>2021-11-18T22:51:44.699Z</time>
      </trkpt>
      <trkpt lat="47.508270" lon="8.015229">
        <ele>351.207997</ele>
        <time>2021-11-18T22:51:45.387Z</time>
      </trkpt>
      <trkpt lat="47.508213" lon="8.015549">
        <ele>350.811846</ele>
        <time>2021-11-18T22:51:47.690Z</time>
      </trkpt>
      <trkpt lat="47.508171" lon="8.015782">
        <ele>350.523173</ele>
        <time>2021-11-18T22:51:49.474Z</time>
      </trkpt>
      <trkpt lat="47.508111" lon="8.016120">
        <ele>350.104831</ele>
        <time>2021-11-18T22:51:52.003Z</time>
      </trkpt>
      <trkpt lat="47.508068" lon="8.016380">
        <ele>349.784404</ele>
        <time>2021-11-18T22:51:54.091Z</time>
      </trkpt>
      <trkpt lat="47.508091" lon="8.016430">
        <ele>349.711991</ele>
        <time>2021-11-18T22:51:54.529Z</time>
      </trkpt>
      <trkpt lat="47.508279" lon="8.016640">
        <ele>349.294631</ele>
        <time>2021-11-18T22:51:57.369Z</time>
      </trkpt>
      <trkpt lat="47.508354" lon="8.016748">
        <ele>349.109216</ele>
        <time>2021-11-18T22:51:58.612Z</time>
      </trkpt>
      <trkpt lat="47.508497" lon="8.016922">
        <ele>348.912067</ele>
        <time>2021-11-18T22:52:01.069Z</time>
      </trkpt>
      <trkpt lat="47.508663" lon="8.017105">
        <ele>349.172383</ele>
        <time>2021-11-18T22:52:03.891Z</time>
      </trkpt>
      <trkpt lat="47.508497" lon="8.016922">
        <ele>349.432699</ele>
        <time>2021-11-18T22:52:07.241Z</time>
      </trkpt>
      <trkpt lat="47.508354" lon="8.016748">
        <ele>349.665513</ele>
        <time>2021-11-18T22:52:10.527Z</time>
      </trkpt>
      <trkpt lat="47.508279" lon="8.016640">
        <ele>349.797109</ele>
        <time>2021-11-18T22:52:12.408Z</time>
      </trkpt>
      <trkpt lat="47.508091" lon="8.016430">
        <ele>350.093325</ele>
        <time>2021-11-18T22:52:17.249Z</time>
      </trkpt>
      <trkpt lat="47.508068" lon="8.016380">
        <ele>350.144720</ele>
        <time>2021-11-18T22:52:18.244Z</time>
      </trkpt>
      <trkpt lat="47.508111" lon="8.016120">
        <ele>350.372139</ele>
        <time>2021-11-18T22:52:21.765Z</time>
      </trkpt>
      <trkpt lat="47.508171" lon="8.015782">
        <ele>350.669052</ele>
        <time>2021-11-18T22:52:27.748Z</time>
      </trkpt>
      <trkpt lat="47.508213" lon="8.015549">
        <ele>350.873935</ele>
        <time>2021-11-18T22:52:31.566Z</time>
      </trkpt>
      <trkpt lat="47.508270" lon="8.015229">
        <ele>351.201791</ele>
        <time>2021-11-18T22:52:37.637Z</time>
      </trkpt>
      <trkpt lat="47.508285" lon="8.015139">
        <ele>351.385283</ele>
        <time>2021-11-18T22:52:39.052Z</time>
      </trkpt>
      <trkpt lat="47.508294" lon="8.015081">
        <ele>351.503081</ele>
        <time>2021-11-18T22:52:40.153Z</time>
      </trkpt>
      <trkpt lat="47.508337" lon="8.014821">
        <ele>352.032934</ele>
        <time>2021-11-18T22:52:45.705Z</time>
      </trkpt>
      <trkpt lat="47.508352" lon="8.014580">
        <ele>352.511998</ele>
        <time>2021-11-18T22:52:49.513Z</time>
      </trkpt>
      <trkpt lat="47.508333" lon="8.014419">
        <ele>352.835514</ele>
        <time>2021-11-18T22:52:53.147Z</time>
      </trkpt>
      <trkpt lat="47.508375" lon="8.014403">
        <ele>352.962600</ele>
        <time>2021-11-18T22:52:54.589Z</time>
      </trkpt>
      <trkpt lat="47.508562" lon="8.014341">
        <ele>353.524158</ele>
        <time>2021-11-18T22:52:59.294Z</time>
      </trkpt>
      <trkpt lat="47.508646" lon="8.014383">
        <ele>353.783971</ele>
        <time>2021-11-18T22:53:02.200Z</time>
      </trkpt>
      <trkpt lat="47.508749" lon="8.014436">
        <ele>354.103514</ele>
        <time>2021-11-18T22:53:05.504Z</time>
      </trkpt>
      <trkpt lat="47.509142" lon="8.014737">
        <ele>355.400151</ele>
        <time>2021-11-18T22:53:17.194Z</time>
      </trkpt>
      <trkpt lat="47.509444" lon="8.014982">
        <ele>356.393618</ele>
        <time>2021-11-18T22:53:26.390Z</time>
      </trkpt>
      <trkpt lat="47.509546" lon="8.015060">
        <ele>356.446078</ele>
        <time>2021-11-18T22:53:28.654Z</time>
      </trkpt>
      <trkpt lat="47.509612" lon="8.015079">
        <ele>356.476803</ele>
        <time>2021-11-18T22:53:30.734Z</time>
      </trkpt>
      <trkpt lat="47.509686" lon="8.015069">
        <ele>356.510758</ele>
        <time>2021-11-18T22:53:32.809Z</time>
      </trkpt>
      <trkpt lat="47.509799" lon="8.014989">
        <ele>356.567995</ele>
        <time>2021-11-18T22:53:35.300Z</time>
      </trkpt>
      <trkpt lat="47.509823" lon="8.014904">
        <ele>356.596431</ele>
        <time>2021-11-18T22:53:36.426Z</time>
      </trkpt>
      <trkpt lat="47.509891" lon="8.014585">
        <ele>356.699680</ele>
        <time>2021-11-18T22:53:41.258Z</time>
      </trkpt>
      <trkpt lat="47.509928" lon="8.014411">
        <ele>356.755985</ele>
        <time>2021-11-18T22:53:43.212Z</time>
      </trkpt>
      <trkpt lat="47.510028" lon="8.013857">
        <ele>356.932983</ele>
        <time>2021-11-18T22:53:48.827Z</time>
      </trkpt>
      <trkpt lat="47.510139" lon="8.013722">
        <ele>356.998626</ele>
        <time>2021-11-18T22:53:51.181Z</time>
      </trkpt>
      <trkpt lat="47.510195" lon="8.013657">
        <ele>357.031143</ele>
        <time>2021-11-18T22:53:52.013Z</time>
      </trkpt>
      <trkpt lat="47.510610" lon="8.013245">
        <ele>357.039373</ele>
        <time>2021-11-18T22:53:57.831Z</time>
      </trkpt>
      <trkpt lat="47.511060" lon="8.012793">
        <ele>356.120286</ele>
        <time>2021-11-18T22:54:04.110Z</time>
      </trkpt>
      <trkpt lat="47.511153" lon="8.012630">
        <ele>355.876702</ele>
        <time>2021-11-18T22:54:05.600Z</time>
      </trkpt>
      <trkpt lat="47.511240" lon="8.012453">
        <ele>355.626800</ele>
        <time>2021-11-18T22:54:07.373Z</time>
      </trkpt>
      <trkpt lat="47.511339" lon="8.012189">
        <ele>355.282085</ele>
        <time>2021-11-18T22:54:09.487Z</time>
      </trkpt>
      <trkpt lat="47.511369" lon="8.012112">
        <ele>355.180606</ele>
        <time>2021-11-18T22:54:10.144Z</time>
      </trkpt>
      <trkpt lat="47.511725" lon="8.011067">
        <ele>354.112610</ele>
        <time>2021-11-18T22:54:18.907Z</time>
      </trkpt>
      <trkpt lat="47.511743" lon="8.011016">
        <ele>354.100590</ele>
        <time>2021-11-18T22:54:19.555Z</time>
      </trkpt>
      <trkpt lat="47.511819" lon="8.010960">
        <ele>354.074334</ele>
        <time>2021-11-18T22:54:20.962Z</time>
      </trkpt>
      <trkpt lat="47.512231" lon="8.010689">
        <ele>353.934900</ele>
        <time>2021-11-18T22:54:29.349Z</time>
      </trkpt>
      <trkpt lat="47.512828" lon="8.010284">
        <ele>353.731798</ele>
        <time>2021-11-18T22:54:43.800Z</time>
      </trkpt>
      <trkpt lat="47.513001" lon="8.010158">
        <ele>353.672169</ele>
        <time>2021-11-18T22:54:47.900Z</time>
      </trkpt>
      <trkpt lat="47.513230" lon="8.010045">
        <ele>353.575908</ele>
        <time>2021-11-18T22:54:53.151Z</time>
      </trkpt>
      <trkpt lat="47.513914" lon="8.009618">
        <ele>353.083341</ele>
        <time>2021-11-18T22:55:08.095Z</time>
      </trkpt>
      <trkpt lat="47.514240" lon="8.009205">
        <ele>352.798642</ele>
        <time>2021-11-18T22:55:15.880Z</time>
      </trkpt>
      <trkpt lat="47.514604" lon="8.008601">
        <ele>352.435856</ele>
        <time>2021-11-18T22:55:25.021Z</time>
      </trkpt>
      <trkpt lat="47.514868" lon="8.008490">
        <ele>351.718396</ele>
        <time>2021-11-18T22:55:29.382Z</time>
      </trkpt>
      <trkpt lat="47.515777" lon="8.008451">
        <ele>349.204871</ele>
        <time>2021-11-18T22:55:43.066Z</time>
      </trkpt>
      <trkpt lat="47.516279" lon="8.008426">
        <ele>347.816561</ele>
        <time>2021-11-18T22:55:50.252Z</time>
      </trkpt>
      <trkpt lat="47.516778" lon="8.008407">
        <ele>346.453753</ele>
        <time>2021-11-18T22:55:57.422Z</time>
      </trkpt>
      <trkpt lat="47.516850" lon="8.008403">
        <ele>346.257919</ele>
        <time>2021-11-18T22:55:58.423Z</time>
      </trkpt>
      <trkpt lat="47.516886" lon="8.008468">
        <ele>346.103610</ele>
        <time>2021-11-18T22:55:59.183Z</time>
      </trkpt>
      <trkpt lat="47.516966" lon="8.008595">
        <ele>345.784816</ele>
        <time>2021-11-18T22:56:00.963Z</time>
      </trkpt>
      <trkpt lat="47.517345" lon="8.009165">
        <ele>344.316500</ele>
        <time>2021-11-18T22:56:08.957Z</time>
      </trkpt>
      <trkpt lat="47.517409" lon="8.009275">
        <ele>344.049982</ele>
        <time>2021-11-18T22:56:10.373Z</time>
      </trkpt>
      <trkpt lat="47.517508" lon="8.009440">
        <ele>343.644836</ele>
        <time>2021-11-18T22:56:12.795Z</time>
      </trkpt>
      <trkpt lat="47.517564" lon="8.009350">
        <ele>343.420201</ele>
        <time>2021-11-18T22:56:14.087Z</time>
      </trkpt>
      <trkpt lat="47.517615" lon="8.009232">
        <ele>343.163037</ele>
        <time>2021-11-18T22:56:15.448Z</time>
      </trkpt>
      <trkpt lat="47.517791" lon="8.009018">
        <ele>342.563746</ele>
        <time>2021-11-18T22:56:19.315Z</time>
      </trkpt>
      <trkpt lat="47.517851" lon="8.008946">
        <ele>342.575354</ele>
        <time>2021-11-18T22:56:20.477Z</time>
      </trkpt>
      <trkpt lat="47.518239" lon="8.008485">
        <ele>342.650129</ele>
        <time>2021-11-18T22:56:29.026Z</time>
      </trkpt>
      <trkpt lat="47.518926" lon="8.007732">
        <ele>342.778604</ele>
        <time>2021-11-18T22:56:47.756Z</time>
      </trkpt>
      <trkpt lat="47.520956" lon="8.005345">
        <ele>346.363516</ele>
        <time>2021-11-18T22:58:00.531Z</time>
      </trkpt>
      <trkpt lat="47.521277" lon="8.005104">
        <ele>346.514469</ele>
        <time>2021-11-18T22:58:09.198Z</time>
      </trkpt>
      <trkpt lat="47.521327" lon="8.004951">
        <ele>346.562613</ele>
        <time>2021-11-18T22:58:11.743Z</time>
      </trkpt>
      <trkpt lat="47.521214" lon="8.004538">
        <ele>346.688830</ele>
        <time>2021-11-18T22:58:17.983Z</time>
      </trkpt>
      <trkpt lat="47.521488" lon="8.004236">
        <ele>346.832094</ele>
        <time>2021-11-18T22:58:24.163Z</time>
      </trkpt>
      <trkpt lat="47.521691" lon="8.004044">
        <ele>346.933123</ele>
        <time>2021-11-18T22:58:28.612Z</time>
      </trkpt>
      <trkpt lat="47.521941" lon="8.003805">
        <ele>346.486637</ele>
        <time>2021-11-18T22:58:33.546Z</time>
      </trkpt>
      <trkpt lat="47.522286" lon="8.003405">
        <ele>345.801879</ele>
        <time>2021-11-18T22:58:40.829Z</time>
      </trkpt>
      <trkpt lat="47.522593" lon="8.003040">
        <ele>345.186606</ele>
        <time>2021-11-18T22:58:46.972Z</time>
      </trkpt>
      <trkpt lat="47.522812" lon="8.002772">
        <ele>344.742616</ele>
        <time>2021-11-18T22:58:51.373Z</time>
      </trkpt>
      <trkpt lat="47.526232" lon="7.998874">
        <ele>338.443748</ele>
        <time>2021-11-18T23:00:02.098Z</time>
      </trkpt>
      <trkpt lat="47.526462" lon="7.998465">
        <ele>338.275075</ele>
        <time>2021-11-18T23:00:08.648Z</time>
      </trkpt>
      <trkpt lat="47.526659" lon="7.997896">
        <ele>338.072439</ele>
        <time>2021-11-18T23:00:16.660Z</time>
      </trkpt>
      <trkpt lat="47.527005" lon="7.997436">
        <ele>337.854225</ele>
        <time>2021-11-18T23:00:26.066Z</time>
      </trkpt>
      <trkpt lat="47.527061" lon="7.997361">
        <ele>337.818791</ele>
        <time>2021-11-18T23:00:27.798Z</time>
      </trkpt>
      <trkpt lat="47.527239" lon="7.997118">
        <ele>337.734251</ele>
        <time>2021-11-18T23:00:32.855Z</time>
      </trkpt>
      <trkpt lat="47.527390" lon="7.996879">
        <ele>337.695415</ele>
        <time>2021-11-18T23:00:38.521Z</time>
      </trkpt>
      <trkpt lat="47.528522" lon="7.994788">
        <ele>336.612772</ele>
        <time>2021-11-18T23:01:13.781Z</time>
      </trkpt>
      <trkpt lat="47.528851" lon="7.994185">
        <ele>335.311760</ele>
        <time>2021-11-18T23:01:21.583Z</time>
      </trkpt>
      <trkpt lat="47.529180" lon="7.994531">
        <ele>334.308884</ele>
        <time>2021-11-18T23:01:27.416Z</time>
      </trkpt>
      <trkpt lat="47.529261" lon="7.994394">
        <ele>334.003294</ele>
        <time>2021-11-18T23:01:28.659Z</time>
      </trkpt>
      <trkpt lat="47.529350" lon="7.994228">
        <ele>333.647581</ele>
        <time>2021-11-18T23:01:30.087Z</time>
      </trkpt>
      <trkpt lat="47.530141" lon="7.992757">
        <ele>331.156499</ele>
        <time>2021-11-18T23:01:42.844Z</time>
      </trkpt>
      <trkpt lat="47.530495" lon="7.992103">
        <ele>330.127854</ele>
        <time>2021-11-18T23:01:50.979Z</time>
      </trkpt>
      <trkpt lat="47.530776" lon="7.991586">
        <ele>329.832522</ele>
        <time>2021-11-18T23:01:58.502Z</time>
      </trkpt>
      <trkpt lat="47.530933" lon="7.991310">
        <ele>329.990197</ele>
        <time>2021-11-18T23:02:02.251Z</time>
      </trkpt>
      <trkpt lat="47.530979" lon="7.991211">
        <ele>330.042702</ele>
        <time>2021-11-18T23:02:03.792Z</time>
      </trkpt>
      <trkpt lat="47.531178" lon="7.990809">
        <ele>330.260483</ele>
        <time>2021-11-18T23:02:09.444Z</time>
      </trkpt>
      <trkpt lat="47.531268" lon="7.990627">
        <ele>330.359043</ele>
        <time>2021-11-18T23:02:12.091Z</time>
      </trkpt>
      <trkpt lat="47.531363" lon="7.990436">
        <ele>330.462688</ele>
        <time>2021-11-18T23:02:14.954Z</time>
      </trkpt>
      <trkpt lat="47.531667" lon="7.989873">
        <ele>330.777645</ele>
        <time>2021-11-18T23:02:24.161Z</time>
      </trkpt>
      <trkpt lat="47.531823" lon="7.989607">
        <ele>330.966530</ele>
        <time>2021-11-18T23:02:28.197Z</time>
      </trkpt>
      <trkpt lat="47.531897" lon="7.989450">
        <ele>331.091077</ele>
        <time>2021-11-18T23:02:31.415Z</time>
      </trkpt>
      <trkpt lat="47.532014" lon="7.989225">
        <ele>331.275808</ele>
        <time>2021-11-18T23:02:34.230Z</time>
      </trkpt>
      <trkpt lat="47.532299" lon="7.988577">
        <ele>331.778853</ele>
        <time>2021-11-18T23:02:44.995Z</time>
      </trkpt>
      <trkpt lat="47.532373" lon="7.988399">
        <ele>331.914824</ele>
        <time>2021-11-18T23:02:48.274Z</time>
      </trkpt>
      <trkpt lat="47.532401" lon="7.988331">
        <ele>331.966633</ele>
        <time>2021-11-18T23:02:48.763Z</time>
      </trkpt>
      <trkpt lat="47.532464" lon="7.988171">
        <ele>332.087112</ele>
        <time>2021-11-18T23:02:51.913Z</time>
      </trkpt>
      <trkpt lat="47.532544" lon="7.987973">
        <ele>332.237204</ele>
        <time>2021-11-18T23:02:55.460Z</time>
      </trkpt>
      <trkpt lat="47.532621" lon="7.987826">
        <ele>332.358224</ele>
        <time>2021-11-18T23:02:56.893Z</time>
      </trkpt>
      <trkpt lat="47.532716" lon="7.987667">
        <ele>332.496329</ele>
        <time>2021-11-18T23:03:00.254Z</time>
      </trkpt>
      <trkpt lat="47.532879" lon="7.987447">
        <ele>332.679635</ele>
        <time>2021-11-18T23:03:03.552Z</time>
      </trkpt>
      <trkpt lat="47.533114" lon="7.987128">
        <ele>332.909484</ele>
        <time>2021-11-18T23:03:08.962Z</time>
      </trkpt>
      <trkpt lat="47.533208" lon="7.986980">
        <ele>333.008406</ele>
        <time>2021-11-18T23:03:12.325Z</time>
      </trkpt>
      <trkpt lat="47.533546" lon="7.986336">
        <ele>333.405510</ele>
        <time>2021-11-18T23:03:22.170Z</time>
      </trkpt>
      <trkpt lat="47.533975" lon="7.985526">
        <ele>333.913285</ele>
        <time>2021-11-18T23:03:33.598Z</time>
      </trkpt>
      <trkpt lat="47.534197" lon="7.985105">
        <ele>334.275026</ele>
        <time>2021-11-18T23:03:39.771Z</time>
      </trkpt>
      <trkpt lat="47.534320" lon="7.984882">
        <ele>334.470023</ele>
        <time>2021-11-18T23:03:42.989Z</time>
      </trkpt>
      <trkpt lat="47.534722" lon="7.984096">
        <ele>335.137757</ele>
        <time>2021-11-18T23:03:54.773Z</time>
      </trkpt>
      <trkpt lat="47.534817" lon="7.983835">
        <ele>335.338546</ele>
        <time>2021-11-18T23:03:58.718Z</time>
      </trkpt>
      <trkpt lat="47.535231" lon="7.982582">
        <ele>336.909077</ele>
        <time>2021-11-18T23:04:20.409Z</time>
      </trkpt>
      <trkpt lat="47.535300" lon="7.982379">
        <ele>337.226427</ele>
        <time>2021-11-18T23:04:24.173Z</time>
      </trkpt>
      <trkpt lat="47.535328" lon="7.982298">
        <ele>337.353493</ele>
        <time>2021-11-18T23:04:25.657Z</time>
      </trkpt>
      <trkpt lat="47.535345" lon="7.982248">
        <ele>337.431662</ele>
        <time>2021-11-18T23:04:26.548Z</time>
      </trkpt>
      <trkpt lat="47.535452" lon="7.981933">
        <ele>337.924038</ele>
        <time>2021-11-18T23:04:32.611Z</time>
      </trkpt>
      <trkpt lat="47.535599" lon="7.981498">
        <ele>338.603277</ele>
        <time>2021-11-18T23:04:40.887Z</time>
      </trkpt>
      <trkpt lat="47.536061" lon="7.980200">
        <ele>339.408009</ele>
        <time>2021-11-18T23:05:02.027Z</time>
      </trkpt>
      <trkpt lat="47.536340" lon="7.979418">
        <ele>339.402196</ele>
        <time>2021-11-18T23:05:10.929Z</time>
      </trkpt>
      <trkpt lat="47.536403" lon="7.979241">
        <ele>339.400881</ele>
        <time>2021-11-18T23:05:12.559Z</time>
      </trkpt>
      <trkpt lat="47.536460" lon="7.979083">
        <ele>339.399704</ele>
        <time>2021-11-18T23:05:14.008Z</time>
      </trkpt>
      <trkpt lat="47.536866" lon="7.977996">
        <ele>338.113074</ele>
        <time>2021-11-18T23:05:23.266Z</time>
      </trkpt>
      <trkpt lat="47.537408" lon="7.976586">
        <ele>335.255597</ele>
        <time>2021-11-18T23:05:34.428Z</time>
      </trkpt>
      <trkpt lat="47.537896" lon="7.975317">
        <ele>332.763737</ele>
        <time>2021-11-18T23:05:44.731Z</time>
      </trkpt>
      <trkpt lat="47.538106" lon="7.974772">
        <ele>331.702425</ele>
        <time>2021-11-18T23:05:49.245Z</time>
      </trkpt>
      <trkpt lat="47.538490" lon="7.973699">
        <ele>329.714847</ele>
        <time>2021-11-18T23:05:58.048Z</time>
      </trkpt>
      <trkpt lat="47.538687" lon="7.972850">
        <ele>328.379758</ele>
        <time>2021-11-18T23:06:04.611Z</time>
      </trkpt>
      <trkpt lat="47.538858" lon="7.971696">
        <ele>326.622738</ele>
        <time>2021-11-18T23:06:13.281Z</time>
      </trkpt>
      <trkpt lat="47.538935" lon="7.971210">
        <ele>325.855883</ele>
        <time>2021-11-18T23:06:16.911Z</time>
      </trkpt>
      <trkpt lat="47.539052" lon="7.970439">
        <ele>324.599878</ele>
        <time>2021-11-18T23:06:22.538Z</time>
      </trkpt>
      <trkpt lat="47.539144" lon="7.969781">
        <ele>323.531861</ele>
        <time>2021-11-18T23:06:27.332Z</time>
      </trkpt>
      <trkpt lat="47.539248" lon="7.969246">
        <ele>322.646985</ele>
        <time>2021-11-18T23:06:31.345Z</time>
      </trkpt>
      <trkpt lat="47.539403" lon="7.968640">
        <ele>321.708535</ele>
        <time>2021-11-18T23:06:36.078Z</time>
      </trkpt>
      <trkpt lat="47.539680" lon="7.967625">
        <ele>320.382685</ele>
        <time>2021-11-18T23:06:44.294Z</time>
      </trkpt>
      <trkpt lat="47.539909" lon="7.966784">
        <ele>319.284473</ele>
        <time>2021-11-18T23:06:51.149Z</time>
      </trkpt>
      <trkpt lat="47.540100" lon="7.966046">
        <ele>318.410878</ele>
        <time>2021-11-18T23:06:57.425Z</time>
      </trkpt>
      <trkpt lat="47.540200" lon="7.965632">
        <ele>317.977812</ele>
        <time>2021-11-18T23:07:00.941Z</time>
      </trkpt>
      <trkpt lat="47.540257" lon="7.965417">
        <ele>317.750313</ele>
        <time>2021-11-18T23:07:02.679Z</time>
      </trkpt>
      <trkpt lat="47.540467" lon="7.964759">
        <ele>317.033474</ele>
        <time>2021-11-18T23:07:08.421Z</time>
      </trkpt>
      <trkpt lat="47.540959" lon="7.963916">
        <ele>315.886262</ele>
        <time>2021-11-18T23:07:17.076Z</time>
      </trkpt>
      <trkpt lat="47.541019" lon="7.963815">
        <ele>315.723116</ele>
        <time>2021-11-18T23:07:18.028Z</time>
      </trkpt>
      <trkpt lat="47.541123" lon="7.963520">
        <ele>315.319546</ele>
        <time>2021-11-18T23:07:20.625Z</time>
      </trkpt>
      <trkpt lat="47.541217" lon="7.963187">
        <ele>314.881859</ele>
        <time>2021-11-18T23:07:23.383Z</time>
      </trkpt>
      <trkpt lat="47.541258" lon="7.962975">
        <ele>314.614441</ele>
        <time>2021-11-18T23:07:25.217Z</time>
      </trkpt>
      <trkpt lat="47.541293" lon="7.962730">
        <ele>314.310769</ele>
        <time>2021-11-18T23:07:27.061Z</time>
      </trkpt>
      <trkpt lat="47.541308" lon="7.962513">
        <ele>314.046254</ele>
        <time>2021-11-18T23:07:28.821Z</time>
      </trkpt>
      <trkpt lat="47.541314" lon="7.962377">
        <ele>313.880985</ele>
        <time>2021-11-18T23:07:29.888Z</time>
      </trkpt>
      <trkpt lat="47.541316" lon="7.962197">
        <ele>313.662684</ele>
        <time>2021-11-18T23:07:31.192Z</time>
      </trkpt>
      <trkpt lat="47.541242" lon="7.961294">
        <ele>312.282556</ele>
        <time>2021-11-18T23:07:37.838Z</time>
      </trkpt>
      <trkpt lat="47.541153" lon="7.960814">
        <ele>311.214549</ele>
        <time>2021-11-18T23:07:41.369Z</time>
      </trkpt>
      <trkpt lat="47.541060" lon="7.960321">
        <ele>310.116267</ele>
        <time>2021-11-18T23:07:44.958Z</time>
      </trkpt>
      <trkpt lat="47.541027" lon="7.959944">
        <ele>309.300619</ele>
        <time>2021-11-18T23:07:47.461Z</time>
      </trkpt>
      <trkpt lat="47.541019" lon="7.959792">
        <ele>308.973504</ele>
        <time>2021-11-18T23:07:48.506Z</time>
      </trkpt>
      <trkpt lat="47.541012" lon="7.959578">
        <ele>308.513815</ele>
        <time>2021-11-18T23:07:49.981Z</time>
      </trkpt>
      <trkpt lat="47.541016" lon="7.959388">
        <ele>308.105960</ele>
        <time>2021-11-18T23:07:51.183Z</time>
      </trkpt>
      <trkpt lat="47.541081" lon="7.958828">
        <ele>306.886218</ele>
        <time>2021-11-18T23:07:54.952Z</time>
      </trkpt>
      <trkpt lat="47.541226" lon="7.958150">
        <ele>305.357396</ele>
        <time>2021-11-18T23:07:59.712Z</time>
      </trkpt>
      <trkpt lat="47.541305" lon="7.957787">
        <ele>304.537543</ele>
        <time>2021-11-18T23:08:02.196Z</time>
      </trkpt>
      <trkpt lat="47.541355" lon="7.957559">
        <ele>304.022222</ele>
        <time>2021-11-18T23:08:03.897Z</time>
      </trkpt>
      <trkpt lat="47.541450" lon="7.956897">
        <ele>302.567392</ele>
        <time>2021-11-18T23:08:08.532Z</time>
      </trkpt>
      <trkpt lat="47.541464" lon="7.956698">
        <ele>302.137307</ele>
        <time>2021-11-18T23:08:09.938Z</time>
      </trkpt>
      <trkpt lat="47.541479" lon="7.956439">
        <ele>301.578517</ele>
        <time>2021-11-18T23:08:11.866Z</time>
      </trkpt>
      <trkpt lat="47.541494" lon="7.956190">
        <ele>301.380573</ele>
        <time>2021-11-18T23:08:13.669Z</time>
      </trkpt>
      <trkpt lat="47.541533" lon="7.955526">
        <ele>301.066926</ele>
        <time>2021-11-18T23:08:18.790Z</time>
      </trkpt>
      <trkpt lat="47.541554" lon="7.955311">
        <ele>300.964698</ele>
        <time>2021-11-18T23:08:20.826Z</time>
      </trkpt>
      <trkpt lat="47.541735" lon="7.953892">
        <ele>300.285129</ele>
        <time>2021-11-18T23:08:35.040Z</time>
      </trkpt>
      <trkpt lat="47.541773" lon="7.953695">
        <ele>300.234683</ele>
        <time>2021-11-18T23:08:37.288Z</time>
      </trkpt>
      <trkpt lat="47.541791" lon="7.953601">
        <ele>300.252446</ele>
        <time>2021-11-18T23:08:38.323Z</time>
      </trkpt>
      <trkpt lat="47.541991" lon="7.952667">
        <ele>300.430582</ele>
        <time>2021-11-18T23:08:49.179Z</time>
      </trkpt>
      <trkpt lat="47.542169" lon="7.951815">
        <ele>300.592721</ele>
        <time>2021-11-18T23:08:58.917Z</time>
      </trkpt>
      <trkpt lat="47.542192" lon="7.951713">
        <ele>300.612271</ele>
        <time>2021-11-18T23:09:00.180Z</time>
      </trkpt>
      <trkpt lat="47.542357" lon="7.951037">
        <ele>300.747731</ele>
        <time>2021-11-18T23:09:07.644Z</time>
      </trkpt>
      <trkpt lat="47.542444" lon="7.950687">
        <ele>300.824369</ele>
        <time>2021-11-18T23:09:11.475Z</time>
      </trkpt>
      <trkpt lat="47.542546" lon="7.950274">
        <ele>300.914732</ele>
        <time>2021-11-18T23:09:15.822Z</time>
      </trkpt>
      <trkpt lat="47.542554" lon="7.950231">
        <ele>300.923897</ele>
        <time>2021-11-18T23:09:16.309Z</time>
      </trkpt>
      <trkpt lat="47.542560" lon="7.950202">
        <ele>300.930129</ele>
        <time>2021-11-18T23:09:16.642Z</time>
      </trkpt>
      <trkpt lat="47.542609" lon="7.949914">
        <ele>300.991157</ele>
        <time>2021-11-18T23:09:19.641Z</time>
      </trkpt>
      <trkpt lat="47.542719" lon="7.949175">
        <ele>301.146652</ele>
        <time>2021-11-18T23:09:27.544Z</time>
      </trkpt>
      <trkpt lat="47.542826" lon="7.948298">
        <ele>301.622508</ele>
        <time>2021-11-18T23:09:38.487Z</time>
      </trkpt>
      <trkpt lat="47.542838" lon="7.948225">
        <ele>301.697393</ele>
        <time>2021-11-18T23:09:39.315Z</time>
      </trkpt>
      <trkpt lat="47.542875" lon="7.948001">
        <ele>301.927239</ele>
        <time>2021-11-18T23:09:42.198Z</time>
      </trkpt>
      <trkpt lat="47.542928" lon="7.947798">
        <ele>302.144174</ele>
        <time>2021-11-18T23:09:45.121Z</time>
      </trkpt>
      <trkpt lat="47.542957" lon="7.947651">
        <ele>302.296816</ele>
        <time>2021-11-18T23:09:46.829Z</time>
      </trkpt>
      <trkpt lat="47.543050" lon="7.947411">
        <ele>302.572632</ele>
        <time>2021-11-18T23:09:51.193Z</time>
      </trkpt>
      <trkpt lat="47.543087" lon="7.947317">
        <ele>302.681085</ele>
        <time>2021-11-18T23:09:52.472Z</time>
      </trkpt>
      <trkpt lat="47.543092" lon="7.947257">
        <ele>302.741341</ele>
        <time>2021-11-18T23:09:53.262Z</time>
      </trkpt>
      <trkpt lat="47.543097" lon="7.947186">
        <ele>302.812490</ele>
        <time>2021-11-18T23:09:54.111Z</time>
      </trkpt>
      <trkpt lat="47.543086" lon="7.947052">
        <ele>302.947030</ele>
        <time>2021-11-18T23:09:55.941Z</time>
      </trkpt>
      <trkpt lat="47.543056" lon="7.946935">
        <ele>303.071772</ele>
        <time>2021-11-18T23:09:58.308Z</time>
      </trkpt>
      <trkpt lat="47.543045" lon="7.946881">
        <ele>303.127990</ele>
        <time>2021-11-18T23:09:59.420Z</time>
      </trkpt>
      <trkpt lat="47.542982" lon="7.946547">
        <ele>303.473637</ele>
        <time>2021-11-18T23:10:04.019Z</time>
      </trkpt>
      <trkpt lat="47.542974" lon="7.946495">
        <ele>303.526794</ele>
        <time>2021-11-18T23:10:05.233Z</time>
      </trkpt>
      <trkpt lat="47.542960" lon="7.946400">
        <ele>303.623709</ele>
        <time>2021-11-18T23:10:07.069Z</time>
      </trkpt>
      <trkpt lat="47.542916" lon="7.945730">
        <ele>304.326811</ele>
        <time>2021-11-18T23:10:17.646Z</time>
      </trkpt>
      <trkpt lat="47.542913" lon="7.945267">
        <ele>304.826836</ele>
        <time>2021-11-18T23:10:25.132Z</time>
      </trkpt>
      <trkpt lat="47.543007" lon="7.943867">
        <ele>306.346182</ele>
        <time>2021-11-18T23:10:45.871Z</time>
      </trkpt>
      <trkpt lat="47.543161" lon="7.942213">
        <ele>306.455897</ele>
        <time>2021-11-18T23:11:04.277Z</time>
      </trkpt>
      <trkpt lat="47.543435" lon="7.940670">
        <ele>305.870813</ele>
        <time>2021-11-18T23:11:17.225Z</time>
      </trkpt>
      <trkpt lat="47.543826" lon="7.939433">
        <ele>304.331458</ele>
        <time>2021-11-18T23:11:27.627Z</time>
      </trkpt>
      <trkpt lat="47.544472" lon="7.937932">
        <ele>302.300285</ele>
        <time>2021-11-18T23:11:40.968Z</time>
      </trkpt>
      <trkpt lat="47.544705" lon="7.937395">
        <ele>301.557179</ele>
        <time>2021-11-18T23:11:45.863Z</time>
      </trkpt>
      <trkpt lat="47.544903" lon="7.936917">
        <ele>300.904343</ele>
        <time>2021-11-18T23:11:50.127Z</time>
      </trkpt>
      <trkpt lat="47.545074" lon="7.936484">
        <ele>300.320379</ele>
        <time>2021-11-18T23:11:53.953Z</time>
      </trkpt>
      <trkpt lat="47.545374" lon="7.935408">
        <ele>299.378621</ele>
        <time>2021-11-18T23:12:02.799Z</time>
      </trkpt>
      <trkpt lat="47.545414" lon="7.935264">
        <ele>299.270976</ele>
        <time>2021-11-18T23:12:04.065Z</time>
      </trkpt>
      <trkpt lat="47.545457" lon="7.935110">
        <ele>299.155769</ele>
        <time>2021-11-18T23:12:05.325Z</time>
      </trkpt>
      <trkpt lat="47.545674" lon="7.933625">
        <ele>298.179634</ele>
        <time>2021-11-18T23:12:18.428Z</time>
      </trkpt>
      <trkpt lat="47.545702" lon="7.933290">
        <ele>298.431927</ele>
        <time>2021-11-18T23:12:21.950Z</time>
      </trkpt>
      <trkpt lat="47.545724" lon="7.932758">
        <ele>298.830292</ele>
        <time>2021-11-18T23:12:27.997Z</time>
      </trkpt>
      <trkpt lat="47.545721" lon="7.931992">
        <ele>299.402814</ele>
        <time>2021-11-18T23:12:38.037Z</time>
      </trkpt>
      <trkpt lat="47.545696" lon="7.931497">
        <ele>299.773814</ele>
        <time>2021-11-18T23:12:45.242Z</time>
      </trkpt>
      <trkpt lat="47.545661" lon="7.930955">
        <ele>300.198529</ele>
        <time>2021-11-18T23:12:53.937Z</time>
      </trkpt>
      <trkpt lat="47.545563" lon="7.929641">
        <ele>301.551665</ele>
        <time>2021-11-18T23:13:16.277Z</time>
      </trkpt>
      <trkpt lat="47.545475" lon="7.928419">
        <ele>302.809550</ele>
        <time>2021-11-18T23:13:32.579Z</time>
      </trkpt>
      <trkpt lat="47.545421" lon="7.927686">
        <ele>301.886959</ele>
        <time>2021-11-18T23:13:38.683Z</time>
      </trkpt>
      <trkpt lat="47.545406" lon="7.927306">
        <ele>301.348566</ele>
        <time>2021-11-18T23:13:41.587Z</time>
      </trkpt>
      <trkpt lat="47.545407" lon="7.927001">
        <ele>300.917166</ele>
        <time>2021-11-18T23:13:43.873Z</time>
      </trkpt>
      <trkpt lat="47.545409" lon="7.926773">
        <ele>300.594654</ele>
        <time>2021-11-18T23:13:45.503Z</time>
      </trkpt>
      <trkpt lat="47.545417" lon="7.925848">
        <ele>299.286219</ele>
        <time>2021-11-18T23:13:51.838Z</time>
      </trkpt>
      <trkpt lat="47.545446" lon="7.925350">
        <ele>298.204155</ele>
        <time>2021-11-18T23:13:55.130Z</time>
      </trkpt>
      <trkpt lat="47.545466" lon="7.924880">
        <ele>297.050070</ele>
        <time>2021-11-18T23:13:58.183Z</time>
      </trkpt>
      <trkpt lat="47.545481" lon="7.924396">
        <ele>295.862714</ele>
        <time>2021-11-18T23:14:01.266Z</time>
      </trkpt>
      <trkpt lat="47.545521" lon="7.923709">
        <ele>294.172879</ele>
        <time>2021-11-18T23:14:05.792Z</time>
      </trkpt>
      <trkpt lat="47.545536" lon="7.923407">
        <ele>293.430788</ele>
        <time>2021-11-18T23:14:08.181Z</time>
      </trkpt>
      <trkpt lat="47.545553" lon="7.923142">
        <ele>292.778444</ele>
        <time>2021-11-18T23:14:09.902Z</time>
      </trkpt>
      <trkpt lat="47.545587" lon="7.922895">
        <ele>292.408011</ele>
        <time>2021-11-18T23:14:12.303Z</time>
      </trkpt>
      <trkpt lat="47.545641" lon="7.922610">
        <ele>292.130623</ele>
        <time>2021-11-18T23:14:14.302Z</time>
      </trkpt>
      <trkpt lat="47.545690" lon="7.922369">
        <ele>291.894766</ele>
        <time>2021-11-18T23:14:16.993Z</time>
      </trkpt>
      <trkpt lat="47.545699" lon="7.922325">
        <ele>291.851683</ele>
        <time>2021-11-18T23:14:17.254Z</time>
      </trkpt>
      <trkpt lat="47.545714" lon="7.922249">
        <ele>291.777483</ele>
        <time>2021-11-18T23:14:17.844Z</time>
      </trkpt>
      <trkpt lat="47.545778" lon="7.921947">
        <ele>291.480868</ele>
        <time>2021-11-18T23:14:21.000Z</time>
      </trkpt>
      <trkpt lat="47.545810" lon="7.921755">
        <ele>291.295547</ele>
        <time>2021-11-18T23:14:22.358Z</time>
      </trkpt>
      <trkpt lat="47.545881" lon="7.921096">
        <ele>290.670201</ele>
        <time>2021-11-18T23:14:27.706Z</time>
      </trkpt>
      <trkpt lat="47.545913" lon="7.920765">
        <ele>290.356865</ele>
        <time>2021-11-18T23:14:30.573Z</time>
      </trkpt>
      <trkpt lat="47.545973" lon="7.920313">
        <ele>290.026456</ele>
        <time>2021-11-18T23:14:35.720Z</time>
      </trkpt>
      <trkpt lat="47.546128" lon="7.919617">
        <ele>289.840088</ele>
        <time>2021-11-18T23:14:42.183Z</time>
      </trkpt>
      <trkpt lat="47.546262" lon="7.919081">
        <ele>289.694742</ele>
        <time>2021-11-18T23:14:48.182Z</time>
      </trkpt>
      <trkpt lat="47.546821" lon="7.916867">
        <ele>289.029163</ele>
        <time>2021-11-18T23:15:08.935Z</time>
      </trkpt>
      <trkpt lat="47.547032" lon="7.916218">
        <ele>288.805656</ele>
        <time>2021-11-18T23:15:15.425Z</time>
      </trkpt>
      <trkpt lat="47.547091" lon="7.916039">
        <ele>288.743849</ele>
        <time>2021-11-18T23:15:17.243Z</time>
      </trkpt>
      <trkpt lat="47.547113" lon="7.915971">
        <ele>288.720453</ele>
        <time>2021-11-18T23:15:17.842Z</time>
      </trkpt>
      <trkpt lat="47.547423" lon="7.915080">
        <ele>288.647657</ele>
        <time>2021-11-18T23:15:27.486Z</time>
      </trkpt>
      <trkpt lat="47.547994" lon="7.913433">
        <ele>288.983370</ele>
        <time>2021-11-18T23:15:47.205Z</time>
      </trkpt>
      <trkpt lat="47.548027" lon="7.913334">
        <ele>289.003389</ele>
        <time>2021-11-18T23:15:48.565Z</time>
      </trkpt>
      <trkpt lat="47.548412" lon="7.912168">
        <ele>289.744467</ele>
        <time>2021-11-18T23:16:04.968Z</time>
      </trkpt>
      <trkpt lat="47.549012" lon="7.910340">
        <ele>290.828838</ele>
        <time>2021-11-18T23:16:31.331Z</time>
      </trkpt>
      <trkpt lat="47.549102" lon="7.910058">
        <ele>290.866973</ele>
        <time>2021-11-18T23:16:34.562Z</time>
      </trkpt>
      <trkpt lat="47.549195" lon="7.909756">
        <ele>290.907554</ele>
        <time>2021-11-18T23:16:38.199Z</time>
      </trkpt>
      <trkpt lat="47.549320" lon="7.909341">
        <ele>290.963111</ele>
        <time>2021-11-18T23:16:42.576Z</time>
      </trkpt>
      <trkpt lat="47.549520" lon="7.908678">
        <ele>291.051891</ele>
        <time>2021-11-18T23:16:49.617Z</time>
      </trkpt>
      <trkpt lat="47.549570" lon="7.908713">
        <ele>291.061907</ele>
        <time>2021-11-18T23:16:50.503Z</time>
      </trkpt>
      <trkpt lat="47.549716" lon="7.908814">
        <ele>291.091092</ele>
        <time>2021-11-18T23:16:53.874Z</time>
      </trkpt>
      <trkpt lat="47.549834" lon="7.908903">
        <ele>291.072489</ele>
        <time>2021-11-18T23:16:56.684Z</time>
      </trkpt>
      <trkpt lat="47.549868" lon="7.908936">
        <ele>291.059218</ele>
        <time>2021-11-18T23:16:57.327Z</time>
      </trkpt>
      <trkpt lat="47.550016" lon="7.908811">
        <ele>291.003592</ele>
        <time>2021-11-18T23:17:00.872Z</time>
      </trkpt>
      <trkpt lat="47.550232" lon="7.908622">
        <ele>290.921681</ele>
        <time>2021-11-18T23:17:05.596Z</time>
      </trkpt>
      <trkpt lat="47.550479" lon="7.908391">
        <ele>290.826307</ele>
        <time>2021-11-18T23:17:11.224Z</time>
      </trkpt>
      <trkpt lat="47.550899" lon="7.908013">
        <ele>290.665848</ele>
        <time>2021-11-18T23:17:20.262Z</time>
      </trkpt>
      <trkpt lat="47.551402" lon="7.907526">
        <ele>290.476152</ele>
        <time>2021-11-18T23:17:31.653Z</time>
      </trkpt>
      <trkpt lat="47.551792" lon="7.907172">
        <ele>290.349430</ele>
        <time>2021-11-18T23:17:40.944Z</time>
      </trkpt>
      <trkpt lat="47.552096" lon="7.906888">
        <ele>290.249855</ele>
        <time>2021-11-18T23:17:48.079Z</time>
      </trkpt>
      <trkpt lat="47.552226" lon="7.906759">
        <ele>290.206505</ele>
        <time>2021-11-18T23:17:51.137Z</time>
      </trkpt>
      <trkpt lat="47.552291" lon="7.906699">
        <ele>290.185286</ele>
        <time>2021-11-18T23:17:52.581Z</time>
      </trkpt>
      <trkpt lat="47.552608" lon="7.906402">
        <ele>290.081369</ele>
        <time>2021-11-18T23:17:59.653Z</time>
      </trkpt>
      <trkpt lat="47.552801" lon="7.906231">
        <ele>290.019063</ele>
        <time>2021-11-18T23:18:03.785Z</time>
      </trkpt>
      <trkpt lat="47.553136" lon="7.905906">
        <ele>289.841665</ele>
        <time>2021-11-18T23:18:10.996Z</time>
      </trkpt>
      <trkpt lat="47.553646" lon="7.905413">
        <ele>289.567288</ele>
        <time>2021-11-18T23:18:22.086Z</time>
      </trkpt>
      <trkpt lat="47.555020" lon="7.904104">
        <ele>289.196026</ele>
        <time>2021-11-18T23:18:53.761Z</time>
      </trkpt>
      <trkpt lat="47.555075" lon="7.904049">
        <ele>289.195402</ele>
        <time>2021-11-18T23:18:55.123Z</time>
      </trkpt>
      <trkpt lat="47.555439" lon="7.903688">
        <ele>289.191284</ele>
        <time>2021-11-18T23:19:04.024Z</time>
      </trkpt>
      <trkpt lat="47.555887" lon="7.903437">
        <ele>289.187692</ele>
        <time>2021-11-18T23:19:14.232Z</time>
      </trkpt>
      <trkpt lat="47.556264" lon="7.903272">
        <ele>289.215202</ele>
        <time>2021-11-18T23:19:22.849Z</time>
      </trkpt>
      <trkpt lat="47.556414" lon="7.903196">
        <ele>289.226296</ele>
        <time>2021-11-18T23:19:26.341Z</time>
      </trkpt>
      <trkpt lat="47.556927" lon="7.902928">
        <ele>289.264363</ele>
        <time>2021-11-18T23:19:37.423Z</time>
      </trkpt>
      <trkpt lat="47.557005" lon="7.902862">
        <ele>289.270649</ele>
        <time>2021-11-18T23:19:39.110Z</time>
      </trkpt>
      <trkpt lat="47.556937" lon="7.902666">
        <ele>289.281057</ele>
        <time>2021-11-18T23:19:41.317Z</time>
      </trkpt>
      <trkpt lat="47.556921" lon="7.902605">
        <ele>289.284148</ele>
        <time>2021-11-18T23:19:41.960Z</time>
      </trkpt>
      <trkpt lat="47.556819" lon="7.902228">
        <ele>289.303331</ele>
        <time>2021-11-18T23:19:45.756Z</time>
      </trkpt>
      <trkpt lat="47.556915" lon="7.902195">
        <ele>289.310227</ele>
        <time>2021-11-18T23:19:47.710Z</time>
      </trkpt>
      <trkpt lat="47.557206" lon="7.902186">
        <ele>289.324582</ele>
        <time>2021-11-18T23:19:53.449Z</time>
      </trkpt>
      <trkpt lat="47.557459" lon="7.902177">
        <ele>289.336319</ele>
        <time>2021-11-18T23:19:58.396Z</time>
      </trkpt>
      <trkpt lat="47.558097" lon="7.902154">
        <ele>289.365918</ele>
        <time>2021-11-18T23:20:11.532Z</time>
      </trkpt>
      <trkpt lat="47.558210" lon="7.902153">
        <ele>289.371159</ele>
        <time>2021-11-18T23:20:13.937Z</time>
      </trkpt>
      <trkpt lat="47.558497" lon="7.902151">
        <ele>289.384470</ele>
        <time>2021-11-18T23:20:19.587Z</time>
      </trkpt>
      <trkpt lat="47.558807" lon="7.902157">
        <ele>289.484914</ele>
        <time>2021-11-18T23:20:25.777Z</time>
      </trkpt>
      <trkpt lat="47.559225" lon="7.902167">
        <ele>290.130261</ele>
        <time>2021-11-18T23:20:34.901Z</time>
      </trkpt>
      <trkpt lat="47.559545" lon="7.902173">
        <ele>290.624281</ele>
        <time>2021-11-18T23:20:42.692Z</time>
      </trkpt>
      <trkpt lat="47.559605" lon="7.902200">
        <ele>290.721079</ele>
        <time>2021-11-18T23:20:44.469Z</time>
      </trkpt>
      <trkpt lat="47.559887" lon="7.901206">
        <ele>291.844329</ele>
        <time>2021-11-18T23:21:05.075Z</time>
      </trkpt>
      <trkpt lat="47.560140" lon="7.900546">
        <ele>293.291914</ele>
        <time>2021-11-18T23:21:21.548Z</time>
      </trkpt>
      <trkpt lat="47.560252" lon="7.900273">
        <ele>294.097613</ele>
        <time>2021-11-18T23:21:28.698Z</time>
      </trkpt>
      <trkpt lat="47.560503" lon="7.899955">
        <ele>295.331683</ele>
        <time>2021-11-18T23:21:39.803Z</time>
      </trkpt>
      <trkpt lat="47.560560" lon="7.899898">
        <ele>295.588657</ele>
        <time>2021-11-18T23:21:42.621Z</time>
      </trkpt>
      <trkpt lat="47.560614" lon="7.899831">
        <ele>295.851850</ele>
        <time>2021-11-18T23:21:45.059Z</time>
      </trkpt>
      <trkpt lat="47.560752" lon="7.899659">
        <ele>296.525714</ele>
        <time>2021-11-18T23:21:51.178Z</time>
      </trkpt>
      <trkpt lat="47.561186" lon="7.899144">
        <ele>298.603482</ele>
        <time>2021-11-18T23:22:12.161Z</time>
      </trkpt>
      <trkpt lat="47.561263" lon="7.899045">
        <ele>299.024406</ele>
        <time>2021-11-18T23:22:15.902Z</time>
      </trkpt>
      <trkpt lat="47.561688" lon="7.898494">
        <ele>302.070518</ele>
        <time>2021-11-18T23:22:39.501Z</time>
      </trkpt>
      <trkpt lat="47.562186" lon="7.897876">
        <ele>305.574397</ele>
        <time>2021-11-18T23:23:06.283Z</time>
      </trkpt>
      <trkpt lat="47.562606" lon="7.897223">
        <ele>308.893586</ele>
        <time>2021-11-18T23:23:32.121Z</time>
      </trkpt>
      <trkpt lat="47.562667" lon="7.897011">
        <ele>309.846324</ele>
        <time>2021-11-18T23:23:39.483Z</time>
      </trkpt>
      <trkpt lat="47.563035" lon="7.895741">
        <ele>315.559954</ele>
        <time>2021-11-18T23:24:16.268Z</time>
      </trkpt>
      <trkpt lat="47.563087" lon="7.895432">
        <ele>316.876446</ele>
        <time>2021-11-18T23:24:26.085Z</time>
      </trkpt>
      <trkpt lat="47.563106" lon="7.895315">
        <ele>317.373918</ele>
        <time>2021-11-18T23:24:28.866Z</time>
      </trkpt>
      <trkpt lat="47.563147" lon="7.894977">
        <ele>318.793563</ele>
        <time>2021-11-18T23:24:38.758Z</time>
      </trkpt>
      <trkpt lat="47.563317" lon="7.893307">
        <ele>323.605273</ele>
        <time>2021-11-18T23:25:17.968Z</time>
      </trkpt>
      <trkpt lat="47.563330" lon="7.892455">
        <ele>325.887092</ele>
        <time>2021-11-18T23:25:33.375Z</time>
      </trkpt>
      <trkpt lat="47.563136" lon="7.890927">
        <ele>327.799294</ele>
        <time>2021-11-18T23:25:56.086Z</time>
      </trkpt>
      <trkpt lat="47.562987" lon="7.890433">
        <ele>328.259113</ele>
        <time>2021-11-18T23:26:02.796Z</time>
      </trkpt>
      <trkpt lat="47.562933" lon="7.890330">
        <ele>328.369954</ele>
        <time>2021-11-18T23:26:04.304Z</time>
      </trkpt>
      <trkpt lat="47.562868" lon="7.890182">
        <ele>328.520014</ele>
        <time>2021-11-18T23:26:06.356Z</time>
      </trkpt>
      <trkpt lat="47.563039" lon="7.889397">
        <ele>329.141440</ele>
        <time>2021-11-18T23:26:15.877Z</time>
      </trkpt>
      <trkpt lat="47.563560" lon="7.887288">
        <ele>330.302309</ele>
        <time>2021-11-18T23:26:42.194Z</time>
      </trkpt>
      <trkpt lat="47.563657" lon="7.886867">
        <ele>330.716652</ele>
        <time>2021-11-18T23:26:48.189Z</time>
      </trkpt>
      <trkpt lat="47.563909" lon="7.886506">
        <ele>331.347682</ele>
        <time>2021-11-18T23:26:55.479Z</time>
      </trkpt>
      <trkpt lat="47.565560" lon="7.884206">
        <ele>336.019977</ele>
        <time>2021-11-18T23:27:47.861Z</time>
      </trkpt>
      <trkpt lat="47.566604" lon="7.882741">
        <ele>339.672184</ele>
        <time>2021-11-18T23:28:25.354Z</time>
      </trkpt>
      <trkpt lat="47.566690" lon="7.882620">
        <ele>339.995110</ele>
        <time>2021-11-18T23:28:28.739Z</time>
      </trkpt>
      <trkpt lat="47.567774" lon="7.881098">
        <ele>343.252450</ele>
        <time>2021-11-18T23:29:07.368Z</time>
      </trkpt>
      <trkpt lat="47.568855" lon="7.879614">
        <ele>344.332733</ele>
        <time>2021-11-18T23:29:31.771Z</time>
      </trkpt>
      <trkpt lat="47.569889" lon="7.878149">
        <ele>342.474157</ele>
        <time>2021-11-18T23:29:48.063Z</time>
      </trkpt>
      <trkpt lat="47.569974" lon="7.878003">
        <ele>342.305107</ele>
        <time>2021-11-18T23:29:49.499Z</time>
      </trkpt>
      <trkpt lat="47.570440" lon="7.877017">
        <ele>341.145999</ele>
        <time>2021-11-18T23:29:58.696Z</time>
      </trkpt>
      <trkpt lat="47.570733" lon="7.876421">
        <ele>340.425482</ele>
        <time>2021-11-18T23:30:04.502Z</time>
      </trkpt>
      <trkpt lat="47.571754" lon="7.874288">
        <ele>338.211758</ele>
        <time>2021-11-18T23:30:25.340Z</time>
      </trkpt>
      <trkpt lat="47.571754" lon="7.874288">
        <ele>338.211758</ele>
        <time>2021-11-18T23:30:25.586Z</time>
      </trkpt>
      <trkpt lat="47.571754" lon="7.874288">
        <ele>338.211758</ele>
        <time>2021-11-18T23:30:25.605Z</time>
      </trkpt>
      <trkpt lat="47.571884" lon="7.874018">
        <ele>337.953532</ele>
        <time>2021-11-18T23:30:28.243Z</time>
      </trkpt>
      <trkpt lat="47.572765" lon="7.872183">
        <ele>337.113677</ele>
        <time>2021-11-18T23:30:47.289Z</time>
      </trkpt>
      <trkpt lat="47.572867" lon="7.871849">
        <ele>337.032705</ele>
        <time>2021-11-18T23:30:50.914Z</time>
      </trkpt>
      <trkpt lat="47.573081" lon="7.871074">
        <ele>337.030998</ele>
        <time>2021-11-18T23:31:00.365Z</time>
      </trkpt>
      <trkpt lat="47.573242" lon="7.870224">
        <ele>337.754537</ele>
        <time>2021-11-18T23:31:12.024Z</time>
      </trkpt>
      <trkpt lat="47.573270" lon="7.869980">
        <ele>337.957375</ele>
        <time>2021-11-18T23:31:15.476Z</time>
      </trkpt>
      <trkpt lat="47.573327" lon="7.869478">
        <ele>338.374567</ele>
        <time>2021-11-18T23:31:22.971Z</time>
      </trkpt>
      <trkpt lat="47.573388" lon="7.869020">
        <ele>338.757158</ele>
        <time>2021-11-18T23:31:29.908Z</time>
      </trkpt>
      <trkpt lat="47.573580" lon="7.868234">
        <ele>338.818092</ele>
        <time>2021-11-18T23:31:41.161Z</time>
      </trkpt>
      <trkpt lat="47.573902" lon="7.867343">
        <ele>338.251591</ele>
        <time>2021-11-18T23:31:52.344Z</time>
      </trkpt>
      <trkpt lat="47.574034" lon="7.867032">
        <ele>338.045664</ele>
        <time>2021-11-18T23:31:55.401Z</time>
      </trkpt>
      <trkpt lat="47.574854" lon="7.865675">
        <ele>333.406834</ele>
        <time>2021-11-18T23:32:07.739Z</time>
      </trkpt>
      <trkpt lat="47.575475" lon="7.864127">
        <ele>325.671547</ele>
        <time>2021-11-18T23:32:18.464Z</time>
      </trkpt>
      <trkpt lat="47.575527" lon="7.863840">
        <ele>324.122900</ele>
        <time>2021-11-18T23:32:20.283Z</time>
      </trkpt>
      <trkpt lat="47.575529" lon="7.863765">
        <ele>323.731748</ele>
        <time>2021-11-18T23:32:20.705Z</time>
      </trkpt>
      <trkpt lat="47.575529" lon="7.863690">
        <ele>323.340900</ele>
        <time>2021-11-18T23:32:21.133Z</time>
      </trkpt>
      <trkpt lat="47.575296" lon="7.862440">
        <ele>316.582674</ele>
        <time>2021-11-18T23:32:28.813Z</time>
      </trkpt>
      <trkpt lat="47.575288" lon="7.862118">
        <ele>314.903490</ele>
        <time>2021-11-18T23:32:30.693Z</time>
      </trkpt>
      <trkpt lat="47.575373" lon="7.861941">
        <ele>313.771251</ele>
        <time>2021-11-18T23:32:32.052Z</time>
      </trkpt>
      <trkpt lat="47.576083" lon="7.861029">
        <ele>310.164582</ele>
        <time>2021-11-18T23:32:40.981Z</time>
      </trkpt>
      <trkpt lat="47.576292" lon="7.860775">
        <ele>309.369902</ele>
        <time>2021-11-18T23:32:43.813Z</time>
      </trkpt>
      <trkpt lat="47.576060" lon="7.860505">
        <ele>308.502606</ele>
        <time>2021-11-18T23:32:48.876Z</time>
      </trkpt>
      <trkpt lat="47.575661" lon="7.860260">
        <ele>307.232712</ele>
        <time>2021-11-18T23:32:56.258Z</time>
      </trkpt>
      <trkpt lat="47.575482" lon="7.860014">
        <ele>307.178538</ele>
        <time>2021-11-18T23:33:01.291Z</time>
      </trkpt>
      <trkpt lat="47.575090" lon="7.859216">
        <ele>307.369832</ele>
        <time>2021-11-18T23:33:16.184Z</time>
      </trkpt>
      <trkpt lat="47.574369" lon="7.857634">
        <ele>307.604498</ele>
        <time>2021-11-18T23:33:44.858Z</time>
      </trkpt>
      <trkpt lat="47.574089" lon="7.857293">
        <ele>307.572714</ele>
        <time>2021-11-18T23:33:51.788Z</time>
      </trkpt>
      <trkpt lat="47.573544" lon="7.856804">
        <ele>307.516837</ele>
        <time>2021-11-18T23:34:03.942Z</time>
      </trkpt>
      <trkpt lat="47.572923" lon="7.856141">
        <ele>307.284614</ele>
        <time>2021-11-18T23:34:19.084Z</time>
      </trkpt>
      <trkpt lat="47.572248" lon="7.855212">
        <ele>306.738762</ele>
        <time>2021-11-18T23:34:36.097Z</time>
      </trkpt>
      <trkpt lat="47.571837" lon="7.854626">
        <ele>306.393528</ele>
        <time>2021-11-18T23:34:46.147Z</time>
      </trkpt>
      <trkpt lat="47.571655" lon="7.854341">
        <ele>306.139005</ele>
        <time>2021-11-18T23:34:50.574Z</time>
      </trkpt>
      <trkpt lat="47.571552" lon="7.854175">
        <ele>305.992728</ele>
        <time>2021-11-18T23:34:53.214Z</time>
      </trkpt>
      <trkpt lat="47.571426" lon="7.854000">
        <ele>305.826730</ele>
        <time>2021-11-18T23:34:56.105Z</time>
      </trkpt>
      <trkpt lat="47.570995" lon="7.853612">
        <ele>305.341952</ele>
        <time>2021-11-18T23:35:04.849Z</time>
      </trkpt>
      <trkpt lat="47.571006" lon="7.853563">
        <ele>305.308457</ele>
        <time>2021-11-18T23:35:05.360Z</time>
      </trkpt>
      <trkpt lat="47.571040" lon="7.853377">
        <ele>305.183468</ele>
        <time>2021-11-18T23:35:07.527Z</time>
      </trkpt>
      <trkpt lat="47.570248" lon="7.851287">
        <ele>304.240770</ele>
        <time>2021-11-18T23:35:37.337Z</time>
      </trkpt>
      <trkpt lat="47.569969" lon="7.850553">
        <ele>304.011449</ele>
        <time>2021-11-18T23:35:48.627Z</time>
      </trkpt>
      <trkpt lat="47.569218" lon="7.848472">
        <ele>303.476144</ele>
        <time>2021-11-18T23:36:19.361Z</time>
      </trkpt>
      <trkpt lat="47.569190" lon="7.848402">
        <ele>303.458023</ele>
        <time>2021-11-18T23:36:20.343Z</time>
      </trkpt>
      <trkpt lat="47.569029" lon="7.847943">
        <ele>303.341015</ele>
        <time>2021-11-18T23:36:26.646Z</time>
      </trkpt>
      <trkpt lat="47.568935" lon="7.847675">
        <ele>303.268038</ele>
        <time>2021-11-18T23:36:30.395Z</time>
      </trkpt>
      <trkpt lat="47.568515" lon="7.846479">
        <ele>302.942279</ele>
        <time>2021-11-18T23:36:47.353Z</time>
      </trkpt>
      <trkpt lat="47.568494" lon="7.846252">
        <ele>302.886921</ele>
        <time>2021-11-18T23:36:50.384Z</time>
      </trkpt>
      <trkpt lat="47.568507" lon="7.846212">
        <ele>302.876194</ele>
        <time>2021-11-18T23:36:50.882Z</time>
      </trkpt>
      <trkpt lat="47.568447" lon="7.846163">
        <ele>302.851663</ele>
        <time>2021-11-18T23:36:52.230Z</time>
      </trkpt>
      <trkpt lat="47.568380" lon="7.846056">
        <ele>302.816393</ele>
        <time>2021-11-18T23:36:54.182Z</time>
      </trkpt>
      <trkpt lat="47.568337" lon="7.845953">
        <ele>302.787128</ele>
        <time>2021-11-18T23:36:55.821Z</time>
      </trkpt>
      <trkpt lat="47.568270" lon="7.845762">
        <ele>302.735117</ele>
        <time>2021-11-18T23:36:58.671Z</time>
      </trkpt>
      <trkpt lat="47.567488" lon="7.843506">
        <ele>302.571590</ele>
        <time>2021-11-18T23:37:32.937Z</time>
      </trkpt>
      <trkpt lat="47.567439" lon="7.843376">
        <ele>302.562656</ele>
        <time>2021-11-18T23:37:34.906Z</time>
      </trkpt>
      <trkpt lat="47.566996" lon="7.842102">
        <ele>302.541968</ele>
        <time>2021-11-18T23:37:53.779Z</time>
      </trkpt>
      <trkpt lat="47.566903" lon="7.841865">
        <ele>302.538398</ele>
        <time>2021-11-18T23:37:57.436Z</time>
      </trkpt>
      <trkpt lat="47.566452" lon="7.840785">
        <ele>302.663670</ele>
        <time>2021-11-18T23:38:15.359Z</time>
      </trkpt>
      <trkpt lat="47.566401" lon="7.840664">
        <ele>302.737118</ele>
        <time>2021-11-18T23:38:17.370Z</time>
      </trkpt>
      <trkpt lat="47.566359" lon="7.840483">
        <ele>302.835656</ele>
        <time>2021-11-18T23:38:20.127Z</time>
      </trkpt>
      <trkpt lat="47.566350" lon="7.840350">
        <ele>302.904470</ele>
        <time>2021-11-18T23:38:22.178Z</time>
      </trkpt>
      <trkpt lat="47.566221" lon="7.840340">
        <ele>303.003030</ele>
        <time>2021-11-18T23:38:24.388Z</time>
      </trkpt>
      <trkpt lat="47.566142" lon="7.840322">
        <ele>303.064014</ele>
        <time>2021-11-18T23:38:25.609Z</time>
      </trkpt>
      <trkpt lat="47.566081" lon="7.840309">
        <ele>303.111035</ele>
        <time>2021-11-18T23:38:26.700Z</time>
      </trkpt>
      <trkpt lat="47.565906" lon="7.840272">
        <ele>303.245910</ele>
        <time>2021-11-18T23:38:29.995Z</time>
      </trkpt>
      <trkpt lat="47.565473" lon="7.840205">
        <ele>303.578080</ele>
        <time>2021-11-18T23:38:38.158Z</time>
      </trkpt>
      <trkpt lat="47.565343" lon="7.840185">
        <ele>303.677801</ele>
        <time>2021-11-18T23:38:40.719Z</time>
      </trkpt>
      <trkpt lat="47.565233" lon="7.840176">
        <ele>303.761858</ele>
        <time>2021-11-18T23:38:42.892Z</time>
      </trkpt>
      <trkpt lat="47.565168" lon="7.840179">
        <ele>303.811476</ele>
        <time>2021-11-18T23:38:44.191Z</time>
      </trkpt>
      <trkpt lat="47.565057" lon="7.840213">
        <ele>303.898056</ele>
        <time>2021-11-18T23:38:46.349Z</time>
      </trkpt>
      <trkpt lat="47.564936" lon="7.840261">
        <ele>304.030449</ele>
        <time>2021-11-18T23:38:48.899Z</time>
      </trkpt>
      <trkpt lat="47.564558" lon="7.840516">
        <ele>304.469417</ele>
        <time>2021-11-18T23:38:57.157Z</time>
      </trkpt>
      <trkpt lat="47.564534" lon="7.840532">
        <ele>304.497232</ele>
        <time>2021-11-18T23:38:57.650Z</time>
      </trkpt>
      <trkpt lat="47.564463" lon="7.840580">
        <ele>304.579714</ele>
        <time>2021-11-18T23:38:59.239Z</time>
      </trkpt>
      <trkpt lat="47.564094" lon="7.840838">
        <ele>305.010952</ele>
        <time>2021-11-18T23:39:06.936Z</time>
      </trkpt>
      <trkpt lat="47.563986" lon="7.840916">
        <ele>305.137935</ele>
        <time>2021-11-18T23:39:09.276Z</time>
      </trkpt>
      <trkpt lat="47.563941" lon="7.840948">
        <ele>305.190690</ele>
        <time>2021-11-18T23:39:10.202Z</time>
      </trkpt>
      <trkpt lat="47.563805" lon="7.841046">
        <ele>305.350525</ele>
        <time>2021-11-18T23:39:13.014Z</time>
      </trkpt>
      <trkpt lat="47.563659" lon="7.841150">
        <ele>305.521739</ele>
        <time>2021-11-18T23:39:15.899Z</time>
      </trkpt>
      <trkpt lat="47.563483" lon="7.841269">
        <ele>305.726207</ele>
        <time>2021-11-18T23:39:19.635Z</time>
      </trkpt>
      <trkpt lat="47.563300" lon="7.841391">
        <ele>305.950593</ele>
        <time>2021-11-18T23:39:23.187Z</time>
      </trkpt>
      <trkpt lat="47.563016" lon="7.841568">
        <ele>306.304926</ele>
        <time>2021-11-18T23:39:29.046Z</time>
      </trkpt>
      <trkpt lat="47.562965" lon="7.841597">
        <ele>306.367750</ele>
        <time>2021-11-18T23:39:30.022Z</time>
      </trkpt>
      <trkpt lat="47.562904" lon="7.841632">
        <ele>306.442980</ele>
        <time>2021-11-18T23:39:31.263Z</time>
      </trkpt>
      <trkpt lat="47.562574" lon="7.841873">
        <ele>306.866089</ele>
        <time>2021-11-18T23:39:38.228Z</time>
      </trkpt>
      <trkpt lat="47.562440" lon="7.842083">
        <ele>307.090389</ele>
        <time>2021-11-18T23:39:41.802Z</time>
      </trkpt>
      <trkpt lat="47.562385" lon="7.842183">
        <ele>307.190509</ele>
        <time>2021-11-18T23:39:43.347Z</time>
      </trkpt>
      <trkpt lat="47.562300" lon="7.842326">
        <ele>307.338402</ele>
        <time>2021-11-18T23:39:46.287Z</time>
      </trkpt>
      <trkpt lat="47.562179" lon="7.842500">
        <ele>307.532310</ele>
        <time>2021-11-18T23:39:49.741Z</time>
      </trkpt>
      <trkpt lat="47.561498" lon="7.843130">
        <ele>308.438979</ele>
        <time>2021-11-18T23:40:06.441Z</time>
      </trkpt>
      <trkpt lat="47.561434" lon="7.843181">
        <ele>308.520190</ele>
        <time>2021-11-18T23:40:08.267Z</time>
      </trkpt>
      <trkpt lat="47.561198" lon="7.843372">
        <ele>308.820712</ele>
        <time>2021-11-18T23:40:13.258Z</time>
      </trkpt>
      <trkpt lat="47.561038" lon="7.843502">
        <ele>309.024640</ele>
        <time>2021-11-18T23:40:16.977Z</time>
      </trkpt>
      <trkpt lat="47.560934" lon="7.843550">
        <ele>309.146377</ele>
        <time>2021-11-18T23:40:19.108Z</time>
      </trkpt>
      <trkpt lat="47.560812" lon="7.843560">
        <ele>309.282931</ele>
        <time>2021-11-18T23:40:21.355Z</time>
      </trkpt>
      <trkpt lat="47.560515" lon="7.843379">
        <ele>309.641829</ele>
        <time>2021-11-18T23:40:27.079Z</time>
      </trkpt>
      <trkpt lat="47.560430" lon="7.843341">
        <ele>309.741053</ele>
        <time>2021-11-18T23:40:28.906Z</time>
      </trkpt>
      <trkpt lat="47.560338" lon="7.843341">
        <ele>309.843871</ele>
        <time>2021-11-18T23:40:30.132Z</time>
      </trkpt>
      <trkpt lat="47.560209" lon="7.843393">
        <ele>309.878616</ele>
        <time>2021-11-18T23:40:32.579Z</time>
      </trkpt>
      <trkpt lat="47.560139" lon="7.843433">
        <ele>309.879417</ele>
        <time>2021-11-18T23:40:33.906Z</time>
      </trkpt>
      <trkpt lat="47.559847" lon="7.843604">
        <ele>309.882770</ele>
        <time>2021-11-18T23:40:39.061Z</time>
      </trkpt>
      <trkpt lat="47.559583" lon="7.843813">
        <ele>309.885967</ele>
        <time>2021-11-18T23:40:43.607Z</time>
      </trkpt>
      <trkpt lat="47.559158" lon="7.844233">
        <ele>309.891422</ele>
        <time>2021-11-18T23:40:50.817Z</time>
      </trkpt>
      <trkpt lat="47.559109" lon="7.844229">
        <ele>309.891946</ele>
        <time>2021-11-18T23:40:51.407Z</time>
      </trkpt>
      <trkpt lat="47.559060" lon="7.844197">
        <ele>309.892518</ele>
        <time>2021-11-18T23:40:52.038Z</time>
      </trkpt>
      <trkpt lat="47.558884" lon="7.843836">
        <ele>309.895727</ele>
        <time>2021-11-18T23:40:56.191Z</time>
      </trkpt>
      <trkpt lat="47.558555" lon="7.843392">
        <ele>309.905463</ele>
        <time>2021-11-18T23:41:02.229Z</time>
      </trkpt>
      <trkpt lat="47.558471" lon="7.843365">
        <ele>309.907597</ele>
        <time>2021-11-18T23:41:03.489Z</time>
      </trkpt>
      <trkpt lat="47.558405" lon="7.843371">
        <ele>309.909239</ele>
        <time>2021-11-18T23:41:04.660Z</time>
      </trkpt>
      <trkpt lat="47.558136" lon="7.843582">
        <ele>309.916795</ele>
        <time>2021-11-18T23:41:08.866Z</time>
      </trkpt>
      <trkpt lat="47.557967" lon="7.843683">
        <ele>309.921320</ele>
        <time>2021-11-18T23:41:11.578Z</time>
      </trkpt>
      <trkpt lat="47.557846" lon="7.843756">
        <ele>309.924563</ele>
        <time>2021-11-18T23:41:13.426Z</time>
      </trkpt>
      <trkpt lat="47.557759" lon="7.843839">
        <ele>309.927132</ele>
        <time>2021-11-18T23:41:15.205Z</time>
      </trkpt>
      <trkpt lat="47.557715" lon="7.843940">
        <ele>309.929146</ele>
        <time>2021-11-18T23:41:16.429Z</time>
      </trkpt>
      <trkpt lat="47.557569" lon="7.844405">
        <ele>309.937739</ele>
        <time>2021-11-18T23:41:22.063Z</time>
      </trkpt>
      <trkpt lat="47.557560" lon="7.844433">
        <ele>309.938259</ele>
        <time>2021-11-18T23:41:22.385Z</time>
      </trkpt>
      <trkpt lat="47.557282" lon="7.844832">
        <ele>310.117834</ele>
        <time>2021-11-18T23:41:28.818Z</time>
      </trkpt>
      <trkpt lat="47.557134" lon="7.845095">
        <ele>310.273734</ele>
        <time>2021-11-18T23:41:32.600Z</time>
      </trkpt>
      <trkpt lat="47.556636" lon="7.845928">
        <ele>310.780378</ele>
        <time>2021-11-18T23:41:45.452Z</time>
      </trkpt>
      <trkpt lat="47.556060" lon="7.846859">
        <ele>311.510734</ele>
        <time>2021-11-18T23:42:01.570Z</time>
      </trkpt>
      <trkpt lat="47.555990" lon="7.846965">
        <ele>311.630529</ele>
        <time>2021-11-18T23:42:03.554Z</time>
      </trkpt>
      <trkpt lat="47.555966" lon="7.846932">
        <ele>311.669717</ele>
        <time>2021-11-18T23:42:04.142Z</time>
      </trkpt>
      <trkpt lat="47.555892" lon="7.846856">
        <ele>311.777483</ele>
        <time>2021-11-18T23:42:05.697Z</time>
      </trkpt>
      <trkpt lat="47.555855" lon="7.846815">
        <ele>311.832782</ele>
        <time>2021-11-18T23:42:06.606Z</time>
      </trkpt>
      <trkpt lat="47.555727" lon="7.846715">
        <ele>312.005976</ele>
        <time>2021-11-18T23:42:09.607Z</time>
      </trkpt>
      <trkpt lat="47.555199" lon="7.846687">
        <ele>312.638346</ele>
        <time>2021-11-18T23:42:19.577Z</time>
      </trkpt>
      <trkpt lat="47.555068" lon="7.846672">
        <ele>312.795608</ele>
        <time>2021-11-18T23:42:22.437Z</time>
      </trkpt>
      <trkpt lat="47.554995" lon="7.846915">
        <ele>313.010464</ele>
        <time>2021-11-18T23:42:26.163Z</time>
      </trkpt>
      <trkpt lat="47.554892" lon="7.847148">
        <ele>313.235456</ele>
        <time>2021-11-18T23:42:30.131Z</time>
      </trkpt>
      <trkpt lat="47.554759" lon="7.847388">
        <ele>313.515937</ele>
        <time>2021-11-18T23:42:34.454Z</time>
      </trkpt>
      <trkpt lat="47.554621" lon="7.847622">
        <ele>313.808572</ele>
        <time>2021-11-18T23:42:38.933Z</time>
      </trkpt>
      <trkpt lat="47.554618" lon="7.847626">
        <ele>313.814204</ele>
        <time>2021-11-18T23:42:39.014Z</time>
      </trkpt>
      <trkpt lat="47.554465" lon="7.847858">
        <ele>314.119667</ele>
        <time>2021-11-18T23:42:43.647Z</time>
      </trkpt>
      <trkpt lat="47.554351" lon="7.848049">
        <ele>314.359780</ele>
        <time>2021-11-18T23:42:46.943Z</time>
      </trkpt>
      <trkpt lat="47.554269" lon="7.848188">
        <ele>314.533634</ele>
        <time>2021-11-18T23:42:49.434Z</time>
      </trkpt>
      <trkpt lat="47.554209" lon="7.848300">
        <ele>314.668294</ele>
        <time>2021-11-18T23:42:51.572Z</time>
      </trkpt>
      <trkpt lat="47.554055" lon="7.848586">
        <ele>315.012840</ele>
        <time>2021-11-18T23:42:56.374Z</time>
      </trkpt>
      <trkpt lat="47.553725" lon="7.849291">
        <ele>315.822162</ele>
        <time>2021-11-18T23:43:07.747Z</time>
      </trkpt>
      <trkpt lat="47.553605" lon="7.849629">
        <ele>316.321478</ele>
        <time>2021-11-18T23:43:13.267Z</time>
      </trkpt>
      <trkpt lat="47.553537" lon="7.849904">
        <ele>316.704387</ele>
        <time>2021-11-18T23:43:17.333Z</time>
      </trkpt>
      <trkpt lat="47.553380" lon="7.850453">
        <ele>317.483931</ele>
        <time>2021-11-18T23:43:26.237Z</time>
      </trkpt>
      <trkpt lat="47.553344" lon="7.850525">
        <ele>317.601083</ele>
        <time>2021-11-18T23:43:27.540Z</time>
      </trkpt>
      <trkpt lat="47.553283" lon="7.850634">
        <ele>317.786211</ele>
        <time>2021-11-18T23:43:29.606Z</time>
      </trkpt>
      <trkpt lat="47.552876" lon="7.851300">
        <ele>318.960867</ele>
        <time>2021-11-18T23:43:43.416Z</time>
      </trkpt>
      <trkpt lat="47.552678" lon="7.851709">
        <ele>319.850057</ele>
        <time>2021-11-18T23:43:52.085Z</time>
      </trkpt>
      <trkpt lat="47.552449" lon="7.852231">
        <ele>321.256823</ele>
        <time>2021-11-18T23:44:03.621Z</time>
      </trkpt>
      <trkpt lat="47.552272" lon="7.852167">
        <ele>321.866797</ele>
        <time>2021-11-18T23:44:09.054Z</time>
      </trkpt>
      <trkpt lat="47.552097" lon="7.852063">
        <ele>322.498055</ele>
        <time>2021-11-18T23:44:14.348Z</time>
      </trkpt>
      <trkpt lat="47.552042" lon="7.852007">
        <ele>322.721478</ele>
        <time>2021-11-18T23:44:16.765Z</time>
      </trkpt>
      <trkpt lat="47.551925" lon="7.851845">
        <ele>323.257603</ele>
        <time>2021-11-18T23:44:21.081Z</time>
      </trkpt>
      <trkpt lat="47.551830" lon="7.851603">
        <ele>323.890194</ele>
        <time>2021-11-18T23:44:26.931Z</time>
      </trkpt>
      <trkpt lat="47.551660" lon="7.851725">
        <ele>324.522589</ele>
        <time>2021-11-18T23:44:32.201Z</time>
      </trkpt>
      <trkpt lat="47.551516" lon="7.851950">
        <ele>325.223234</ele>
        <time>2021-11-18T23:44:38.768Z</time>
      </trkpt>
      <trkpt lat="47.550924" lon="7.852810">
        <ele>327.451999</ele>
        <time>2021-11-18T23:45:02.658Z</time>
      </trkpt>
      <trkpt lat="47.550221" lon="7.853833">
        <ele>330.076584</ele>
        <time>2021-11-18T23:45:26.061Z</time>
      </trkpt>
      <trkpt lat="47.549883" lon="7.854434">
        <ele>330.395055</ele>
        <time>2021-11-18T23:45:36.102Z</time>
      </trkpt>
      <trkpt lat="47.549566" lon="7.855225">
        <ele>330.734488</ele>
        <time>2021-11-18T23:45:49.819Z</time>
      </trkpt>
      <trkpt lat="47.549362" lon="7.855774">
        <ele>330.965728</ele>
        <time>2021-11-18T23:45:58.278Z</time>
      </trkpt>
      <trkpt lat="47.548887" lon="7.857308">
        <ele>331.172172</ele>
        <time>2021-11-18T23:46:20.386Z</time>
      </trkpt>
      <trkpt lat="47.548743" lon="7.857692">
        <ele>331.196858</ele>
        <time>2021-11-18T23:46:26.358Z</time>
      </trkpt>
      <trkpt lat="47.548701" lon="7.857893">
        <ele>331.208682</ele>
        <time>2021-11-18T23:46:29.329Z</time>
      </trkpt>
      <trkpt lat="47.548686" lon="7.857973">
        <ele>331.213347</ele>
        <time>2021-11-18T23:46:30.452Z</time>
      </trkpt>
      <trkpt lat="47.548611" lon="7.858381">
        <ele>331.237110</ele>
        <time>2021-11-18T23:46:36.666Z</time>
      </trkpt>
      <trkpt lat="47.548334" lon="7.859801">
        <ele>332.195399</ele>
        <time>2021-11-18T23:46:59.704Z</time>
      </trkpt>
      <trkpt lat="47.548049" lon="7.860929">
        <ele>333.074095</ele>
        <time>2021-11-18T23:47:20.722Z</time>
      </trkpt>
      <trkpt lat="47.547930" lon="7.861711">
        <ele>333.912108</ele>
        <time>2021-11-18T23:47:35.486Z</time>
      </trkpt>
      <trkpt lat="47.547568" lon="7.863151">
        <ele>335.640023</ele>
        <time>2021-11-18T23:48:04.614Z</time>
      </trkpt>
      <trkpt lat="47.547320" lon="7.863864">
        <ele>336.214419</ele>
        <time>2021-11-18T23:48:18.554Z</time>
      </trkpt>
      <trkpt lat="47.546974" lon="7.864423">
        <ele>336.278781</ele>
        <time>2021-11-18T23:48:29.377Z</time>
      </trkpt>
      <trkpt lat="47.546885" lon="7.864500">
        <ele>336.291738</ele>
        <time>2021-11-18T23:48:32.462Z</time>
      </trkpt>
      <trkpt lat="47.546894" lon="7.864837">
        <ele>336.320358</ele>
        <time>2021-11-18T23:48:36.346Z</time>
      </trkpt>
      <trkpt lat="47.546889" lon="7.865225">
        <ele>336.353289</ele>
        <time>2021-11-18T23:48:41.771Z</time>
      </trkpt>
      <trkpt lat="47.546819" lon="7.865489">
        <ele>336.377359</ele>
        <time>2021-11-18T23:48:45.715Z</time>
      </trkpt>
      <trkpt lat="47.546510" lon="7.865766">
        <ele>336.358282</ele>
        <time>2021-11-18T23:48:52.349Z</time>
      </trkpt>
      <trkpt lat="47.546327" lon="7.865959">
        <ele>336.183187</ele>
        <time>2021-11-18T23:48:55.864Z</time>
      </trkpt>
      <trkpt lat="47.546096" lon="7.866147">
        <ele>335.977749</ele>
        <time>2021-11-18T23:49:00.420Z</time>
      </trkpt>
      <trkpt lat="47.545240" lon="7.866887">
        <ele>335.205232</ele>
        <time>2021-11-18T23:49:17.094Z</time>
      </trkpt>
      <trkpt lat="47.545160" lon="7.866985">
        <ele>335.124318</ele>
        <time>2021-11-18T23:49:19.050Z</time>
      </trkpt>
      <trkpt lat="47.545003" lon="7.867278">
        <ele>335.133752</ele>
        <time>2021-11-18T23:49:24.718Z</time>
      </trkpt>
      <trkpt lat="47.544568" lon="7.867693">
        <ele>335.716865</ele>
        <time>2021-11-18T23:49:37.509Z</time>
      </trkpt>
      <trkpt lat="47.544469" lon="7.867776">
        <ele>335.845068</ele>
        <time>2021-11-18T23:49:40.371Z</time>
      </trkpt>
      <trkpt lat="47.544410" lon="7.867825">
        <ele>335.921298</ele>
        <time>2021-11-18T23:49:42.459Z</time>
      </trkpt>
      <trkpt lat="47.544246" lon="7.867967">
        <ele>336.135382</ele>
        <time>2021-11-18T23:49:47.143Z</time>
      </trkpt>
      <trkpt lat="47.544214" lon="7.867988">
        <ele>336.174827</ele>
        <time>2021-11-18T23:49:47.991Z</time>
      </trkpt>
      <trkpt lat="47.543801" lon="7.868269">
        <ele>336.687028</ele>
        <time>2021-11-18T23:49:59.594Z</time>
      </trkpt>
      <trkpt lat="47.543657" lon="7.868359">
        <ele>336.863170</ele>
        <time>2021-11-18T23:50:03.943Z</time>
      </trkpt>
      <trkpt lat="47.543201" lon="7.868657">
        <ele>337.038918</ele>
        <time>2021-11-18T23:50:14.144Z</time>
      </trkpt>
      <trkpt lat="47.543105" lon="7.868711">
        <ele>337.038918</ele>
        <time>2021-11-18T23:50:16.728Z</time>
      </trkpt>
      <trkpt lat="47.543049" lon="7.868759">
        <ele>337.038918</ele>
        <time>2021-11-18T23:50:18.105Z</time>
      </trkpt>
      <trkpt lat="47.542722" lon="7.869201">
        <ele>337.038918</ele>
        <time>2021-11-18T23:50:27.951Z</time>
      </trkpt>
      <trkpt lat="47.542696" lon="7.869257">
        <ele>337.038918</ele>
        <time>2021-11-18T23:50:28.787Z</time>
      </trkpt>
      <trkpt lat="47.542657" lon="7.869354">
        <ele>337.038918</ele>
        <time>2021-11-18T23:50:30.236Z</time>
      </trkpt>
      <trkpt lat="47.542372" lon="7.869746">
        <ele>337.038918</ele>
        <time>2021-11-18T23:50:37.407Z</time>
      </trkpt>
      <trkpt lat="47.542329" lon="7.869820">
        <ele>337.038918</ele>
        <time>2021-11-18T23:50:38.631Z</time>
      </trkpt>
      <trkpt lat="47.542348" lon="7.869983">
        <ele>337.038918</ele>
        <time>2021-11-18T23:50:40.284Z</time>
      </trkpt>
      <trkpt lat="47.542317" lon="7.870012">
        <ele>337.038918</ele>
        <time>2021-11-18T23:50:40.947Z</time>
      </trkpt>
      <trkpt lat="47.542181" lon="7.870131">
        <ele>337.038918</ele>
        <time>2021-11-18T23:50:43.411Z</time>
      </trkpt>
      <trkpt lat="47.542118" lon="7.870135">
        <ele>337.038918</ele>
        <time>2021-11-18T23:50:44.467Z</time>
      </trkpt>
      <trkpt lat="47.542014" lon="7.870126">
        <ele>337.038918</ele>
        <time>2021-11-18T23:50:45.903Z</time>
      </trkpt>
      <trkpt lat="47.541910" lon="7.870106">
        <ele>337.038918</ele>
        <time>2021-11-18T23:50:47.447Z</time>
      </trkpt>
      <trkpt lat="47.541820" lon="7.870200">
        <ele>337.038918</ele>
        <time>2021-11-18T23:50:48.933Z</time>
      </trkpt>
      <trkpt lat="47.541705" lon="7.870320">
        <ele>337.038918</ele>
        <time>2021-11-18T23:50:50.978Z</time>
      </trkpt>
    </trkseg>
  </trk>
</gpx>